[[{"header":{"parameterUnit":"m.s-1","parameterCategory":1,"la1":30.6,"la2":28.766,"lo1":-90.7593,"lo2":-88.6598,"dy":0.0162,"dx":0.0183,"nx":116,"ny":114,"refTime":"2024-06-01T06:00:00:Z","depth":0,"parameterNumber":2,"parameterNumberName":"U-component_of_WINDS"},"data":[0.0,0.0,0.0,0.0,0.0,0.0,0.0,0.0,0.0,0.0,0.0,0.0,0.0,0.0,0.0,0.0,0.0,0.0,0.0,0.0,0.0,0.0,0.0,0.0,0.0,0.0,0.0,0.0,0.0,0.0,0.0,0.0,0.0,0.0,0.0,0.0,0.0,0.0,0.0,0.0,0.0,0.0,0.0,0.0,0.0,0.0,0.0,0.0,0.0,0.0,0.0,0.0,0.0,0.0,0.0,0.0,0.0,0.0,0.0,0.0,0.0,0.0,0.0,0.0,0.0,0.0,0.0,0.0,0.0,0.0,0.0,0.0,0.0,0.0,0.0,0.0,0.0,0.0,0.0,0.0,0.0,0.0,0.0,0.0,0.0,0.0,0.0,0.0,0.0,0.0,0.0,0.0,0.0,0.0,0.0,0.0,0.0,0.0,0.0,0.0,0.0,0.0,0.0,0.0,0.0,0.0,0.0,0.0,0.0,0.0,0.0,0.0,0.0,0.0,0.0,0.0,0.0,0.0,0.0,0.0,0.0,0.0,0.0,0.0,0.0,0.0,0.0,0.0,0.0,0.0,0.0,0.0,0.0,0.0,0.0,0.0,0.0,0.0,0.0,0.0,0.0,0.0,0.0,0.0,0.0,0.0,0.0,0.0,0.0,0.0,0.0,0.0,0.0,0.0,0.0,0.0,0.0,0.0,0.0,0.0,0.0,0.0,0.0,0.0,0.0,0.0,0.0,0.0,0.0,0.0,0.0,0.0,0.0,0.0,0.0,0.0,0.0,0.0,0.0,0.0,0.0,0.0,0.0,0.0,0.0,0.0,0.0,0.0,0.0,0.0,0.0,0.0,0.0,0.0,0.0,0.0,0.0,0.0,0.0,0.0,0.0,0.0,0.0,0.0,0.0,0.0,0.0,0.0,0.0,0.0,0.0,0.0,0.0,0.0,0.0,0.0,0.0,0.0,0.0,0.0,0.0,0.0,0.0,0.0,0.0,0.0,0.0,0.0,0.0,0.0,0.0,0.0,0.0,0.0,0.0,0.0,0.0,0.0,0.0,0.0,0.0,0.0,0.0,0.0,0.0,0.0,0.0,0.0,0.0,0.0,0.0,0.0,0.0,0.0,0.0,0.0,0.0,0.0,0.0,0.0,0.0,0.0,0.0,0.0,0.0,0.0,0.0,0.0,0.0,0.0,0.0,0.0,0.0,0.0,0.0,0.0,0.0,0.0,0.0,0.0,0.0,0.0,0.0,0.0,0.0,0.0,0.0,0.0,0.0,0.0,0.0,0.0,0.0,0.0,0.0,0.0,0.0,0.0,0.0,0.0,0.0,0.0,0.0,0.0,0.0,0.0,0.0,0.0,0.0,0.0,0.0,0.0,0.0,0.0,0.0,0.0,0.0,0.0,0.0,0.0,0.0,0.0,0.0,0.0,0.0,0.0,0.0,0.0,0.0,0.0,0.0,0.0,0.0,0.0,0.0,0.0,0.0,0.0,0.0,0.0,0.0,0.0,0.0,0.0,0.0,0.0,0.0,0.0,0.0,0.0,0.0,0.0,0.0,0.0,0.0,0.0,0.0,0.0,0.0,0.0,0.0,0.0,0.0,0.0,0.0,0.0,0.0,0.0,0.0,0.0,0.0,0.0,0.0,0.0,0.0,0.0,0.0,0.0,0.0,0.0,0.0,0.0,0.0,0.0,0.0,0.0,0.0,0.0,0.0,0.0,0.0,0.0,0.0,0.0,0.0,0.0,0.0,0.0,0.0,0.0,0.0,0.0,0.0,0.0,0.0,0.0,0.0,0.0,0.0,0.0,0.0,0.0,0.0,0.0,0.0,0.0,0.0,0.0,0.0,0.0,0.0,0.0,0.0,0.0,0.0,0.0,0.0,0.0,0.0,0.0,0.0,0.0,0.0,0.0,0.0,0.0,0.0,0.0,0.0,0.0,0.0,0.0,0.0,0.0,0.0,0.0,0.0,0.0,0.0,0.0,0.0,0.0,0.0,0.0,0.0,0.0,0.0,0.0,0.0,0.0,0.0,0.0,0.0,0.0,0.0,0.0,0.0,0.0,0.0,0.0,0.0,0.0,0.0,0.0,0.0,0.0,0.0,0.0,0.0,0.0,0.0,0.0,0.0,0.0,0.0,0.0,0.0,0.0,0.0,0.0,0.0,0.0,0.0,0.0,0.0,0.0,0.0,0.0,0.0,0.0,0.0,0.0,0.0,0.0,0.0,0.0,0.0,0.0,0.0,0.0,0.0,0.0,0.0,0.0,0.0,0.0,0.0,0.0,0.0,0.0,0.0,0.0,0.0,0.0,0.0,0.0,0.0,0.0,0.0,0.0,0.0,0.0,0.0,0.0,0.0,0.0,0.0,0.0,0.0,0.0,0.0,0.0,0.0,0.0,0.0,0.0,0.0,0.0,0.0,0.0,0.0,0.0,0.0,0.0,0.0,0.0,0.0,0.0,0.0,0.0,0.0,0.0,0.0,0.0,0.0,0.0,0.0,0.0,0.0,0.0,0.0,0.0,0.0,0.0,0.0,0.0,0.0,0.0,0.0,0.0,0.0,0.0,0.0,0.0,0.0,0.0,0.0,0.0,0.0,0.0,0.0,0.0,0.0,0.0,0.0,0.0,0.0,0.0,0.0,0.0,0.0,0.0,0.0,0.0,0.0,0.0,0.0,0.0,0.0,0.0,0.0,0.0,0.0,0.0,0.0,0.0,0.0,0.0,0.0,0.0,0.0,0.0,0.0,0.0,0.0,0.0,0.0,0.0,0.0,0.0,0.0,0.0,0.0,0.0,0.0,0.0,0.0,0.0,0.0,0.0,0.0,0.0,0.0,0.0,0.0,0.0,0.0,0.0,0.0,0.0,0.0,0.0,0.0,0.0,0.0,0.0,0.0,0.0,0.0,0.0,0.0,0.0,0.0,0.0,0.0,0.0,0.0,0.0,0.0,0.0,0.0,0.0,0.0,0.0,0.0,0.0,0.0,0.0,0.0,0.0,0.0,0.0,0.0,0.0,0.0,0.0,0.0,0.0,0.0,0.0,0.0,0.0,0.0,0.0,0.0,0.0,0.0,0.0,0.0,0.0,0.0,0.0,0.0,0.0,0.0,0.0,0.0,0.0,0.0,0.0,0.0,0.0,0.0,0.0,0.0,0.0,0.0,0.0,0.0,0.0,0.0,0.0,0.0,0.0,0.0,0.0,0.0,0.0,0.0,0.0,0.0,0.0,0.0,0.0,0.0,0.0,0.0,0.0,0.0,0.0,0.0,0.0,0.0,0.0,0.0,0.0,0.0,0.0,0.0,0.0,0.0,0.0,0.0,0.0,0.0,0.0,0.0,0.0,0.0,0.0,0.0,0.0,0.0,0.0,0.0,0.0,0.0,0.0,0.0,0.0,0.0,0.0,0.0,0.0,0.0,0.0,0.0,0.0,0.0,0.0,0.0,0.0,0.0,0.0,0.0,0.0,0.0,0.0,0.0,0.0,0.0,0.0,0.0,0.0,0.0,0.0,0.0,0.0,0.0,0.0,0.0,0.0,0.0,0.0,0.0,0.0,0.0,0.0,0.0,0.0,0.0,0.0,0.0,0.0,0.0,0.0,0.0,0.0,0.0,0.0,0.0,0.0,0.0,0.0,0.0,0.0,0.0,0.0,0.0,0.0,0.0,0.0,0.0,0.0,0.0,0.0,0.0,0.0,0.0,0.0,0.0,0.0,0.0,0.0,0.0,0.0,0.0,0.0,0.0,0.0,0.0,0.0,0.0,0.0,0.0,0.0,0.0,0.0,0.0,0.0,0.0,0.0,0.0,0.0,0.0,0.0,0.0,0.0,0.0,0.0,0.0,0.0,0.0,0.0,0.0,0.0,0.0,0.0,0.0,0.0,0.0,0.0,0.0,0.0,0.0,0.0,0.0,0.0,0.0,0.0,0.0,0.0,0.0,0.0,0.0,0.0,0.0,0.0,0.0,0.0,0.0,0.0,0.0,0.0,0.0,0.0,0.0,0.0,0.0,0.0,0.0,0.0,0.0,0.0,0.0,0.0,0.0,0.0,0.0,0.0,0.0,0.0,0.0,0.0,0.0,0.0,0.0,0.0,0.0,0.0,0.0,0.0,0.0,0.0,0.0,0.0,0.0,0.0,0.0,0.0,0.0,0.0,0.0,0.0,0.0,0.0,0.0,0.0,0.0,0.0,0.0,0.0,0.0,0.0,0.0,0.0,0.0,0.0,0.0,0.0,0.0,0.0,0.0,0.0,0.0,0.0,0.0,0.0,0.0,0.0,0.0,0.0,0.0,0.0,0.0,0.0,0.0,0.0,0.0,0.0,0.0,0.0,0.0,0.0,0.0,0.0,0.0,0.0,0.0,0.0,0.0,0.0,0.0,0.0,0.0,0.0,0.0,0.0,0.0,0.0,0.0,0.0,0.0,0.0,0.0,0.0,0.0,0.0,0.0,0.0,0.0,0.0,0.0,0.0,0.0,0.0,0.0,0.0,0.0,0.0,0.0,0.0,0.0,0.0,0.0,0.0,0.0,0.0,0.0,0.0,0.0,0.0,0.0,0.0,0.0,0.0,0.0,0.0,0.0,0.0,0.0,0.0,0.0,0.0,0.0,0.0,0.0,0.0,0.0,0.0,0.0,0.0,0.0,0.0,0.0,0.0,0.0,0.0,0.0,0.0,0.0,0.0,0.0,0.0,0.0,0.0,0.0,0.0,0.0,0.0,0.0,0.0,0.0,0.0,0.0,0.0,0.0,0.0,0.0,0.0,0.0,0.0,0.0,0.0,0.0,0.0,0.0,0.0,0.0,0.0,0.0,0.0,0.0,0.0,0.0,0.0,0.0,0.0,0.0,0.0,0.0,0.0,0.0,0.0,0.0,0.0,0.0,0.0,0.0,0.0,0.0,0.0,0.0,0.0,0.0,0.0,0.0,0.0,0.0,0.0,0.0,0.0,0.0,0.0,0.0,0.0,0.0,0.0,0.0,0.0,0.0,0.0,0.0,0.0,0.0,0.0,0.0,0.0,0.0,0.0,0.0,0.0,0.0,0.0,0.0,0.0,0.0,0.0,0.0,0.0,0.0,0.0,0.0,0.0,0.0,0.0,0.0,0.0,0.0,0.0,0.0,0.0,0.0,0.0,0.0,0.0,0.0,0.0,0.0,0.0,0.0,0.0,0.0,0.0,0.0,0.0,0.0,0.0,0.0,0.0,0.0,0.0,0.0,0.0,0.0,0.0,0.0,0.0,0.0,0.0,0.0,0.0,0.0,0.0,0.0,0.0,0.0,0.0,0.0,0.0,0.0,0.0,0.0,0.0,0.0,0.0,0.0,0.0,0.0,0.0,0.0,0.0,0.0,0.0,0.0,0.0,0.0,0.0,0.0,0.0,0.0,0.0,0.0,0.0,0.0,0.0,0.0,0.0,0.0,0.0,0.0,0.0,0.0,0.0,0.0,0.0,0.0,0.0,0.0,0.0,0.0,0.0,0.0,0.0,0.0,0.0,0.0,0.0,0.0,0.0,0.0,0.0,0.0,0.0,0.0,0.0,0.0,0.0,0.0,0.0,0.0,0.0,0.0,0.0,0.0,0.0,0.0,0.0,0.0,0.0,0.0,0.0,0.0,0.0,0.0,0.0,0.0,0.0,0.0,0.0,0.0,0.0,0.0,0.0,0.0,0.0,0.0,0.0,0.0,0.0,0.0,0.0,0.0,0.0,0.0,0.0,0.0,0.0,0.0,0.0,0.0,0.0,0.0,0.0,0.0,0.0,0.0,0.0,0.0,0.0,0.0,0.0,0.0,0.0,0.0,0.0,0.0,0.0,0.0,0.0,0.0,0.0,0.0,0.0,0.0,0.0,0.0,0.0,0.0,0.0,0.0,0.0,0.0,0.0,0.0,0.0,0.0,0.0,0.0,0.0,0.0,0.0,0.0,0.0,0.0,0.0,0.0,0.0,0.0,0.0,0.0,0.0,0.0,0.0,0.0,0.0,0.0,0.0,0.0,0.0,0.0,0.0,0.0,0.0,0.0,0.0,0.0,0.0,0.0,0.0,0.0,0.0,0.0,0.0,0.0,0.0,0.0,0.0,0.0,0.0,-3.6077,0.0,0.0,0.0,0.0,0.0,0.0,0.0,0.0,0.0,0.0,0.0,0.0,0.0,0.0,0.0,0.0,0.0,0.0,0.0,0.0,0.0,0.0,0.0,0.0,-2.8998,-3.0044,-2.9647,-2.9989,-3.0044,-2.9647,0.0,0.0,0.0,0.0,0.0,-2.7181,-2.6017,-2.5393,-2.5393,-2.4585,-2.419,-2.4199,-2.44,-2.4607,-2.4804,0.0,0.0,0.0,0.0,0.0,0.0,0.0,0.0,0.0,0.0,0.0,0.0,0.0,0.0,0.0,0.0,0.0,0.0,0.0,0.0,0.0,0.0,0.0,0.0,0.0,0.0,0.0,0.0,0.0,0.0,0.0,0.0,0.0,0.0,0.0,0.0,0.0,0.0,0.0,0.0,0.0,0.0,0.0,0.0,0.0,0.0,0.0,0.0,0.0,0.0,0.0,0.0,0.0,0.0,0.0,0.0,0.0,0.0,0.0,0.0,0.0,0.0,0.0,0.0,0.0,0.0,0.0,0.0,0.0,0.0,0.0,-3.6692,0.0,0.0,0.0,0.0,0.0,0.0,0.0,0.0,0.0,0.0,0.0,0.0,0.0,0.0,0.0,0.0,0.0,0.0,0.0,0.0,0.0,-2.6602,-2.6602,-2.876,-2.9934,-2.9262,-2.9824,-2.9922,-2.9244,-2.9078,0.0,0.0,0.0,-2.8007,-2.8007,-2.6379,-2.5533,-2.5533,-2.4589,-2.4103,-2.4103,-2.417,-2.4375,-2.47,-2.4731,0.0,0.0,0.0,0.0,0.0,0.0,0.0,0.0,0.0,0.0,0.0,0.0,0.0,0.0,0.0,0.0,0.0,0.0,0.0,0.0,0.0,0.0,0.0,0.0,0.0,0.0,0.0,0.0,0.0,0.0,0.0,0.0,0.0,0.0,0.0,0.0,0.0,0.0,0.0,0.0,0.0,0.0,0.0,0.0,0.0,0.0,0.0,0.0,0.0,0.0,0.0,0.0,0.0,0.0,0.0,0.0,0.0,0.0,0.0,0.0,0.0,0.0,0.0,-3.8373,-3.843,-3.843,-3.843,-3.8408,-3.8378,-3.8416,-3.8277,-3.793,-3.7065,0.0,0.0,0.0,0.0,0.0,0.0,0.0,0.0,0.0,0.0,0.0,0.0,0.0,0.0,0.0,0.0,0.0,0.0,0.0,-2.6602,-2.6602,-2.876,-3.0173,-3.0063,-3.0136,-3.0155,-3.0063,-2.939,0.0,0.0,-2.8895,-2.884,-2.884,-2.6966,-2.6005,-2.6005,-2.4509,-2.3774,-2.3774,-2.4064,-2.4228,-2.4284,-2.4461,-2.4543,-2.4583,0.0,0.0,0.0,0.0,0.0,0.0,0.0,0.0,0.0,0.0,0.0,0.0,0.0,0.0,0.0,0.0,0.0,0.0,0.0,0.0,0.0,0.0,0.0,0.0,0.0,0.0,0.0,0.0,0.0,0.0,0.0,0.0,0.0,0.0,0.0,0.0,0.0,0.0,0.0,0.0,0.0,-3.4454,-3.3862,0.0,0.0,0.0,0.0,0.0,0.0,0.0,0.0,0.0,0.0,0.0,0.0,0.0,-3.6788,-3.7382,-3.855,-3.913,-3.915,-3.9842,-4.0169,-4.0169,-4.0169,-4.0046,-3.9833,-4.0063,0.0,-3.793,-3.7065,0.0,0.0,0.0,0.0,0.0,0.0,0.0,0.0,0.0,0.0,0.0,0.0,0.0,0.0,0.0,0.0,0.0,0.0,0.0,0.0,0.0,-2.8081,-2.9335,-2.8888,-2.9095,-2.9234,-2.9191,-2.8303,-2.7954,-2.8355,-2.8391,-2.8391,-2.8391,-2.6665,-2.5338,-2.4474,-2.3765,-2.3414,-2.3414,-2.3566,-2.3735,-2.3917,-2.4001,-2.422,-2.4512,-2.4591,0.0,0.0,0.0,0.0,0.0,0.0,0.0,0.0,0.0,0.0,0.0,0.0,0.0,0.0,0.0,0.0,0.0,0.0,0.0,0.0,0.0,0.0,0.0,0.0,0.0,0.0,0.0,0.0,0.0,0.0,0.0,0.0,0.0,0.0,0.0,0.0,0.0,0.0,0.0,-3.405,-3.4711,-3.3899,-3.4509,-3.4674,0.0,0.0,0.0,0.0,0.0,0.0,0.0,0.0,0.0,-3.6556,-3.7129,-3.7589,-3.7949,-3.8954,-3.9461,-3.948,-4.0032,-4.0286,-4.0286,-4.0422,-4.0356,-4.0101,-4.0223,-3.9746,-3.8861,-3.8369,-3.7873,-3.7353,0.0,0.0,0.0,0.0,-3.493,-3.4872,0.0,0.0,0.0,0.0,0.0,0.0,0.0,0.0,0.0,0.0,0.0,0.0,-2.5393,-2.7109,-2.8022,-2.7412,-2.7604,-2.7743,-2.7687,-2.7117,-2.704,-2.7593,-2.7791,-2.7809,-2.7628,-2.5972,-2.4417,-2.2982,-2.3051,-2.3069,-2.3081,-2.3153,-2.3335,-2.3566,-2.3566,-2.3883,-2.4409,-2.4409,-2.4545,-2.4723,0.0,0.0,0.0,0.0,0.0,0.0,0.0,0.0,0.0,0.0,0.0,0.0,0.0,0.0,0.0,0.0,0.0,0.0,0.0,0.0,0.0,0.0,0.0,0.0,0.0,0.0,0.0,0.0,0.0,0.0,0.0,0.0,0.0,0.0,0.0,0.0,0.0,-3.4674,-3.4949,-3.3917,-3.489,-3.5224,0.0,0.0,0.0,0.0,0.0,0.0,-3.5993,-3.6574,-3.6992,-3.7198,-3.7838,-3.831,-3.8505,-3.9232,-3.9599,-3.9599,-3.984,-3.9982,-3.9982,-4.0185,-4.011,-3.9859,-3.9932,-3.9786,-3.9453,-3.9166,-3.8542,-3.768,-3.6903,-3.612,-3.5417,-3.546,-3.55,-3.55,0.0,0.0,0.0,0.0,0.0,0.0,0.0,0.0,0.0,0.0,0.0,-2.5393,-2.5393,-2.5921,-2.6223,-2.6187,-2.5923,-2.5748,0.0,-2.6406,-2.6823,-2.6858,-2.7522,-2.7575,-2.6876,-2.5032,-2.3515,-2.2349,-2.2599,-2.2733,-2.2733,-2.3057,-2.32,-2.3242,-2.3242,-2.3588,-2.4209,-2.4209,-2.4339,-2.452,-2.452,0.0,0.0,0.0,0.0,0.0,0.0,0.0,0.0,0.0,0.0,0.0,0.0,0.0,0.0,0.0,0.0,0.0,0.0,0.0,0.0,0.0,0.0,0.0,0.0,0.0,0.0,0.0,0.0,0.0,0.0,0.0,0.0,0.0,0.0,0.0,0.0,0.0,0.0,-3.399,-3.5932,0.0,0.0,0.0,0.0,-3.6185,-3.6221,-3.6272,-3.6287,-3.6323,-3.6691,-3.7459,-3.776,-3.83,-3.9051,-3.9419,-3.9599,-3.9599,-3.9622,-3.9622,-3.9622,-3.9645,-3.9462,-3.9178,-3.9493,-3.9426,-3.9091,-3.8559,-3.7878,-3.7089,-3.6539,-3.5829,-3.5147,-3.5417,-3.55,-3.55,0.0,0.0,0.0,0.0,0.0,-2.419,-2.419,-2.419,-2.419,-2.419,-2.4271,-2.4314,-2.4314,-2.4721,-2.501,-2.501,-2.4736,-2.4769,-2.526,-2.4854,-2.4818,-2.5301,-2.5577,-2.5232,-2.419,-2.3787,-2.303,-2.1838,-2.2243,-2.2436,-2.2453,-2.2571,-2.2721,-2.2885,-2.2885,-2.3129,-2.3566,-2.3785,-2.4037,-2.4312,-2.4312,-2.4348,0.0,0.0,0.0,0.0,0.0,0.0,0.0,0.0,0.0,0.0,0.0,0.0,0.0,0.0,0.0,0.0,0.0,0.0,0.0,0.0,0.0,0.0,0.0,0.0,0.0,0.0,0.0,0.0,0.0,0.0,0.0,0.0,0.0,0.0,0.0,0.0,0.0,-3.5477,-3.6648,0.0,-3.5936,-3.6119,-3.6303,-3.6303,-3.6795,-3.707,-3.707,-3.7551,-3.7973,-3.8267,-3.8365,-3.8549,-3.8844,-3.8956,-3.9008,-3.9022,-3.9197,-3.9276,-3.9295,-3.9498,-3.9414,-3.9112,-3.9244,-3.9104,-3.8822,-3.8641,-3.7978,-3.7036,-3.6317,-3.5561,-3.4879,-3.5138,-3.5239,-3.5273,0.0,0.0,0.0,0.0,-2.419,-2.419,-2.419,-2.419,-2.4161,-2.4054,-2.3837,-2.366,-2.3544,-2.3715,-2.3832,-2.3832,-2.3576,-2.3633,-2.4115,-2.3672,-2.3613,-2.4118,-2.3979,-2.3448,-2.2524,-2.2562,-2.2199,-2.1399,-2.1705,-2.1871,-2.1855,-2.2003,-2.2155,-2.2337,-2.2476,-2.2738,-2.3045,-2.3259,-2.3555,-2.3894,-2.4277,-2.4202,-2.3951,0.0,0.0,0.0,0.0,0.0,0.0,0.0,0.0,0.0,0.0,0.0,0.0,0.0,0.0,0.0,0.0,0.0,0.0,0.0,0.0,0.0,0.0,0.0,0.0,0.0,0.0,0.0,0.0,0.0,0.0,0.0,0.0,0.0,0.0,-3.6174,-3.6597,-3.6321,-3.7239,-3.7603,-3.6795,-3.6945,-3.711,-3.711,-3.7588,-3.7915,-3.7915,-3.8414,-3.8707,-3.8707,-3.8707,-3.8707,-3.8707,-3.8707,-3.8707,-3.8707,-3.8884,-3.8975,-3.8957,-3.9203,-3.9176,-3.8975,-3.8975,-3.8722,-3.8267,-3.7991,-3.7285,-3.6393,-3.6235,-3.5498,-3.4572,-3.4851,-3.4963,-3.499,0.0,0.0,0.0,-2.419,-2.419,-2.419,-2.419,-2.419,-2.4084,-2.3764,-2.3692,-2.3555,-2.3242,-2.2898,-2.2682,-2.2682,-2.245,-2.2296,-2.2296,-2.297,-2.3359,-2.3344,-2.2917,-2.2475,-2.205,-2.1359,-2.0991,-2.0975,-2.0991,-2.0991,-2.1023,-2.1399,-2.1582,-2.1612,-2.2077,-2.2422,-2.2682,-2.2682,-2.2873,-2.3271,-2.4399,-2.4198,-2.3484,0.0,0.0,0.0,0.0,0.0,0.0,0.0,0.0,0.0,0.0,0.0,0.0,0.0,0.0,0.0,0.0,0.0,0.0,0.0,0.0,0.0,0.0,0.0,0.0,0.0,0.0,0.0,0.0,0.0,0.0,0.0,0.0,0.0,-3.6307,-3.7,-3.7217,-3.645,-3.7753,-3.8395,-3.7621,-3.823,-3.8707,-3.8707,-3.8707,-3.8707,-3.8707,-3.8707,-3.8707,-3.8707,-3.8707,-3.8707,-3.8707,-3.8707,-3.8707,-3.8707,-3.8707,-3.8707,-3.8707,-3.8707,-3.8707,-3.8707,-3.867,-3.8212,-3.7437,-3.6615,-3.5789,-3.5105,-3.6181,-3.5616,-3.4242,-3.4561,-3.4684,-3.4694,0.0,0.0,-2.419,-2.419,-2.419,-2.419,-2.419,-2.419,-2.417,-2.4074,-2.3649,-2.3311,-2.32,-2.2721,-2.2398,-2.2398,-2.2349,-2.2296,-2.2296,-2.2496,-2.2452,-2.2107,-2.2166,-2.1757,-2.0815,-2.0941,-2.0829,-2.05,-2.0829,-2.0991,-2.0991,-2.1102,-2.1322,-2.1613,-2.1718,-2.2013,-2.2398,-2.2398,-2.2467,-2.2602,-2.337,-2.3809,-2.4067,0.0,0.0,0.0,0.0,0.0,0.0,0.0,0.0,0.0,0.0,0.0,0.0,0.0,0.0,0.0,0.0,0.0,0.0,0.0,0.0,0.0,0.0,0.0,0.0,0.0,0.0,0.0,0.0,0.0,0.0,0.0,-3.5083,-3.5812,-3.6497,-3.7113,-3.7639,-3.7991,-3.8432,-3.8615,-3.8395,-3.8579,-3.8707,-3.8707,-3.8707,-3.8707,-3.8707,-3.8707,-3.8707,-3.8707,-3.8707,-3.8707,-3.8707,-3.8707,-3.8707,-3.8707,-3.8707,-3.8707,-3.8707,-3.8707,-3.8707,-3.867,-3.8065,-3.7713,-3.7437,-3.6615,-3.5789,-3.4968,-3.4691,-3.4321,-3.3935,-3.423,-3.4497,-3.4694,0.0,-2.419,-2.419,-2.419,-2.419,-2.419,-2.419,-2.419,-2.4151,-2.4006,-2.366,-2.3311,-2.3021,-2.2682,-2.2426,-2.231,-2.2581,-2.2632,-2.2313,-2.2377,-2.2135,-2.1504,-2.1622,-2.1202,-2.0085,-2.0328,-2.0328,-2.0052,-2.0328,-2.0464,-2.0464,-2.0632,-2.083,-2.107,-2.1445,-2.1749,-2.2017,-2.2209,-2.2296,-2.2338,-2.2686,-2.3072,-2.3567,-2.4491,-2.4627,-2.4375,-2.4693,-2.459,-2.4348,-2.4701,0.0,0.0,0.0,0.0,0.0,0.0,0.0,0.0,0.0,0.0,0.0,0.0,0.0,0.0,0.0,0.0,0.0,0.0,0.0,0.0,0.0,0.0,0.0,0.0,-3.5459,-3.6197,-3.6537,-3.7209,-3.7838,-3.8312,-3.8562,-3.8707,-3.8707,-3.8707,-3.8707,-3.8707,-3.8707,-3.8707,-3.8707,-3.8707,-3.8707,-3.8707,-3.8707,-3.8707,-3.8707,-3.8707,-3.8707,-3.8707,-3.8707,-3.8707,-3.8707,-3.8707,-3.8707,-3.867,-3.786,-3.7309,-3.6942,-3.6101,-3.5261,0.0,0.0,0.0,0.0,0.0,-3.4153,-3.4307,0.0,-2.419,-2.419,-2.419,-2.419,-2.419,-2.419,-2.4281,-2.4203,-2.3813,-2.3804,-2.3567,-2.2835,-2.2721,-2.2586,-2.2307,-2.297,-2.3141,-2.2509,-2.2661,-2.2325,-2.1337,-2.1342,-2.0834,-1.9708,-1.9708,-1.9708,-1.9708,-1.9708,-1.9708,-1.9708,-2.007,-2.0246,-2.0316,-2.1118,-2.1476,-2.1552,-2.2017,-2.2223,-2.224,-2.2282,-2.2347,-2.2649,-2.4598,-2.4327,-2.3115,-2.4791,-2.4941,-2.4444,-2.5239,0.0,0.0,0.0,0.0,0.0,0.0,0.0,0.0,0.0,0.0,0.0,0.0,0.0,0.0,0.0,0.0,0.0,0.0,0.0,0.0,0.0,0.0,0.0,0.0,-3.5916,-3.6845,-3.6374,-3.7117,-3.7772,-3.7894,-3.8382,-3.8707,-3.8707,-3.8707,-3.8707,-3.8707,-3.8707,-3.8707,-3.8707,-3.8707,0.0,0.0,0.0,-3.8707,-3.8707,-3.8707,-3.8707,-3.8707,-3.8707,-3.8707,-3.8707,-3.8707,-3.8707,-3.867,-3.786,-3.7052,-3.6229,-3.5353,-3.4527,-3.3862,-3.4582,-3.4417,-3.3807,-3.3807,-3.3807,-3.3807,0.0,-2.419,-2.419,-2.419,-2.419,-2.419,-2.419,-2.475,-2.4914,-2.4195,-2.4439,-2.4273,-2.3212,-2.286,-2.2586,-2.2307,-2.297,-2.3412,-2.3422,-2.3676,-2.307,-2.1368,-2.15,-2.1012,-1.9738,-1.9708,-1.9708,-1.9708,-1.9708,-1.9708,-1.9708,-1.9782,-1.9982,-2.0314,-2.0483,-2.0764,-2.1134,-2.1568,-2.1749,-2.1779,-2.2152,-2.2665,-2.3221,-2.365,-2.3972,-2.4205,-2.4552,-2.4599,-2.4584,-2.5337,-2.5137,-2.47,-2.5296,-2.5437,0.0,0.0,0.0,0.0,0.0,0.0,0.0,0.0,0.0,0.0,0.0,0.0,0.0,0.0,0.0,0.0,0.0,0.0,0.0,-3.4515,-3.5295,-3.5876,-3.5783,-3.6291,-3.7001,-3.7807,-3.8382,-3.8707,-3.8707,-3.8707,-3.8707,-3.8707,-3.8707,-3.8707,-3.8707,-3.8707,-3.8707,-3.8707,-3.8707,-3.8707,-3.8707,-3.8707,-3.8707,-3.8707,0.0,0.0,-3.8707,-3.8707,-3.8707,-3.867,-3.786,-3.7052,-3.6229,-3.5353,-3.4527,-3.3825,-3.3972,-3.3935,-3.3807,-3.3807,-3.3807,-3.3807,-2.419,-2.419,-2.419,-2.419,-2.419,-2.419,-2.419,-2.4548,-2.4805,-2.4805,-2.4996,-2.4878,-2.4127,-2.3749,-2.3271,-2.2561,-2.3051,-2.3693,-2.441,-2.3931,-2.2967,-2.1572,-2.1321,-2.0722,-1.9723,-1.9708,-1.9708,-1.9708,-1.9708,-1.9708,-1.9708,-1.9708,-1.9818,-2.0017,-2.0212,-2.0433,-2.0682,-2.1118,-2.1414,-2.1597,-2.1645,-2.2132,-2.2852,-2.2852,-2.3308,-2.4,-2.4372,-2.4745,-2.5152,-2.5896,-2.5912,-2.5675,-2.6031,-2.615,-2.6218,0.0,0.0,0.0,0.0,0.0,0.0,0.0,0.0,0.0,0.0,0.0,0.0,0.0,0.0,-3.3508,-3.388,0.0,-3.4624,-3.4996,-3.5346,-3.56,-3.56,-3.6054,-3.6583,-3.7079,-3.7825,-3.83,-3.83,-3.8546,-3.8707,-3.8707,-3.8707,-3.8707,-3.8707,-3.8707,-3.8707,-3.8707,-3.8707,-3.8707,-3.8707,-3.8707,-3.8707,-3.8707,-3.8707,-3.8707,-3.8707,-3.8707,-3.8707,-3.8634,-3.7422,-3.6684,-3.6193,-3.4926,-3.4174,-3.3807,-3.3807,-3.3807,-3.3807,-3.3807,-3.3807,-3.3807,-2.419,-2.419,-2.419,-2.419,-2.419,-2.4245,-2.441,-2.4575,-2.4905,-2.5558,-2.576,-2.5675,-2.5181,-2.4885,-2.4367,-2.3458,-2.3645,-2.4263,-2.5298,-2.4198,-2.3007,-2.1877,-2.1244,-2.0528,-1.9723,-1.9708,-1.9708,-1.9708,-1.9708,-1.9708,-1.9708,-1.9708,-1.9708,-1.9711,-2.0052,-2.0177,-2.021,-2.0682,-2.1119,-2.1517,-2.1295,-2.1678,-2.2454,-2.2543,-2.2931,-2.3509,-2.4237,-2.4966,-2.571,-2.6437,-2.6691,-2.6691,-2.6691,-2.6691,-2.6843,-2.757,-2.7807,0.0,0.0,0.0,0.0,0.0,0.0,0.0,0.0,-3.3068,-3.366,-3.3812,-3.3846,-3.4066,-3.481,-3.4967,-3.5131,-3.5757,-3.5819,-3.5769,-3.5616,-3.5985,-3.6228,-3.6228,-3.723,-3.7893,-3.7893,-3.8382,-3.8707,-3.8707,-3.8707,-3.8707,-3.8707,-3.8707,-3.8707,-3.8707,-3.8707,-3.8707,-3.8707,-3.8707,-3.8707,-3.8707,-3.8707,-3.8707,-3.8707,-3.8707,-3.8707,-3.8615,-3.7,-3.6193,-3.5936,-3.4412,-3.3807,-3.3807,-3.3807,-3.3807,-3.3807,-3.3807,-3.3807,-3.3807,0.0,-2.419,-2.419,-2.419,-2.419,-2.4438,-2.5154,-2.586,-2.6374,-2.6447,-2.709,-2.7119,-2.609,-2.5942,-2.5884,-2.5799,-2.5523,-2.5514,-2.5893,-2.5303,-2.4157,-2.2403,-2.1864,-2.0991,-1.9738,-1.9708,-1.9708,-1.9708,-1.9708,-1.9708,-1.9708,-1.9708,-1.9708,-1.9708,-1.9747,-1.9764,-1.98,-2.021,-2.0741,-2.1372,-2.1733,-2.2302,-2.2964,-2.3374,-2.348,-2.3509,-2.4237,-2.4966,-2.571,-2.6437,-2.6691,-2.6691,-2.6691,-2.6691,-2.6843,-2.757,-2.7807,-2.7976,-2.879,-2.9465,-3.0159,-3.0886,-3.1701,-3.2479,0.0,-3.3846,-3.4556,-3.5211,-3.5346,-3.5583,-3.6406,-3.6541,-3.6575,-3.666,-3.6677,-3.6417,-3.5701,-3.5667,-3.5694,-3.5694,-3.6985,-3.7893,-3.7893,-3.8382,-3.8707,-3.8707,-3.8707,-3.8707,-3.8707,-3.8707,-3.8707,-3.8707,-3.8707,-3.8707,-3.8707,-3.8707,-3.8707,-3.8707,-3.8707,-3.8707,-3.8707,-3.8707,-3.8707,-3.8615,-3.7,-3.5862,-3.5078,-3.4174,-3.3807,-3.3807,-3.3807,-3.3807,-3.3807,-3.3807,-3.3807,-3.3807,0.0,-2.419,-2.419,-2.419,-2.4585,-2.5007,-2.5338,-2.608,-2.6778,-2.7236,-2.7585,-2.7625,-2.7148,-2.6504,-2.6131,-2.6196,-2.6044,-2.5959,-2.5999,-2.5422,-2.445,-2.304,-2.2421,-2.1709,-2.0891,-2.0857,-2.0857,-2.0857,-2.0857,-2.0857,-2.0857,-2.0857,-2.0857,-2.0857,-2.0857,-2.0857,-2.088,-2.1323,-2.1842,-2.2339,-2.2252,-2.2884,-2.3836,-2.3468,-2.3902,-2.4729,-2.5033,-2.5609,0.0,-2.659,-2.6691,-2.6691,-2.6691,-2.6691,-2.6843,-2.757,-2.7807,-2.7976,-2.879,-2.9856,-3.0717,-3.0598,-3.1765,-3.3017,-3.3339,-3.4303,-3.5233,-3.5532,-3.56,-3.5859,-3.666,-3.6795,-3.6795,-3.6795,-3.6795,-3.6502,-3.5701,-3.56,-3.56,-3.56,-3.6804,-3.7612,-3.7505,-3.7929,-3.8366,-3.8692,-3.8707,-3.8707,-3.8707,-3.8707,-3.8707,-3.8707,-3.8707,-3.8707,-3.8707,-3.8707,-3.8707,-3.8707,-3.8707,-3.8707,-3.8707,-3.8707,-3.8193,-3.7239,-3.6064,-3.5059,-3.427,-3.3935,-3.3807,-3.3807,-3.3807,-3.3807,-3.3807,-3.3807,-3.3807,-3.3807,0.0,-2.419,-2.419,-2.419,-2.4879,-2.5393,-2.5393,-2.608,-2.6888,-2.7688,-2.7989,-2.8136,-2.8136,-2.73,-2.6749,-2.6813,-2.6606,-2.645,-2.6369,-2.5677,-2.4842,-2.3885,-2.3092,-2.2443,-2.1901,-2.1774,-2.1695,-2.1695,-2.1695,-2.1695,-2.1695,-2.1695,-2.1695,-2.1695,-2.1695,-2.1759,-2.192,-2.2262,-2.2784,-2.3389,-2.3254,-2.3919,-2.493,-2.4414,-2.4952,-2.5967,-2.5712,-2.6065,-2.6691,-2.6691,-2.6691,-2.6691,-2.6691,-2.6691,-2.6843,-2.757,-2.7959,-2.8349,-2.9348,-3.0226,-3.0818,-3.0497,-3.1765,-3.3102,-3.3102,-3.4252,-3.5295,-3.5295,-3.5447,-3.5859,-3.666,-3.6981,-3.7117,-3.7117,-3.7117,-3.6823,-3.6045,-3.5735,-3.5667,-3.591,-3.6766,-3.7382,-3.7571,-3.7953,-3.8425,-3.8988,-3.8836,-3.8707,-3.8707,-3.8707,-3.8707,-3.8707,-3.8707,-3.8707,-3.8707,-3.8707,-3.8707,-3.8707,-3.8707,-3.8707,-3.8689,-3.8469,-3.7606,-3.6248,-3.5371,-3.4546,-3.3807,-3.3807,-3.3807,-3.3807,-3.3807,-3.3807,-3.3807,-3.3807,-3.3807,-3.3807,0.0,0.0,-2.419,-2.419,-2.4879,-2.5393,-2.5393,-2.608,-2.6888,-2.7688,-2.8484,-2.8968,-2.8968,-2.8573,-2.8322,-2.8327,-2.7683,-2.7253,-2.7255,-2.6454,-2.565,-2.4975,-2.3944,-2.3061,-2.2394,-2.1925,-2.1695,-2.1695,-2.1695,-2.1695,-2.1695,-2.1695,-2.1695,-2.1695,-2.1695,-2.1944,-2.2378,-2.2397,-2.3088,-2.4232,-2.4938,-2.5628,-2.6298,-2.6779,-2.7001,-2.6928,-2.595,-2.6065,-2.6691,-2.6691,-2.6691,-2.6691,-2.6691,-2.6691,-2.6843,-2.757,-2.8349,-2.9281,-3.0734,-3.0649,-3.0311,-3.0987,-3.1752,-3.2327,-3.2327,-3.3457,-3.4523,-3.4523,-3.5115,-3.5859,-3.666,-3.7381,-3.7872,-3.7872,-3.7872,-3.7618,-3.688,-3.6096,-3.5893,-3.6677,-3.6801,-3.7285,-3.8446,-3.8812,-3.9223,-3.9813,-3.9148,-3.8707,-3.8707,-3.8707,-3.8707,-3.8707,-3.8707,-3.8707,-3.8707,-3.8707,-3.8707,-3.8707,-3.8707,-3.8707,-3.867,-3.7896,-3.7088,-3.6248,-3.5371,-3.4546,-3.3807,-3.3807,-3.3807,-3.3807,-3.3807,-3.3807,-3.3807,-3.3807,-3.3807,-3.3807,0.0,0.0,0.0,-2.5695,-2.6025,-2.619,-2.619,-2.6429,-2.6888,-2.7688,-2.8503,0.0,0.0,0.0,0.0,0.0,-2.8179,-2.7833,-2.7332,-2.7034,-2.6505,-2.5703,-2.5312,-2.4885,-2.4405,-2.4251,-2.4201,-2.4298,-2.4298,-2.4298,-2.4298,-2.4298,-2.4511,-2.4875,-2.4875,-2.5197,-2.5735,-2.6105,-2.6759,-2.7568,-2.7322,-2.7858,-2.8755,-2.807,-2.8056,-2.8251,0.0,-2.6911,-2.6691,-2.6691,-2.6487,-2.6297,-2.6607,-2.6229,-2.5813,-2.642,-2.7358,-2.8297,-2.8804,-2.9497,-3.0176,-3.0412,-3.1376,-3.2293,-3.2293,-3.3051,-3.3914,-3.4387,-3.4692,-3.5267,-3.6558,-3.7398,-3.7905,-3.7905,-3.7905,-3.7652,-3.6914,-3.6575,-3.6485,-3.6778,-3.7675,-3.8557,-3.9311,-3.9362,-3.9547,-4.0057,-3.9723,-3.9496,-3.9496,-3.9001,-3.8707,-3.8707,-3.8707,-3.8707,-3.8707,-3.8707,-3.8707,-3.8707,-3.8707,-3.8414,-3.7878,-3.7055,-3.6248,-3.5389,-3.4559,-3.4045,-3.3807,-3.3807,-3.3807,-3.3807,-3.3807,-3.3807,-3.3807,-3.3807,-3.3807,-3.3807,0.0,0.0,0.0,0.0,0.0,0.0,0.0,0.0,0.0,0.0,0.0,0.0,0.0,0.0,0.0,0.0,0.0,-2.8206,-2.7733,-2.7454,-2.705,-2.6488,-2.6175,-2.5994,-2.5996,-2.5806,-2.5897,-2.625,-2.6032,-2.6032,-2.6227,-2.6016,-2.625,-2.6812,-2.6812,-2.7153,-2.7709,-2.8043,-2.8575,-2.9179,-2.8962,-2.937,-3.0019,-2.9195,-2.9087,0.0,-2.8518,-2.7926,-2.7453,-2.6894,-2.6487,-2.6279,-2.6401,-2.5998,-2.5645,-2.6419,-2.719,-2.7858,-2.8145,-2.8958,-2.977,-3.0021,-3.0818,-3.1562,-3.1853,-3.2476,-3.3136,-3.363,-3.4138,-3.4793,-3.5814,-3.7026,-3.7905,-3.7905,-3.8125,-3.8125,-3.7635,-3.7371,-3.7303,-3.7557,-3.8413,-3.9244,-3.9838,-3.9965,-4.0182,-4.0598,-3.9981,-3.9685,-3.9882,-3.9148,-3.8707,-3.8707,-3.8707,-3.8707,-3.8707,-3.8707,-3.8707,-3.8707,-3.8707,-3.8267,-3.7474,-3.6684,-3.5826,-3.4968,-3.4156,-3.3807,-3.3807,-3.3807,-3.3807,-3.3807,-3.3807,-3.3807,-3.3807,-3.3807,-3.3807,-3.3807,0.0,0.0,0.0,0.0,0.0,0.0,0.0,0.0,0.0,0.0,0.0,0.0,0.0,0.0,0.0,0.0,0.0,0.0,-2.8407,-2.7747,-2.7365,-2.7402,-2.6573,-2.6464,-2.7222,-2.6724,-2.6788,-2.7499,-2.6922,-2.6944,-2.7478,-2.6922,-2.6965,-2.7541,-2.7541,-2.7843,-2.8351,-2.8351,-2.8667,-2.923,-2.9888,-3.0192,-3.0226,-3.0176,-3.0176,-3.0074,-2.9331,-2.9061,-2.884,-2.7334,-2.6776,-2.6657,-2.612,-2.5979,-2.6253,-2.7379,-2.7722,-2.7908,-2.8671,-2.8908,-2.9111,-2.982,-3.0038,-3.0294,-3.097,-3.1718,-3.2276,-3.2344,-3.3478,-3.4455,-3.4539,-3.6383,-3.7905,-3.7905,-3.8514,-3.8988,-3.8988,-3.8396,-3.821,-3.887,-3.8971,-3.9242,-3.9926,-4.045,-4.0898,-4.1242,-3.986,-3.9297,-3.9889,-3.9116,-3.8658,-3.8707,-3.8707,-3.8707,-3.8707,-3.8707,-3.8707,-3.8707,-3.8707,-3.8267,-3.7419,-3.6652,-3.5807,-3.4912,-3.4137,-3.3807,-3.3807,-3.3807,-3.3807,-3.3807,-3.3807,-3.3807,-3.3807,-3.3807,-3.3807,-3.3807,0.0,0.0,0.0,0.0,0.0,0.0,0.0,0.0,0.0,0.0,0.0,0.0,0.0,0.0,0.0,0.0,0.0,0.0,-2.842,-2.8219,-2.8283,-2.8623,-2.8085,-2.8202,-2.9078,-2.8695,-2.8603,-2.8884,-2.8729,-2.8752,-2.8884,-2.8729,-2.8994,-2.9566,-2.9566,-2.9893,-3.0443,-3.0443,-3.0822,-3.143,-3.1055,-3.1241,-3.1684,-3.1123,-3.092,-3.0818,-3.0074,-2.982,-2.9685,-2.8739,-2.801,-2.7262,-2.5852,-2.5926,-2.6504,-2.6477,-2.6703,-2.7029,-2.7233,-2.7689,-2.8145,-2.8331,-2.9244,-3.014,-3.0345,-3.0954,-3.1782,-3.2899,-3.3423,-3.4032,-3.5131,-3.6738,-3.7905,-3.7905,-3.8514,-3.8988,-3.8988,-3.8836,-3.8582,-3.8227,-3.8667,-3.8853,-3.8497,-3.8574,-3.8866,-3.9343,-3.9365,-3.9599,-4.0112,-3.8843,-3.8283,-3.8692,-3.8707,-3.8707,-3.8707,-3.8707,-3.8707,-3.8707,-3.8707,-3.7955,-3.6597,-3.6376,-3.5495,-3.41,-3.3899,-3.3807,-3.3807,-3.3807,-3.3807,-3.3807,-3.3807,-3.3807,-3.3807,-3.3807,-3.3807,-3.3807,0.0,0.0,0.0,0.0,0.0,0.0,0.0,0.0,0.0,0.0,0.0,0.0,0.0,0.0,0.0,0.0,0.0,0.0,0.0,-2.8496,-2.8671,-2.9279,-2.8728,-2.8955,-3.0171,-2.9784,-2.9788,-3.0187,-2.9913,-2.9935,-3.0187,-2.9913,-2.9938,-3.0229,-3.0566,-3.0694,-3.0734,-3.1055,-3.1427,0.0,0.0,-3.1444,-3.1769,-3.136,-3.119,-3.114,-3.0734,-3.0581,-3.048,-2.9736,-2.8812,-2.7851,-2.7088,-2.6868,-2.6852,-2.6798,-2.6756,-2.6691,-2.6691,-2.6996,-2.7486,-2.8163,-2.8975,-2.9786,-3.0446,-3.0903,-3.1529,-3.2679,-3.3169,-3.3761,-3.4912,-3.6654,-3.7905,-3.7905,-3.8785,-3.9486,-3.9486,-3.9486,-3.9191,-3.8464,-3.8751,-3.87,-3.7973,-3.7905,-3.8014,-3.834,-3.8529,-3.8858,-3.9384,-3.8438,-3.8048,-3.835,-3.8596,-3.8707,-3.8707,-3.8707,-3.8707,-3.8707,-3.8707,-3.7863,-3.6303,-3.6303,-3.5385,-3.3807,0.0,-3.3807,-3.3807,-3.3807,-3.3807,-3.3807,-3.3807,-3.3807,-3.3807,-3.3807,-3.3807,-3.3807,0.0,0.0,0.0,0.0,0.0,0.0,0.0,0.0,0.0,0.0,0.0,0.0,0.0,0.0,0.0,0.0,0.0,0.0,0.0,0.0,-2.8846,-2.9649,-2.9059,-2.9392,-3.0836,-3.0467,-3.0581,-3.1291,-3.0543,-3.049,-3.1055,-3.0409,-3.0062,-2.9989,-3.0717,-3.07,-3.014,-3.0886,-3.123,-3.1291,-3.1291,-3.1329,-3.1368,0.0,0.0,-3.1424,-3.1382,-3.1275,-3.1106,-3.0463,-2.9453,-2.8519,-2.8881,-2.8179,-2.7269,-2.7666,-2.7266,-2.6691,-2.6691,-2.6691,-2.7029,-2.8485,-2.8925,-2.9365,-3.0734,-3.1123,-3.1427,-3.2276,-3.2949,-3.366,-3.4489,-3.6349,-3.7787,-3.7889,-3.9056,-3.9994,-4.0096,-4.0096,-3.9791,-3.8937,-3.8853,-3.8514,-3.7686,-3.7577,-3.7577,-3.7577,-3.7381,-3.7547,-3.8243,-3.7971,-3.7877,-3.7997,-3.8465,-3.8707,-3.8707,-3.8707,-3.8707,-3.8707,-3.8597,-3.7753,-3.6303,-3.6174,-3.5275,-3.3807,-3.3807,-3.3807,-3.3807,-3.3807,-3.3807,-3.3807,-3.3807,-3.3807,-3.3807,-3.3807,-3.3807,-3.3807,0.0,0.0,0.0,0.0,0.0,0.0,0.0,0.0,0.0,0.0,-2.9315,-3.0063,0.0,0.0,0.0,0.0,0.0,0.0,0.0,0.0,0.0,-3.0052,-3.0292,-3.0825,-3.1751,-3.1317,-3.1289,-3.1696,-3.0314,-2.9858,-3.0294,-2.9576,-2.9205,-2.923,-2.9956,-3.0207,-3.014,-3.0886,-3.1391,-3.1696,-3.1696,-3.1915,-3.223,0.0,0.0,0.0,-3.225,-3.1718,-3.1173,-3.1055,-3.0456,-2.9673,-2.9159,-2.8379,-2.7684,-2.7772,-2.7266,-2.6691,-2.6691,-2.6691,-2.6911,-2.779,-2.8501,-2.923,-3.0091,-3.0768,-3.1579,-3.2933,-3.3322,-3.3812,-3.5143,-3.6282,-3.7178,-3.7804,-3.8633,-3.9394,-4.0011,-4.0096,-3.9605,-3.8261,-3.8091,-3.755,-3.614,-3.6005,-3.6005,-3.6005,-3.5943,-3.6429,-3.7596,-3.7443,-3.7703,-3.853,-3.8643,-3.8707,-3.8707,-3.8707,-3.8707,-3.8689,-3.8028,-3.7217,-3.6266,-3.5555,-3.4692,-3.3807,-3.3807,0.0,-3.3807,-3.3807,-3.3807,-3.3807,-3.3807,-3.3807,-3.3807,-3.3807,-3.3807,-3.3807,0.0,0.0,0.0,0.0,0.0,0.0,0.0,-2.8909,-2.9297,-2.9739,-3.0648,-3.1187,-3.1057,-3.1243,-3.1403,0.0,0.0,0.0,0.0,0.0,0.0,0.0,-3.1216,-3.1603,-3.1996,-3.1947,-3.1996,-3.2161,0.0,-3.08,-3.0976,-3.041,-2.9941,-2.9619,-3.0557,-3.0772,-3.0465,-3.1458,-3.1986,-3.2161,-3.2161,-3.2316,0.0,0.0,0.0,0.0,-3.3375,-3.2636,-3.1836,-3.2222,-3.1596,-3.0615,-3.0243,-2.9617,-2.8922,-2.8535,-2.7875,-2.7199,-2.6793,-2.6691,-2.6979,-2.8129,-2.8704,-2.9297,-3.0412,-3.1241,-3.207,-3.3186,-3.3711,-3.4303,-3.5397,-3.6265,-3.7049,-3.7787,-3.8514,-3.9242,-3.9994,-4.0096,-3.9554,-3.8091,-3.7905,-3.7273,-3.5752,-3.56,-3.56,-3.56,-3.56,-3.5869,-3.6498,-3.6956,-3.7524,-3.8267,-3.8546,-3.8707,-3.8707,-3.8029,-3.7828,-3.8065,-3.7004,-3.62,-3.561,-3.5188,-3.4564,-3.3807,-3.3807,-3.3807,-3.3807,-3.3807,-3.3807,-3.3807,-3.3807,-3.3807,-3.3807,-3.3807,-3.3807,-3.3807,0.0,0.0,0.0,0.0,0.0,0.0,0.0,-2.9273,-2.9951,-3.101,-3.1793,-3.226,-3.2231,-3.2158,-3.2286,0.0,0.0,0.0,0.0,0.0,0.0,0.0,0.0,-3.2144,-3.2144,0.0,0.0,-3.2915,-3.2035,0.0,0.0,0.0,0.0,0.0,-3.1074,-3.1236,-3.0786,-3.1999,-3.255,0.0,0.0,-3.2946,0.0,0.0,0.0,0.0,0.0,-3.3788,-3.2798,-3.3373,-3.2612,-3.1427,-3.1427,-3.0818,-2.9989,-2.9397,-2.8552,-2.7672,-2.7097,-2.6945,-2.7266,-2.8654,-2.9128,-2.9585,-3.0886,-3.1769,-3.2513,-3.3254,-3.3981,-3.4726,-3.5447,-3.6129,-3.684,-3.7753,-3.8396,-3.9073,-3.9977,-4.0096,-3.9554,-3.8091,-3.7905,-3.7273,-3.5752,-3.56,-3.56,-3.56,-3.56,-3.5667,-3.5761,-3.6563,-3.7304,-3.7876,-3.83,-3.8504,-3.845,-3.7362,-3.6962,-3.7235,-3.5947,-3.5221,-3.5004,-3.4821,-3.4399,-3.3807,-3.3807,-3.3807,0.0,-3.3807,-3.3807,-3.3807,-3.3807,-3.3807,-3.3807,-3.3807,-3.3807,-3.3807,0.0,0.0,0.0,0.0,0.0,0.0,0.0,-2.9112,-2.9753,-3.1424,-3.2129,-3.2768,-3.354,-3.4084,-3.4105,0.0,0.0,0.0,0.0,0.0,0.0,0.0,0.0,0.0,0.0,0.0,0.0,-3.422,-3.2061,0.0,0.0,0.0,0.0,0.0,0.0,-3.0768,-3.0786,-3.1999,0.0,0.0,0.0,0.0,0.0,0.0,0.0,0.0,0.0,-3.5035,-3.4058,-3.409,-3.3276,-3.2192,-3.2192,-3.1224,-3.0091,-3.0023,-2.8939,-2.779,-2.7722,-2.7705,-2.7908,-2.879,-2.9499,-3.0209,-3.1021,-3.1769,-3.2513,-3.3254,-3.3981,-3.4726,-3.5447,-3.565,-3.6174,-3.7669,-3.7973,-3.8481,-3.991,-4.0096,-3.9554,-3.8091,-3.7905,-3.7273,-3.5752,-3.56,-3.56,-3.56,-3.56,-3.581,-3.6308,-3.6416,-3.6904,-3.7859,-3.7946,-3.7855,-3.7621,-3.7071,-3.6656,-3.6395,-3.5115,-3.4679,-3.4986,-3.4247,-3.3862,-3.3807,-3.3807,-3.3807,0.0,-3.3807,-3.3807,-3.3807,-3.3807,-3.3807,-3.3807,-3.3807,-3.3807,-3.3807,0.0,0.0,0.0,0.0,0.0,0.0,-2.9542,-2.9787,-3.0487,-3.2199,-3.2615,-3.3276,-3.4664,-3.5047,-3.4909,-3.4243,0.0,0.0,0.0,0.0,0.0,0.0,0.0,0.0,0.0,0.0,-3.4275,-3.4772,-3.4075,0.0,0.0,0.0,0.0,0.0,0.0,-3.1774,-3.1842,-3.2852,0.0,0.0,0.0,0.0,0.0,0.0,0.0,0.0,0.0,0.0,-3.4931,-3.5359,-3.4106,-3.2378,-3.2814,-3.1952,-3.0666,-3.0243,-2.9685,-2.9075,-2.8636,-2.8518,-2.8704,-2.9465,-2.9888,-3.0275,-3.1021,-3.2104,-3.3051,-3.3339,-3.4353,-3.5245,-3.5549,-3.56,-3.609,-3.7652,-3.7905,-3.8413,-3.9893,-4.0096,-3.9554,-3.8091,-3.7905,-3.7273,-3.5752,-3.56,-3.56,-3.56,-3.56,-3.5694,-3.5898,-3.6224,-3.6496,-3.6684,-3.7001,-3.6911,-3.6357,-3.5416,-3.5004,-3.5142,-3.3876,-3.362,-3.4284,-3.3954,-3.3807,-3.3807,-3.3807,-3.3807,0.0,-3.3807,-3.3807,-3.3807,-3.3807,-3.3807,-3.3807,-3.3807,-3.3807,-3.3807,0.0,0.0,0.0,0.0,0.0,-2.9019,-2.9467,-2.9759,-3.0625,-3.255,-3.2865,-3.3564,-3.5308,-3.5712,-3.5699,-3.5314,-3.5003,0.0,0.0,0.0,0.0,0.0,0.0,0.0,0.0,0.0,-3.55,-3.5738,-3.5781,-3.5932,0.0,0.0,-3.3706,-3.3459,0.0,0.0,0.0,0.0,0.0,0.0,0.0,0.0,0.0,0.0,0.0,0.0,0.0,0.0,0.0,0.0,0.0,-3.2943,-3.3472,-3.2516,-3.1089,-3.0581,-3.0277,-2.9989,-2.9465,-2.9331,-2.9448,-2.9973,-3.026,-3.0615,-3.136,-3.2493,-3.3457,-3.3677,-3.4721,-3.56,-3.56,-3.56,-3.6022,-3.7364,-3.777,-3.8345,-3.9605,-3.996,-3.9639,-3.8379,-3.8227,-3.7635,-3.6113,-3.5735,-3.56,-3.56,-3.56,-3.56,-3.56,-3.5741,-3.5789,-3.5707,-3.5865,-3.5664,-3.5042,-3.4037,-3.3697,-3.4029,-3.2996,-3.2965,-3.3807,-3.3807,-3.3807,-3.3807,-3.3807,-3.3807,0.0,-3.3807,-3.3807,-3.3807,-3.3807,-3.3807,-3.3807,-3.3807,-3.3807,-3.3807,0.0,0.0,0.0,0.0,0.0,0.0,-2.8267,-2.8643,-2.9735,-3.2268,-3.2772,-3.3564,-3.5308,-3.6212,-3.6692,-3.6692,-3.5706,0.0,0.0,0.0,0.0,0.0,0.0,0.0,0.0,0.0,-3.667,-3.7474,-3.667,-3.6688,-3.7441,-3.6183,-3.5146,-3.4393,0.0,0.0,0.0,0.0,0.0,0.0,0.0,0.0,0.0,0.0,0.0,0.0,0.0,0.0,0.0,0.0,0.0,0.0,0.0,-3.2799,-3.119,-3.119,-3.0666,-3.0108,-3.0091,-3.0091,-3.0091,-3.0108,-3.0649,-3.1376,-3.2124,-3.2865,-3.3609,-3.4336,-3.5081,-3.56,-3.56,-3.56,-3.5876,-3.6694,-3.7415,-3.8159,-3.8903,-3.9656,-3.9825,-3.9073,-3.8988,-3.8396,-3.6931,-3.6079,-3.56,-3.56,-3.56,-3.56,-3.56,-3.4912,-3.4751,-3.5292,-3.4603,-3.4067,-3.3719,-3.3316,-3.3142,-3.3217,-3.2729,-3.2965,-3.3807,-3.3807,-3.3807,-3.3807,-3.3807,-3.3807,0.0,-3.3807,-3.3807,-3.3807,-3.3807,-3.3807,-3.3807,-3.3807,-3.3807,-3.3807,0.0,0.0,0.0,0.0,0.0,0.0,0.0,-2.9746,-3.0793,-3.2386,-3.3135,-3.4232,-3.6101,-3.6538,-3.718,-3.8373,-3.7629,0.0,0.0,0.0,0.0,0.0,0.0,0.0,0.0,0.0,-3.7235,-3.7492,-3.779,-3.8065,-3.8303,-3.7019,-3.6282,-3.6013,-3.5471,-3.4767,0.0,0.0,0.0,0.0,0.0,0.0,0.0,0.0,0.0,0.0,0.0,0.0,0.0,0.0,0.0,0.0,0.0,0.0,0.0,-3.1291,-3.1021,-3.0852,-3.0852,-3.0852,-3.0852,-3.0852,-3.1021,-3.1376,-3.2141,-3.2865,-3.3609,-3.4336,-3.5098,-3.56,-3.56,-3.56,-3.6022,-3.7347,-3.7753,-3.8328,-3.9588,-3.996,-3.9656,-3.8396,-3.733,-3.6502,-3.6045,-3.5735,-3.56,-3.56,-3.56,-3.56,-3.56,-3.4421,-3.398,-3.4451,-3.3765,-3.306,-3.2406,-3.228,-3.223,-3.2247,-3.2434,-3.2809,-3.3408,-3.3662,-3.3807,-3.3807,-3.3807,-3.3807,0.0,-3.3807,-3.3807,-3.3807,-3.3807,-3.3807,-3.3807,-3.3807,-3.3807,-3.3807,0.0,0.0,0.0,0.0,0.0,0.0,0.0,-3.0196,-3.1177,-3.2305,-3.3233,-3.4454,-3.6203,-3.6873,-3.7701,-3.9005,-3.9,0.0,0.0,0.0,0.0,0.0,0.0,0.0,0.0,-3.7257,-3.7936,-3.7936,-3.845,-3.8707,-3.8673,-3.789,-3.7342,-3.7048,-3.6539,-3.5869,0.0,0.0,0.0,0.0,0.0,0.0,0.0,0.0,0.0,0.0,0.0,0.0,0.0,0.0,0.0,0.0,0.0,0.0,0.0,0.0,-3.1633,-3.1565,-3.1275,-3.119,-3.119,-3.119,-3.1413,-3.1819,-3.2544,-3.3288,-3.4032,-3.4759,-3.5278,-3.56,-3.56,-3.5859,-3.6366,-3.733,-3.7956,-3.8633,-3.9571,-3.9926,-3.9673,-3.8464,-3.6992,-3.6062,-3.6062,-3.5769,-3.56,-3.56,-3.56,-3.5481,-3.5194,-3.4066,-3.3417,-3.3416,-3.2717,-3.2082,-3.1565,-3.1565,-3.1641,-3.1807,-3.2282,-3.2745,-3.3214,-3.3625,-3.3807,-3.3807,-3.3807,0.0,0.0,-3.3807,-3.3807,-3.3807,-3.3807,-3.3807,-3.3807,-3.3807,-3.3807,-3.3807,0.0,0.0,0.0,0.0,0.0,0.0,0.0,-3.0128,-3.1063,-3.2091,-3.3206,-3.4447,-3.5898,-3.7213,-3.825,-3.887,0.0,0.0,0.0,0.0,0.0,0.0,0.0,0.0,0.0,-3.8285,-3.8707,-3.8707,-3.8707,-3.8707,-3.8707,-3.8707,-3.8303,-3.7584,-3.7584,-3.718,0.0,0.0,0.0,0.0,0.0,0.0,0.0,0.0,0.0,0.0,0.0,0.0,0.0,0.0,0.0,0.0,0.0,0.0,0.0,0.0,0.0,0.0,0.0,-3.1275,-3.1275,-3.1326,-3.187,-3.2581,-3.3322,-3.4015,0.0,-3.5447,-3.56,-3.56,-3.56,-3.6214,-3.6745,-3.6795,-3.7963,-3.8853,-3.8903,-3.9486,-3.9622,-3.8903,-3.7567,-3.6711,-3.6711,-3.6045,-3.56,-3.56,-3.5549,-3.5211,-3.4523,-3.3744,-3.3,-3.2327,-3.1562,-3.119,-3.119,-3.119,-3.1389,-3.1752,-3.223,-3.2697,-3.3151,-3.3564,-3.3762,0.0,-3.3807,0.0,0.0,-3.3807,-3.3807,-3.3807,-3.3807,-3.3807,-3.3807,-3.3807,-3.3807,-3.3807,0.0,0.0,0.0,0.0,0.0,0.0,0.0,0.0,0.0,0.0,-3.384,-3.549,-3.7316,-3.7801,-3.8569,0.0,0.0,0.0,0.0,0.0,0.0,0.0,0.0,0.0,0.0,-3.8285,-3.8707,-3.8707,-3.8707,-3.8707,-3.8707,-3.8707,-3.8597,-3.8414,-3.8414,-3.8303,0.0,0.0,0.0,0.0,0.0,0.0,0.0,0.0,0.0,0.0,-3.6813,-3.645,0.0,0.0,0.0,0.0,0.0,0.0,0.0,0.0,-3.1464,-3.1529,-3.1938,0.0,-3.2192,-3.2747,-3.3017,-3.3322,0.0,-3.437,-3.4709,-3.5447,-3.56,-3.56,-3.56,-3.5752,-3.6079,-3.6711,-3.71,-3.7499,-3.8075,-3.7804,-3.7506,-3.7354,-3.6468,-3.5893,-3.5893,-3.5701,-3.56,-3.56,-3.5081,-3.4675,-3.4506,-3.3275,-3.2479,-3.231,-3.1562,-3.119,-3.119,-3.119,-3.1249,-3.1351,-3.177,-3.2213,-3.2681,-3.3136,-3.3508,-3.3807,-3.3807,0.0,-3.3807,-3.3807,-3.3807,-3.3807,-3.3807,-3.3807,-3.3807,-3.3807,-3.3807,-3.3807,0.0,0.0,0.0,0.0,0.0,0.0,0.0,0.0,0.0,0.0,0.0,0.0,0.0,0.0,0.0,0.0,0.0,0.0,0.0,0.0,0.0,0.0,0.0,-3.7676,-3.8028,-3.8487,-3.8707,-3.8707,-3.8707,-3.8707,-3.8707,-3.8707,-3.8707,-3.8707,-3.8707,-3.8707,0.0,0.0,0.0,0.0,0.0,0.0,0.0,0.0,0.0,0.0,-3.6009,-3.5477,0.0,-3.5147,-3.4835,-3.4393,0.0,0.0,0.0,0.0,-3.2117,-3.229,-3.2696,-3.2564,-3.2479,-3.322,-3.366,-3.4015,-3.4404,-3.4759,-3.5131,-3.5515,-3.56,-3.56,-3.56,-3.591,-3.6282,-3.6728,-3.7083,-3.7432,-3.7838,-3.7263,-3.6795,-3.6795,-3.6096,-3.56,-3.56,-3.5278,-3.5115,-3.5115,-3.4404,-3.3846,-3.3512,-3.2733,-3.2141,-3.1819,-3.1413,-3.119,-3.119,-3.119,-3.119,-3.121,-3.1621,-3.2057,-3.2517,-3.2983,-3.3422,-3.3807,0.0,0.0,-3.3807,-3.3807,-3.3807,-3.3807,-3.3807,-3.3807,-3.3807,-3.3807,-3.3807,-3.3807,0.0,0.0,0.0,0.0,0.0,0.0,0.0,0.0,0.0,0.0,0.0,0.0,0.0,0.0,0.0,0.0,0.0,0.0,0.0,0.0,0.0,0.0,0.0,-3.7991,-3.8689,-3.8707,-3.8707,-3.8707,-3.8707,-3.8707,-3.8707,-3.8707,-3.8707,-3.8707,-3.8707,-3.8707,0.0,0.0,0.0,0.0,0.0,0.0,0.0,0.0,0.0,0.0,0.0,0.0,0.0,-3.3807,-3.388,-3.3996,-3.409,0.0,0.0,0.0,0.0,0.0,-3.3393,-3.3017,-3.2818,-3.3558,-3.4201,-3.4675,-3.4675,-3.5165,-3.56,-3.56,-3.56,-3.56,-3.56,-3.6163,-3.6626,-3.6626,-3.7144,-3.7567,-3.7567,-3.7009,-3.6592,-3.6474,-3.5859,-3.538,-3.5278,-3.4709,-3.432,-3.432,-3.3643,-3.2949,-3.2327,-3.2192,-3.1853,-3.1207,-3.119,-3.119,-3.119,-3.119,-3.119,-3.121,-3.1564,-3.195,-3.2417,-3.2872,-3.3317,-3.3707,0.0,0.0,-3.3807,-3.3807,-3.3807,-3.3807,-3.3807,-3.3807,-3.3807,-3.3807,-3.3807,-3.3807,0.0,0.0,0.0,0.0,0.0,0.0,0.0,0.0,0.0,0.0,0.0,0.0,0.0,0.0,0.0,0.0,0.0,0.0,0.0,0.0,0.0,0.0,-3.9557,-3.8579,-3.8707,-3.8707,-3.8707,-3.8707,-3.8707,-3.8707,-3.8707,-3.8707,-3.8707,-3.8707,-3.8707,-3.8707,-3.8707,0.0,0.0,0.0,-3.8707,0.0,0.0,0.0,0.0,0.0,0.0,0.0,0.0,-3.3807,-3.4252,-3.4641,-3.3679,0.0,0.0,0.0,0.0,0.0,-3.3345,-3.3778,-3.4336,-3.5076,-3.5346,-3.543,-3.543,-3.5515,-3.56,-3.56,-3.56,-3.56,-3.56,-3.5701,-3.5769,-3.5769,-3.587,-3.5955,-3.5955,-3.5853,-3.5554,-3.4928,-3.4742,-3.4421,-3.3812,-3.3643,-3.3575,-3.3575,-3.2882,-3.2429,-3.231,-3.1718,-3.1309,-3.119,-3.119,-3.119,-3.119,-3.119,-3.119,-3.119,-3.1252,-3.1507,-3.1915,-3.2383,-3.2874,-3.3302,0.0,-3.3807,-3.3807,-3.3807,-3.3807,-3.3807,-3.3807,-3.3807,-3.3807,-3.3807,-3.3807,-3.3807,0.0,0.0,0.0,0.0,0.0,0.0,0.0,0.0,0.0,0.0,0.0,0.0,0.0,0.0,0.0,0.0,0.0,0.0,0.0,0.0,0.0,-4.1354,-4.0065,-3.9148,-3.8707,-3.8707,-3.8487,-3.8046,-3.8487,-3.8487,-3.8046,-3.8505,-3.8707,-3.8707,-3.8707,-3.8707,-3.8707,-3.8707,0.0,0.0,0.0,0.0,0.0,0.0,0.0,0.0,0.0,0.0,0.0,0.0,-3.4399,-3.4243,-3.3706,0.0,0.0,0.0,0.0,0.0,-3.3266,-3.3931,-3.4675,-3.5414,-3.56,-3.5515,-3.5144,-3.5052,-3.5052,-3.5052,-3.5052,-3.5052,-3.5052,-3.5362,-3.56,-3.56,-3.56,-3.56,-3.56,-3.5267,-3.4878,-3.4539,-3.415,-3.3778,-3.344,-3.3034,-3.2797,-3.2797,-3.2124,-3.1718,-3.1718,-3.1376,-3.119,-3.119,-3.119,-3.119,-3.119,-3.119,-3.119,-3.119,-3.119,-3.1411,-3.1807,-3.2022,-3.2516,-3.3214,0.0,-3.3592,-3.3807,-3.3807,-3.3807,-3.3807,-3.3807,-3.3807,-3.3807,-3.3807,-3.3807,-3.3807,0.0,0.0,0.0,0.0,0.0,0.0,0.0,0.0,0.0,0.0,0.0,0.0,0.0,0.0,0.0,0.0,0.0,0.0,0.0,0.0,-4.1927,-4.1528,-4.0738,-3.9789,-3.8726,-3.8524,-3.812,-3.7492,-3.812,-3.8285,-3.808,-3.8689,-3.9093,-3.9258,-3.9258,-3.9258,-3.9258,-3.9258,-3.9625,0.0,0.0,0.0,0.0,0.0,0.0,0.0,0.0,0.0,0.0,0.0,0.0,0.0,0.0,0.0,0.0,-3.2587,-3.2489,-3.2553,-3.3025,-3.3677,-3.4387,-3.494,-3.5211,-3.5211,-3.4726,-3.4484,-3.4354,-3.4374,-3.4358,-3.4358,-3.4358,-3.48,-3.5184,-3.5339,-3.523,-3.5088,-3.4927,-3.4538,-3.414,-3.3809,-3.341,-3.3068,-3.2899,-3.2357,-3.2039,-3.2039,-3.1532,-3.119,-3.119,-3.119,-3.119,-3.119,-3.119,-3.119,-3.119,-3.119,-3.119,-3.119,-3.119,-3.137,-3.166,-3.1752,-3.2196,-3.2872,-3.2999,-3.3273,-3.3666,-3.3666,-3.3721,-3.3775,-3.3694,-3.3666,-3.368,-3.378,-3.3807,-3.3807,0.0,0.0,0.0,0.0,0.0,0.0,0.0,0.0,0.0,0.0,0.0,0.0,0.0,0.0,0.0,0.0,0.0,0.0,0.0,0.0,-4.3357,-4.2708,-4.1897,-4.0607,-3.8744,-3.7955,-3.7566,-3.7492,-3.7566,-3.8319,-3.9717,-3.979,-4.0212,-4.093,-4.093,-4.093,-4.093,-4.093,-4.0948,-4.093,0.0,0.0,0.0,0.0,0.0,0.0,0.0,0.0,0.0,0.0,0.0,0.0,0.0,0.0,-3.4031,-3.2845,-3.2704,-3.2886,-3.2465,-3.2916,-3.3491,-3.3558,-3.4066,-3.4571,-3.461,-3.4065,-3.3596,-3.3657,-3.3659,-3.3659,-3.3659,-3.371,-3.3937,-3.4576,-3.4161,-3.3535,-3.2901,-3.3255,-3.3096,-3.1786,-3.2068,-3.2107,-3.141,-3.1309,-3.1275,-3.1275,-3.1224,-3.119,-3.119,-3.119,-3.119,-3.119,-3.119,-3.119,-3.119,-3.119,-3.119,-3.119,-3.119,-3.121,-3.1269,-3.164,-3.1843,-3.1915,-3.2349,-3.2809,-3.3243,-3.3243,-3.3465,-3.3762,-3.3375,-3.3243,-3.3288,-3.3666,-3.3807,-3.3807,0.0,0.0,0.0,0.0,0.0,0.0,0.0,0.0,0.0,0.0,0.0,0.0,0.0,0.0,0.0,0.0,0.0,0.0,0.0,0.0,-4.1977,-4.2056,-4.1241,-4.0366,-3.9475,-3.8652,-3.7991,-3.7492,-3.7492,-3.8319,-3.99,-3.99,-4.0322,-4.1095,-4.1095,-4.0836,-4.0396,-4.0875,-4.1095,-4.1058,-4.0781,0.0,0.0,0.0,0.0,0.0,0.0,0.0,0.0,0.0,-3.4674,-3.4252,-3.4252,-3.3978,-3.3502,-3.2721,-3.2389,-3.225,-3.2298,-3.2513,-3.2835,-3.3288,-3.3254,-3.3172,-3.3274,-3.2765,-3.2273,-3.2331,-3.2358,-3.2615,-3.3467,-3.2913,-3.2576,-3.325,-3.278,-3.2264,-3.2015,-3.1764,-3.1443,-3.0907,-3.0968,-3.0958,-3.0654,-3.0975,-3.119,-3.119,-3.119,-3.119,-3.119,-3.119,-3.119,-3.119,-3.119,-3.119,-3.119,-3.119,-3.119,-3.119,-3.119,-3.119,-3.121,-3.1351,-3.1565,-3.1825,-3.1986,-3.25,-3.3199,-3.3199,-3.3288,-3.3375,-3.2952,-3.2952,-3.3214,-3.3361,-3.3578,-3.3807,0.0,0.0,0.0,0.0,0.0,0.0,0.0,0.0,0.0,0.0,0.0,0.0,0.0,0.0,0.0,0.0,0.0,0.0,-4.1068,-4.1018,-4.1209,-4.1725,-4.0849,-4.031,-4.0283,-3.9239,-3.8303,-3.7492,-3.7492,-3.8447,-4.0286,-4.0286,-4.0708,-4.148,-4.148,-4.1038,-4.0304,-4.0873,-4.1095,-4.1077,-4.0836,-4.0726,0.0,0.0,0.0,0.0,0.0,0.0,0.0,0.0,-3.4472,-3.3844,-3.41,-3.3723,-3.3124,-3.2632,-3.2354,-3.2199,-3.2281,-3.2293,-3.2429,-3.2933,-3.2513,-3.193,-3.1854,-3.1494,-3.1117,-3.0984,-3.0952,-3.1314,-3.2424,-3.1732,-3.1201,-3.1858,-3.1403,-3.0901,-3.0681,-3.037,-3.0109,-2.9894,-2.9964,-3.0102,-3.0272,-3.0679,-3.0995,-3.119,-3.119,-3.119,-3.119,-3.119,-3.119,-3.119,-3.119,-3.119,-3.119,-3.119,-3.119,-3.119,-3.119,-3.119,-3.119,-3.119,-3.1351,-3.1621,-3.1621,-3.2057,-3.2777,-3.2921,-3.2983,-3.2952,-3.2632,-3.2697,-3.2983,-3.2983,-3.3332,-3.3775,0.0,0.0,0.0,0.0,0.0,0.0,0.0,0.0,0.0,0.0,0.0,0.0,0.0,0.0,0.0,0.0,0.0,0.0,-4.1712,-4.1465,-4.1521,-4.2045,-4.0993,-4.0618,-4.1093,-3.9551,-3.8322,-3.7529,-3.7529,-3.8744,-4.1095,-4.1095,-4.1534,-4.2286,-4.2286,-4.1846,-4.1095,-4.1095,-4.1095,-4.1022,-4.023,-3.9916,0.0,0.0,0.0,0.0,0.0,0.0,0.0,0.0,-3.4454,-3.3954,-3.4747,-3.4178,-3.3124,-3.2632,-3.2739,-3.289,-3.2417,-3.2293,-3.2293,-3.2293,-3.1752,-3.1042,-3.0516,-3.04,-3.0251,-2.9694,-2.9592,-2.9791,-3.0474,-3.0038,-2.9818,-3.0459,-3.0011,-2.9367,-2.8682,-2.9098,-2.9246,-2.8565,-2.9019,-2.9629,-3.023,-3.0293,-3.0539,-3.1151,-3.119,-3.119,-3.119,-3.119,-3.119,-3.119,-3.119,-3.119,-3.119,-3.119,-3.119,-3.119,-3.119,-3.119,-3.119,-3.119,-3.119,-3.119,-3.119,-3.143,-3.1843,-3.2316,-3.2501,-3.2501,-3.2484,-3.2484,-3.2501,-3.2501,-3.3042,-3.3734,0.0,0.0,0.0,0.0,0.0,0.0,0.0,0.0,0.0,0.0,0.0,0.0,0.0,0.0,0.0,0.0,0.0,0.0,-4.0058,-4.0298,-4.0408,-4.0273,-4.0317,-4.057,-4.1093,-4.0618,-3.9992,-3.92,-3.92,-3.9845,-4.1095,-4.1095,-4.1224,-4.1462,-4.1462,-4.102,-4.0286,-4.0857,-4.0781,-4.0286,-4.0616,-4.0414,0.0,0.0,0.0,0.0,0.0,0.0,0.0,0.0,0.0,0.0,-3.4266,-3.4728,-3.4987,-3.3068,-3.2964,-3.3195,-3.1869,-3.1532,-3.1532,-3.1532,-3.1029,-3.0422,-2.982,-2.9703,-2.9548,-2.9014,-2.8891,-2.9105,-2.9781,-2.935,-2.8955,-2.9161,-2.8628,-2.8124,-2.7929,-2.8062,-2.8097,-2.79,-2.8391,-2.885,-2.9035,-2.9805,-3.0356,-3.0539,-3.0975,-3.119,-3.119,-3.119,-3.119,-3.119,-3.119,-3.119,-3.119,-3.119,-3.119,-3.119,-3.119,-3.119,-3.119,-3.119,-3.119,-3.119,-3.119,-3.143,-3.1825,-3.1951,-3.2004,-3.1986,-3.1712,-3.1769,-3.2004,-3.2004,-3.2383,-3.2919,0.0,0.0,0.0,0.0,0.0,0.0,0.0,0.0,0.0,0.0,0.0,0.0,0.0,0.0,0.0,0.0,0.0,0.0,0.0,0.0,-3.9797,-3.9557,-3.9927,-4.0428,-4.1093,-4.1407,-4.135,-4.0855,-4.0212,-4.0304,-4.1095,-4.0781,-4.0616,-4.0616,-4.0616,-4.0175,-3.946,-3.9955,-3.9882,-3.946,-3.9955,-3.9863,-3.9423,0.0,0.0,0.0,0.0,0.0,0.0,0.0,0.0,0.0,-3.4945,-3.5495,-3.5919,-3.3972,-3.3969,-3.4269,-3.2881,-3.229,-3.207,-3.207,-3.1355,-3.0435,-2.9585,-2.9019,-2.858,-2.8277,-2.8188,-2.8334,-2.8738,-2.8483,-2.8188,-2.8188,-2.7869,-2.76,-2.76,-2.76,-2.76,-2.76,-2.7919,-2.8238,-2.8463,-2.9157,-2.9673,-2.9913,-3.0497,-3.0838,-3.0838,-3.1055,-3.119,-3.119,-3.119,-3.119,-3.119,-3.119,-3.119,-3.119,-3.119,-3.119,-3.119,-3.119,-3.119,-3.119,-3.119,-3.143,-3.1789,-3.164,-3.166,-3.1752,-3.1351,-3.1449,-3.1789,-3.1621,-3.1968,-3.2517,0.0,0.0,0.0,0.0,0.0,0.0,0.0,0.0,0.0,0.0,-3.8707,0.0,0.0,0.0,0.0,0.0,0.0,0.0,0.0,0.0,-3.9634,-3.9599,-3.9935,-4.0506,-4.1297,-4.2047,-4.2415,-4.2415,-4.0799,-4.0377,-4.1077,-4.0286,-3.9845,-3.979,-3.979,-3.9386,-3.8707,-3.8707,-3.8707,-3.8707,-3.8707,-3.8707,-3.8707,-3.8707,0.0,0.0,0.0,0.0,0.0,0.0,0.0,0.0,-3.6321,-3.6395,-3.6285,-3.5132,-3.5331,-3.5691,-3.4669,-3.3863,-3.3305,-3.3305,-3.2161,-3.074,-2.9585,-2.8377,-2.7525,-2.7585,-2.76,-2.76,-2.76,-2.76,-2.76,-2.76,-2.76,-2.76,-2.76,-2.76,-2.76,-2.76,-2.76,-2.781,-2.8367,-2.8463,-2.8732,-2.9271,-2.987,-3.0197,-3.0194,-3.0767,-3.1117,-3.1106,-3.1157,-3.119,-3.119,-3.119,-3.119,-3.119,-3.119,-3.119,-3.119,-3.119,-3.119,-3.119,-3.119,-3.1411,-3.1733,-3.1351,-3.1411,-3.1715,-3.1332,-3.143,-3.1715,-3.1332,-3.1712,-3.2333,0.0,0.0,0.0,0.0,0.0,0.0,0.0,0.0,0.0,0.0,0.0,0.0,0.0,0.0,0.0,0.0,0.0,0.0,0.0,0.0,-3.9851,-3.9538,-4.0963,-4.2158,-4.2965,-4.3149,-4.3239,-4.3239,-4.1625,-4.093,-4.1077,-4.0286,-3.9551,-3.8964,-3.8964,-3.8854,-3.8707,-3.8707,-3.8707,-3.8707,-3.8707,-3.8707,-3.8707,-3.8707,-3.8597,0.0,0.0,0.0,0.0,0.0,0.0,0.0,-3.6486,-3.7165,-3.7747,-3.5471,-3.5367,-3.5642,-3.4059,-3.3102,-3.2547,-3.2547,-3.1144,-2.9585,-2.885,-2.7727,-2.6971,-2.748,-2.76,-2.76,-2.76,-2.76,-2.76,-2.76,-2.76,-2.76,-2.76,-2.76,-2.76,-2.76,-2.76,-2.7635,-2.7785,-2.8238,-2.8559,-2.8685,-2.9248,-2.9562,-2.9449,-3.0121,-3.0449,-3.0342,-3.0903,-3.119,-3.119,-3.119,-3.119,0.0,-3.119,-3.119,-3.119,-3.119,-3.119,-3.119,-3.119,-3.1249,-3.1312,-3.1249,-3.1252,-3.1312,-3.123,-3.1252,-3.1312,-3.123,-3.1329,-3.1506,0.0,0.0,0.0,0.0,0.0,0.0,0.0,0.0,0.0,0.0,0.0,0.0,0.0,0.0,0.0,0.0,0.0,0.0,0.0,0.0,-4.0294,-4.0738,-4.1543,-4.2506,-4.3705,-4.358,-4.3515,-4.3515,-4.1901,-4.1095,-4.1095,-4.0671,-3.9845,-3.8726,-3.9093,-3.9056,-3.8707,-3.8707,-3.8707,-3.8707,-3.8707,-3.8707,-3.8707,-3.8707,-3.8707,-3.8652,-3.823,0.0,0.0,0.0,0.0,0.0,0.0,0.0,-3.8382,-3.6748,-3.615,-3.5752,-3.4628,-3.3329,-3.2226,-3.187,-3.0784,-2.9592,-2.8677,-2.7698,-2.6966,-2.669,-2.6632,-2.6632,-2.6632,-2.6632,-2.6761,-2.7076,-2.7121,-2.724,-2.754,-2.76,-2.76,-2.76,-2.76,-2.76,-2.76,-2.787,-2.8067,-2.8067,-2.8327,-2.8564,-2.8772,-2.91,-2.9533,-3.0089,-3.048,-3.0835,-3.119,-3.119,-3.119,-3.119,-3.119,-3.119,-3.119,-3.119,-3.119,-3.119,-3.119,-3.119,-3.119,-3.119,-3.119,-3.119,-3.119,-3.119,-3.119,-3.119,-3.119,-3.123,0.0,0.0,0.0,0.0,0.0,0.0,0.0,0.0,0.0,0.0,0.0,0.0,0.0,0.0,0.0,0.0,0.0,0.0,0.0,-4.0177,-4.0866,-4.2099,-4.1935,-4.2497,-4.3979,-4.355,-4.3277,-4.3277,-4.1827,-4.1095,-4.1095,-4.082,-4.0065,-3.8927,-3.946,-3.9313,-3.8707,-3.8707,-3.8707,-3.8707,-3.8707,-3.8707,-3.8707,-3.8707,-3.8707,-3.8707,-3.8707,-3.8707,-3.8707,-3.8707,0.0,0.0,0.0,0.0,-3.8211,-3.7812,-3.6843,-3.581,-3.5418,-3.3825,-3.2124,-3.1376,-3.0757,-3.0023,-2.8973,-2.8006,-2.7041,-2.5969,-2.567,-2.5615,-2.5615,-2.5615,-2.5824,-2.6482,-2.6587,-2.6811,-2.751,-2.76,-2.76,-2.76,-2.76,-2.76,-2.76,-2.7495,-2.742,-2.742,-2.7283,-2.7361,-2.7767,-2.7883,-2.8494,-2.9738,-2.989,-3.0302,-3.1004,-3.1004,-3.0954,-3.0818,-3.0954,-3.1072,-3.119,-3.119,-3.119,-3.119,-3.119,-3.119,-3.119,-3.119,-3.119,-3.119,-3.119,-3.119,-3.119,-3.119,-3.119,-3.1173,0.0,0.0,0.0,0.0,0.0,0.0,0.0,0.0,0.0,0.0,-3.8707,-3.8494,-3.7907,-3.8178,0.0,0.0,0.0,0.0,-3.9411,0.0,0.0,-4.2411,-4.2567,-4.3059,-4.3982,-4.2996,-4.2451,-4.2451,-4.1535,-4.1095,-4.1058,-3.968,-3.9276,-3.9698,-3.9129,-3.8799,-3.8707,-3.8707,-3.8707,-3.8707,-3.8707,-3.8707,-3.8707,-3.8707,-3.8707,-3.8707,-3.8707,-3.8707,-3.8707,-3.8707,-3.823,0.0,0.0,0.0,-3.6637,-3.6801,-3.6258,-3.552,-3.5339,-3.3825,-3.2124,-3.1376,-3.0757,-3.0255,-3.0093,-2.8281,-2.6588,-2.6406,-2.5963,-2.5615,-2.5615,-2.5615,-2.5824,-2.6482,-2.6587,-2.6811,-2.751,-2.76,-2.76,-2.76,-2.76,-2.76,-2.76,-2.7076,-2.6722,-2.6722,-2.6204,-2.5834,-2.5796,-2.6373,-2.7264,-2.842,-2.9072,-2.9685,-3.0241,-3.026,-2.9922,-2.9297,-2.9939,-3.0581,-3.119,-3.119,-3.119,-3.119,-3.119,-3.119,-3.119,-3.119,-3.119,-3.119,-3.119,-3.119,-3.119,-3.119,-3.119,-3.1106,0.0,0.0,0.0,0.0,0.0,0.0,0.0,0.0,0.0,0.0,0.0,-3.8437,-3.7742,-3.8047,0.0,0.0,0.0,0.0,-3.9265,-3.9854,0.0,0.0,-4.1827,-4.2064,-4.2916,-4.2091,-4.1627,-4.1627,-4.0818,-4.0891,-4.1754,-4.0139,-3.9808,-4.0561,-4.0196,-3.979,-3.9331,-3.8891,-3.8707,-3.8707,-3.8707,-3.8707,-3.8707,-3.8707,-3.8707,-3.8707,-3.8707,-3.8414,-3.8028,-3.8028,-3.7786,-3.7419,-3.6978,0.0,0.0,0.0,-3.5722,-3.4652,-3.3629,-3.2678,-3.1899,-3.1336,-3.0995,-3.062,-2.9902,-2.8865,-2.7747,-2.6614,-2.5942,-2.5324,-2.462,-2.4477,-2.4702,-2.5375,-2.5794,-2.6273,-2.6956,-2.736,-2.76,-2.76,-2.76,-2.76,-2.76,-2.733,-2.7001,-2.6641,-2.5974,-2.553,-2.5404,-2.535,-2.6023,-2.7545,-2.7913,-2.8524,-2.9465,-2.9482,-2.9331,-2.8993,-2.9331,-2.9871,-3.0581,-3.0581,-3.0818,-3.119,-3.119,-3.119,-3.119,-3.119,-3.119,-3.119,-3.119,-3.119,-3.119,-3.119,-3.119,-3.1089,0.0,0.0,0.0,0.0,0.0,0.0,0.0,0.0,0.0,0.0,0.0,0.0,-3.7584,0.0,0.0,0.0,0.0,0.0,-3.8931,0.0,0.0,0.0,0.0,-4.1288,-4.2089,-4.1307,-4.0859,-4.0799,-3.9992,-4.0304,-4.1662,-4.0451,-4.0322,-4.1095,-4.0875,-4.0359,-3.9551,-3.8946,-3.8707,-3.8707,-3.8707,-3.8707,-3.8707,-3.8707,-3.8707,-3.8707,-3.8707,-3.8303,-3.7804,-3.7804,-3.7529,-3.7088,-3.6486,-3.6427,0.0,0.0,0.0,-3.4054,-3.2423,-3.2036,-3.1956,-3.1361,-3.1326,-3.1179,-3.0049,-2.9533,-2.882,-2.7129,-2.6102,-2.5147,-2.4,-2.3702,-2.3819,-2.4485,-2.5158,-2.5839,-2.6497,-2.718,-2.76,-2.76,-2.76,-2.76,-2.76,-2.745,-2.7076,-2.6393,-2.5734,-2.5244,-2.4949,-2.4476,-2.4966,-2.6633,-2.682,-2.7422,-2.8506,-2.8448,-2.8519,-2.8687,-2.8908,-2.9381,-3.0108,-3.0108,-3.0497,-3.119,-3.119,-3.119,-3.119,-3.119,-3.119,-3.119,-3.119,-3.119,-3.119,-3.119,-3.119,-3.1072,0.0,0.0,0.0,0.0,0.0,0.0,0.0,0.0,0.0,0.0,0.0,0.0,-3.7584,-3.7984,-3.766,-3.6107,0.0,0.0,0.0,0.0,0.0,0.0,0.0,0.0,-4.2089,-4.0945,-4.0211,-3.9955,-3.9166,-3.9203,-4.001,-3.9953,-4.0322,-4.1058,-4.0304,-3.9515,-3.8762,-3.8726,-3.8707,-3.8707,-3.8707,-3.8707,-3.8707,-3.8707,-3.8707,-3.8707,-3.8707,-3.867,-3.8634,-3.8634,-3.7624,-3.6358,-3.6303,-3.5238,-3.4137,0.0,0.0,0.0,-3.2812,-3.2686,-3.2647,-3.1497,-3.1735,-3.2056,-3.1289,-3.0176,-2.9068,-2.8273,-2.6723,-2.5274,-2.4493,-2.3927,-2.3819,-2.4485,-2.5158,-2.5839,-2.6497,-2.718,-2.76,-2.76,-2.76,-2.76,-2.76,-2.7031,-2.6363,-2.5704,-2.5023,-2.4373,-2.3728,-2.3653,-2.4246,-2.5545,-2.6077,-2.6607,-2.7187,-2.6957,-2.7165,-2.7874,-2.8636,-2.9381,-3.0108,-3.0108,-3.0497,-3.119,-3.119,-3.119,-3.119,-3.119,-3.119,-3.119,-3.119,-3.119,-3.119,-3.119,-3.119,-3.0987,0.0,0.0,0.0,0.0,0.0,0.0,0.0,0.0,0.0,0.0,0.0,0.0,0.0,-3.8301,-3.8075,-3.7491,-3.7789,0.0,0.0,0.0,0.0,0.0,0.0,0.0,-4.0188,-3.9744,-3.9402,-3.9129,-3.8836,-3.9111,-3.99,-3.99,-4.0047,-4.0322,-4.0029,-3.9735,-3.9441,-3.8927,-3.8707,-3.8707,-3.8707,-3.8707,-3.8707,-3.8707,-3.8707,-3.8707,-3.8707,-3.8377,-3.7933,-3.7933,-3.7202,-3.6193,-3.5628,-3.5041,-3.4527,-3.4289,-3.4133,-3.3858,-3.3132,-3.2829,-3.2494,-3.1765,-3.1596,-3.1512,-3.1258,-3.0853,-3.0294,-2.9573,-2.825,-2.6889,-2.5823,-2.4512,-2.3819,-2.4485,-2.5158,-2.5839,-2.6497,-2.718,-2.76,-2.76,-2.76,-2.76,-2.76,-2.739,-2.6971,-2.6288,-2.563,-2.4948,-2.4276,-2.3834,-2.3964,-2.4766,-2.4972,-2.5508,-2.6391,-2.6587,-2.6826,-2.7097,-2.7385,-2.818,-2.9381,-2.9381,-2.9786,-3.0497,-3.0497,-3.0768,-3.119,-3.119,-3.119,-3.119,-3.119,-3.119,-3.119,-3.119,-3.0903,-3.0362,0.0,0.0,0.0,0.0,0.0,0.0,0.0,0.0,0.0,-3.8744,0.0,0.0,0.0,0.0,-3.8545,-3.8472,-3.8078,-3.7874,-3.7981,-3.8815,0.0,0.0,0.0,0.0,-3.9675,-3.9296,-3.9105,-3.9093,-3.8836,-3.8964,-3.9496,-3.9496,-3.9496,-3.9496,-3.9496,-3.9496,-3.946,-3.8927,-3.8707,-3.8707,-3.8707,-3.8707,-3.8707,-3.8707,-3.8707,-3.8707,-3.8707,-3.8358,-3.7915,-3.7915,-3.7382,-3.6541,-3.5701,-3.5041,-3.4491,-3.3972,-3.3807,-3.3707,-3.3302,-3.3037,-3.2701,-3.1985,-3.1677,-3.1582,-3.1582,-3.1376,-3.1055,-3.0581,-2.9457,-2.8247,-2.7136,-2.5655,-2.4593,-2.4582,-2.5337,-2.6093,-2.6527,-2.718,-2.76,-2.76,-2.76,-2.76,-2.76,-2.76,-2.733,-2.6632,-2.5974,0.0,-2.4649,-2.3947,-2.3858,-2.4389,-2.441,-2.4831,-2.5726,-2.6034,-2.6298,-2.647,-2.653,-2.7271,-2.8586,-2.8424,-2.8844,-2.9719,-2.9465,-2.977,-3.0465,-3.0465,-3.0598,-3.0835,-3.0835,-3.097,-3.119,-3.119,-3.0734,-2.9989,0.0,0.0,0.0,0.0,0.0,0.0,0.0,0.0,-3.957,-3.8799,0.0,0.0,0.0,0.0,0.0,-3.8841,-3.8051,-3.7683,-3.8004,-3.8846,0.0,0.0,0.0,0.0,-4.0777,-3.9694,-3.9379,-3.99,-3.9093,-3.8707,-3.8707,-3.8707,-3.8707,-3.8707,-3.8707,-3.8707,-3.8707,-3.8707,-3.8707,-3.8707,-3.8707,-3.8707,-3.8707,-3.8707,-3.8707,-3.8707,-3.8707,-3.8707,-3.8707,-3.8707,-3.8175,-3.7364,-3.6523,-3.5128,-3.3807,-3.3807,-3.3807,-3.3707,0.0,0.0,0.0,-3.2124,-3.2057,-3.228,-3.2276,-3.1718,-3.119,-3.119,-3.0212,-2.9088,-2.8378,-2.7331,-2.6176,-2.4935,-2.5773,-2.6602,-2.6641,-2.7195,-2.76,-2.76,-2.76,-2.76,-2.76,-2.76,-2.733,-2.6686,-2.6019,-2.5337,-2.4664,-2.3984,-2.3837,-2.4348,-2.4389,-2.4652,-2.5182,-2.5202,-2.5468,-2.5995,-2.618,-2.6806,-2.7772,-2.7323,-2.7777,-2.8907,-2.8128,-2.823,-2.8942,-2.8976,-2.9414,-3.0074,-3.0074,-3.0497,-3.114,-3.114,-3.0666,-2.9939,0.0,0.0,0.0,0.0,0.0,-4.1352,-4.1132,-3.9918,-3.8946,0.0,0.0,0.0,-3.8762,-3.8933,-3.9189,-3.9369,-3.9164,-3.8883,-3.8601,-3.9392,-3.9612,-3.8972,-3.987,-4.0395,-4.0446,-3.9796,-3.9608,-3.99,-3.9093,-3.8707,-3.8707,-3.8707,-3.8707,-3.8707,-3.8707,-3.8707,-3.8707,-3.8707,-3.8707,-3.8707,-3.8707,-3.8707,-3.8707,-3.8707,-3.8707,-3.8707,-3.8707,-3.8707,-3.8707,-3.8707,-3.8175,-3.7254,-3.5811,-3.4637,-3.3807,-3.3807,-3.3807,-3.378,-3.3666,0.0,0.0,0.0,0.0,0.0,-3.1577,-3.1343,-3.119,-3.119,-3.0502,-2.9699,-2.9099,-2.869,-2.8215,-2.7474,-2.6926,-2.6752,-2.7255,-2.748,-2.76,-2.76,-2.76,-2.76,-2.76,-2.76,-2.7525,0.0,-2.6692,-2.6033,-2.5352,-2.4238,-2.3659,-2.3815,-2.4199,-2.4471,-2.4632,-2.5008,-2.5468,-2.5995,-2.5659,-2.6146,-2.7288,-2.7174,-2.7292,-2.764,-2.7749,-2.7621,-2.7436,-2.8536,-2.9128,-2.9314,-2.9314,-2.9433,-2.9619,-2.9619,-2.911,-2.8415,0.0,0.0,0.0,0.0,0.0,-4.1882,-4.1187,-4.0288,-3.9588,0.0,0.0,0.0,-3.8762,-3.9139,-3.9407,-3.9389,-3.9389,-3.9322,-3.9157,-3.9606,-3.9734,-3.9357,-3.9834,-4.0243,-4.0493,-3.9771,-3.9554,-3.99,-3.9093,-3.8707,-3.8707,-3.8707,-3.8707,-3.8707,-3.8707,-3.8707,-3.8707,-3.8707,-3.8707,-3.8707,-3.8707,-3.8707,-3.8707,-3.8707,-3.8707,-3.8707,-3.8707,-3.8707,-3.8707,-3.8707,-3.8175,-3.7272,-3.5973,-3.522,-3.4706,-3.4009,-3.4045,-3.4215,-3.3899,-3.3508,-3.3075,-3.2616,0.0,0.0,-3.1681,-3.141,-3.1275,-3.1616,-3.1072,-3.047,-3.0145,-2.9851,-2.9568,-2.9241,-2.8404,-2.7825,-2.7972,-2.776,-2.76,-2.76,-2.7854,-2.7914,-2.763,-2.7854,-2.7899,-2.7615,-2.6986,-2.6183,-2.5232,-2.4178,-2.3595,-2.3595,-2.3885,-2.4074,-2.4074,-2.4369,-2.4796,-2.5316,-2.4792,-2.5156,-2.6306,-2.6079,-2.623,-2.6675,-2.6929,-2.6925,-2.6759,-2.7673,-2.8231,-2.8501,-2.8501,-2.8687,-2.8993,-2.8993,-2.8484,-2.7807,0.0,0.0,-4.3515,-4.3515,-4.3441,-4.2873,-4.1444,-4.1077,-4.0744,0.0,-3.9405,-3.9001,-3.9093,-3.957,-3.9743,-3.937,-3.9156,-3.9229,-3.9661,-3.959,-3.969,-4.0022,-3.9765,-3.9972,-4.0728,-3.9668,-3.9365,-3.99,-3.9093,-3.8707,-3.8707,-3.8707,-3.8707,-3.8707,-3.8707,-3.8707,-3.8707,-3.8707,-3.8707,-3.8707,-3.8707,-3.8707,-3.8707,-3.8707,-3.8707,-3.8707,-3.8707,-3.8707,-3.8707,-3.8707,-3.8175,-3.7382,-3.6666,-3.6358,-3.5991,-3.4394,-3.4435,-3.4821,-3.4027,-3.3536,-3.3169,-3.2697,-3.2264,0.0,-3.2188,-3.1746,-3.1438,-3.2039,-3.1667,-3.119,-3.119,-3.0827,-3.0513,-3.0414,-2.9957,-2.9373,-2.8701,-2.814,-2.7825,-2.7901,-2.8459,-2.8574,-2.7981,-2.8392,-2.8441,-2.775,-2.7031,-2.6048,-2.4784,-2.4088,-2.3684,-2.3595,-2.3595,-2.3595,-2.3595,-2.3595,-2.3879,-2.4389,-2.3858,-2.4137,-2.5089,-2.4632,-2.4914,-2.5834,-2.5888,-2.6175,-2.6624,-2.6624,-2.7029,-2.7672,-2.7672,-2.8112,-2.8739,-2.8739,-2.8281,-2.7672,0.0,-4.3515,-4.3515,-4.3515,-4.2947,-4.2433,-4.2121,-4.0965,-4.0304,-4.0802,-4.0728,-4.0875,-4.1534,-4.0579,-4.0115,-4.0672,-3.9531,-3.9176,-4.0085,-3.9546,-3.9339,-3.9679,-3.9634,-3.9845,-4.0392,-3.9554,-3.9365,-3.99,-3.9093,-3.8707,-3.8707,-3.8707,-3.8707,-3.8707,-3.8707,-3.8707,-3.8707,-3.8707,-3.8707,-3.8707,-3.8707,-3.8707,-3.8707,-3.8707,-3.8707,-3.8707,-3.8707,-3.8707,-3.8707,-3.8707,-3.8175,-3.7474,-3.7327,-3.6831,-3.6101,-3.5059,-3.4876,-3.4821,-3.4027,-3.3734,-3.3578,-3.3166,-3.2999,0.0,-3.2052,-3.1781,-3.1618,-3.1458,-3.1292,-3.119,-3.119,-3.1584,-3.1709,-3.1116,-3.102,-3.0587,-2.9396,-2.9111,-2.9271,-2.9856,-3.0046,-3.0083,-3.0026,-2.9626,-2.9138,-2.8464,-2.7275,-2.6243,-2.5442,-2.4769,-2.4156,-2.3625,-2.3595,-2.3595,-2.3595,-2.3595,-2.3879,-2.4389,-2.3858,-2.3943,-2.4552,-2.445,-2.4496,-2.4752,-2.5182,-2.5652,-2.6138,-2.6138,-2.6433,-2.6911,-2.6911,-2.6996,-2.7148,-2.7148,-2.7046,-2.6911,-4.3515,-4.3515,-4.3515,-4.3515,-4.3167,-4.2763,-4.2359,-4.1625,-4.124,-4.1662,-4.2047,-4.2139,-4.1754,-4.135,-4.1093,-4.1095,-4.001,-3.9534,-4.0067,-3.9357,-3.9027,-3.9346,-3.9339,-3.9469,-3.9695,-3.9303,-3.9161,-3.9294,-3.8909,-3.8707,-3.8707,-3.8707,-3.8707,-3.8707,-3.8707,-3.8707,-3.8707,-3.8707,-3.8707,-3.8707,-3.8707,-3.8707,-3.8707,-3.8707,-3.8707,-3.8707,-3.8707,-3.8707,-3.8707,-3.8707,-3.8432,-3.8028,-3.7621,-3.7511,-3.7165,-3.55,-3.5316,-3.5371,-3.4137,-3.3807,-3.3707,-3.3302,-3.3199,0.0,0.0,-3.2144,-3.2092,-3.1896,-3.1693,-3.1422,-3.1011,-3.1076,-3.1072,-3.0717,-3.1022,-3.1058,-3.0384,-3.0113,-3.0092,-3.0468,-3.1125,-3.1438,-3.1121,-3.0789,-3.0048,-2.8704,-2.735,-2.6437,-2.6123,-2.5143,-2.4455,-2.4096,-2.3774,-2.3595,-2.3595,-2.3595,-2.373,-2.3991,-2.373,-2.3745,-2.3991,-2.3991,-2.4158,-2.441,-2.4677,-2.5259,-2.5995,-2.5707,-2.589,-2.6367,-2.6607,-2.6573,-2.6384,-2.6607,-2.6691,-2.6691,-4.3515,-4.3515,-4.3515,-4.3515,-4.3515,-4.3277,-4.2635,-4.2396,-4.2304,-4.2304,-4.3002,-4.3002,-4.1699,-4.2011,-4.2103,-4.1625,-4.0689,-4.012,-4.012,-3.9386,-3.9043,-3.925,-3.9115,-3.9096,-3.9245,-3.9096,-3.8923,-3.8707,-3.8707,-3.8707,-3.8707,-3.8707,-3.8707,-3.8707,-3.8707,-3.8707,-3.8707,-3.8707,-3.8707,-3.8707,-3.8707,-3.8707,-3.8707,-3.8707,-3.8707,-3.8689,-3.8524,-3.8377,-3.8267,-3.8414,-3.8469,-3.8377,-3.7896,-3.8175,-3.8285,-3.6105,-3.5881,-3.5973,-3.4449,-3.3917,-3.3721,-3.3408,-3.3317,-3.3199,0.0,0.0,0.0,-3.2517,-3.2231,-3.1812,-3.1168,-3.0764,-3.0522,-3.0445,-3.0936,-3.1288,-3.121,-3.1004,-3.0891,-3.1037,-3.2189,-3.2757,-3.2224,-3.1842,-3.0859,-2.9109,-2.7725,-2.6916,-2.6806,-2.5644,-2.4874,-2.4619,-2.4066,-2.3729,-2.3595,-2.3595,-2.3595,-2.3595,-2.3595,-2.3595,-2.3595,-2.3595,-2.3837,-2.4246,-2.4246,-2.4812,-2.5652,-2.5221,-2.5297,-2.5744,-2.6349,-2.6332,-2.6067,-2.6539,-2.6641,-2.659,-4.3515,-4.3515,-4.3515,-4.3515,-4.3515,-4.3478,-4.3386,-4.2763,-4.2304,-4.2304,-4.3002,-4.3441,-4.324,-4.2671,-4.2543,-4.3167,-4.1846,-4.0948,-4.0948,-4.0212,-3.9785,-3.9813,-3.9133,-3.9081,-3.9795,-3.9099,-3.8735,-3.8707,-3.8707,-3.8707,-3.8707,-3.8707,-3.8707,-3.8707,-3.8707,-3.8707,-3.8707,-3.8707,-3.8707,-3.8707,-3.8707,-3.8707,-3.8707,-3.8707,-3.8707,-3.8615,-3.7896,-3.718,-3.667,-3.7401,-3.7639,-3.7749,-3.8377,-3.8634,-3.8505,-3.7496,-3.6795,-3.6083,-3.5133,-3.4344,-3.3793,-3.3734,-3.3734,-3.362,-3.3211,0.0,-3.2999,-3.2583,0.0,-3.2399,-3.231,0.0,0.0,-3.1668,-3.1679,-3.1598,-3.1249,-3.1736,-3.2345,-3.298,-3.3787,-3.4275,-3.4255,-3.265,-3.1254,-3.0438,-2.9132,-2.8098,-2.7525,-2.6791,-2.5839,-2.4649,-2.453,-2.4201,-2.361,-2.3595,-2.3595,-2.3595,-2.3595,-2.3595,-2.3595,-2.3595,-2.3638,-2.3702,-2.3702,-2.4032,-2.4572,-2.4532,-2.4532,-2.4677,-2.5689,-2.6049,-2.6067,-2.6539,-2.6436,-2.6138,-4.3515,-4.3515,-4.3515,-4.3515,-4.3515,-4.3515,-4.3515,-4.3221,-4.3002,-4.3002,-4.3277,-4.3515,-4.3515,-4.3185,-4.313,-4.3478,-4.2451,-4.1809,-4.1809,-4.1038,-4.0598,-4.0598,-3.9827,-3.9551,-3.9882,-3.9111,-3.8707,-3.8707,-3.8707,-3.8707,0.0,0.0,-3.8707,-3.8707,-3.8707,-3.8707,-3.8707,-3.8707,-3.8432,-3.8028,-3.8505,-3.8222,-3.7614,-3.8413,-3.8414,-3.7915,-3.7088,-3.6578,-3.634,-3.6703,-3.7107,-3.7566,-3.7915,-3.8322,-3.845,-3.7165,-3.656,-3.6009,-3.4669,-3.4064,-3.3807,-3.3807,-3.3807,-3.3748,-3.3578,-3.355,-3.3494,-3.3284,0.0,0.0,0.0,0.0,0.0,0.0,-3.1725,-3.1785,-3.1582,-3.2335,-3.3051,-3.3372,0.0,0.0,-3.3947,-3.3218,-3.2315,-3.1249,-3.0304,-2.9286,-2.8229,-2.7555,-2.6737,-2.5794,-2.5008,-2.447,-2.4171,-2.3789,-2.3595,-2.3595,-2.3595,-2.3595,-2.3595,-2.3595,-2.3595,-2.3595,-2.3595,-2.3885,-2.4369,-2.4053,-2.4116,-2.445,-2.491,-2.5259,-2.5596,-2.6104,-2.6174,-2.6031,-4.3515,-4.3515,-4.3515,-4.3515,-4.3515,-4.3515,-4.3515,-4.3515,-4.3515,-4.3515,-4.3515,-4.3515,-4.3515,-4.3515,-4.3515,-4.3515,-4.2965,-4.2543,-4.2304,-4.1754,-4.1425,-4.1425,-4.0671,-4.023,-4.023,-3.9441,-3.8927,-3.8707,-3.8707,-3.8707,0.0,0.0,-3.8707,-3.8707,-3.8707,-3.8707,-3.8707,-3.8707,-3.8358,-3.7878,-3.8469,-3.802,-3.7116,-3.7879,-3.7754,-3.707,-3.6248,-3.5807,-3.5642,-3.5862,-3.6321,0.0,-3.7107,-3.7569,-3.7808,-3.6633,-3.6047,-3.5531,-3.444,-3.3886,-3.3666,-3.3762,-3.3807,-3.3807,-3.3807,-3.3807,-3.3807,-3.3807,-3.3564,0.0,0.0,0.0,-3.1762,-3.1869,0.0,-3.1934,-3.1987,-3.2645,-3.3137,-3.3109,0.0,0.0,0.0,-3.3522,-3.3103,-3.1914,-3.1239,-3.0294,-2.8959,-2.8244,-2.7495,-2.6641,-2.5495,-2.4784,-2.4605,-2.3939,-2.3595,-2.3595,-2.3595,-2.3595,-2.3595,-2.3595,-2.3595,-2.3595,-2.3595,-2.3815,-2.4158,-2.3752,-2.3837,-2.4163,-2.4163,-2.4511,-2.5047,-2.5596,-2.5689,-2.5596,-4.3515,-4.3515,-4.3515,-4.3515,-4.3515,-4.3515,-4.3515,-4.3515,-4.3515,-4.3515,-4.3515,-4.3515,-4.3515,-4.3515,-4.3515,-4.3515,-4.3478,-4.313,-4.2359,-4.2286,-4.2268,-4.2268,-4.148,-4.1058,-4.1058,-4.0267,-3.9478,-3.8707,-3.8707,-3.8707,0.0,0.0,-3.8707,-3.8707,-3.8707,-3.8707,-3.8707,-3.8707,-3.8689,-3.867,-3.8689,-3.8364,-3.7785,-3.7029,-3.6581,-3.6211,-3.5353,0.0,0.0,-3.4784,-3.5059,0.0,0.0,0.0,0.0,0.0,0.0,0.0,0.0,0.0,0.0,-3.3707,0.0,0.0,0.0,-3.3807,-3.3807,-3.3807,-3.3775,-3.3775,-3.3757,-3.3101,-3.2693,-3.3081,-3.2505,0.0,0.0,-3.2503,-3.2476,-3.2346,-3.2966,-3.3402,0.0,-3.3461,-3.3215,0.0,-3.1898,-3.0964,-2.9633,-2.8921,-2.7964,-2.6632,-2.5929,-2.5247,-2.4619,-2.3939,-2.3595,-2.3595,-2.3595,-2.3595,-2.3595,-2.3595,-2.3595,-2.3595,-2.3595,-2.3595,-2.3616,-2.3595,-2.3595,-2.3638,-2.3638,-2.3948,-2.4491,-2.5028,-2.491,-2.4532,-4.3515,-4.3515,-4.3515,-4.3515,-4.3515,-4.3515,-4.3515,-4.3515,-4.3515,-4.3515,-4.3515,-4.3515,-4.3515,-4.3515,-4.3515,-4.3515,-4.3515,-4.3386,-4.3112,-4.3075,-4.3075,-4.3075,-4.2323,-4.1901,-4.1901,-4.0579,-3.9772,-3.9478,-3.8964,-3.8707,-3.8707,-3.8707,-3.8707,-3.8707,-3.8707,-3.8707,-3.8707,-3.8707,-3.8395,-3.7836,-3.7117,-3.727,-3.7769,0.0,-3.5998,-3.5616,-3.4467,-3.3769,0.0,-3.3366,-3.3703,-3.4185,-3.4489,-3.5164,-3.5665,-3.4837,-3.4495,0.0,0.0,0.0,-3.284,-3.3302,0.0,0.0,0.0,0.0,0.0,0.0,-3.3807,-3.3807,-3.3807,-3.3587,-3.3436,-3.357,-3.3143,-3.2832,0.0,-3.2008,-3.1463,-3.1915,-3.2815,-3.322,-3.2713,0.0,0.0,-3.3183,-3.2558,0.0,0.0,-2.9633,-2.8663,-2.73,-2.6183,-2.5495,-2.5247,-2.4163,-2.3595,-2.3595,-2.3595,-2.3595,-2.3595,-2.3595,-2.3595,-2.3595,-2.3595,-2.3595,-2.3595,-2.3595,-2.3595,-2.3595,-2.3595,-2.3724,-2.3943,-2.4471,-2.4552,-2.443,-4.3515,-4.3515,-4.3515,-4.3515,-4.3515,-4.3515,-4.3515,-4.3515,-4.3515,-4.3515,-4.3515,-4.3515,-4.3515,-4.3515,-4.3515,-4.3515,-4.3515,-4.3515,-4.3515,-4.3515,-4.3515,-4.3515,-4.3002,-4.2598,-4.2304,-4.1277,-4.0469,-3.99,-3.9386,-3.8982,-3.8707,-3.8707,-3.8707,-3.8707,-3.8707,-3.8707,-3.8692,-3.8515,-3.822,-3.7839,-3.6773,-3.6769,-3.7251,0.0,-3.5861,-3.572,0.0,-3.3482,-3.3263,-3.2688,-3.2836,-3.326,-3.326,-3.385,-3.4352,-3.352,-3.3378,-3.3338,-3.2692,-3.2384,0.0,-3.2516,-3.2552,0.0,-3.3449,0.0,-3.3146,0.0,0.0,0.0,-3.3578,-3.3707,-3.3807,-3.3807,-3.3578,-3.3404,0.0,-3.2362,-3.1702,-3.2022,-3.2143,-3.2138,-3.1938,-3.2577,-3.3033,-3.3093,-3.2733,-3.2041,0.0,0.0,-2.9097,-2.8004,-2.6422,-2.5615,-2.5615,-2.4268,-2.3595,-2.3595,-2.3595,-2.3595,-2.3595,-2.3595,-2.3595,-2.3595,-2.3595,-2.3595,-2.3595,-2.3595,-2.3595,-2.3595,-2.3595,-2.3595,-2.3638,-2.3991,-2.4116,-2.4116,-4.3515,-4.3515,-4.3515,-4.3515,-4.3515,-4.3515,-4.3515,-4.3515,-4.3515,-4.3515,-4.3515,-4.3515,-4.3515,-4.3515,-4.3515,-4.3515,-4.3515,-4.3515,-4.3515,-4.3515,-4.3515,-4.3515,-4.3515,-4.313,-4.2378,-4.2323,-4.1534,-3.9955,-3.9918,-3.9478,-3.8707,-3.8707,-3.8707,-3.8707,-3.8707,-3.8707,-3.8658,-3.8115,-3.8167,-3.8499,-3.7542,-3.6862,-3.6333,-3.5788,-3.6052,-3.6409,-3.4322,-3.3582,-3.344,-3.2681,-3.2434,-3.2434,-3.2434,-3.2451,-3.2467,-3.2451,-3.2127,-3.188,-3.2316,-3.2109,-3.1706,-3.1429,0.0,0.0,0.0,0.0,-3.1896,0.0,0.0,0.0,0.0,0.0,-3.3835,-3.3835,-3.3812,-3.3807,-3.3807,-3.3397,-3.2945,-3.255,-3.1094,-3.0395,-3.1123,-3.1836,-3.2299,-3.244,-3.2482,-3.2241,0.0,0.0,-2.9334,-2.8622,-2.6647,-2.5615,-2.5615,-2.4268,-2.3595,-2.3595,-2.3595,-2.3595,-2.3595,-2.3595,-2.3595,-2.3595,-2.3595,-2.3595,-2.3595,-2.3595,-2.3595,-2.3595,-2.3595,-2.3595,-2.3595,-2.3595,-2.3595,-2.3595,-4.3515,-4.3515,-4.3515,-4.3515,-4.3515,-4.3515,-4.3515,-4.3515,-4.3515,-4.3515,-4.3515,-4.3515,-4.3515,-4.3515,-4.3515,-4.3515,-4.3515,-4.3515,-4.3515,-4.3515,-4.3515,-4.3515,-4.3515,-4.3387,-4.3185,-4.2598,-4.1809,-4.0799,-4.0194,-3.9478,-3.8707,-3.8707,-3.8707,-3.8707,-3.8707,-3.8707,-3.8658,-3.8115,-3.756,-3.698,-3.6704,-3.6519,-3.6333,0.0,-3.5976,-3.6197,-3.4189,-3.3317,-3.2993,-3.1896,-3.1524,-3.1524,-3.1524,-3.175,-3.1915,-3.162,-3.1658,-3.1752,-3.1582,-3.1447,-3.128,-3.0959,-3.0887,-3.09,0.0,0.0,0.0,0.0,0.0,0.0,0.0,0.0,-3.422,-3.4175,-3.3948,-3.3807,-3.3807,-3.2672,-3.2022,-3.2446,-3.1094,-3.0395,-3.1123,-3.136,-3.1942,-3.3055,-3.2694,-3.24,-3.2351,0.0,0.0,-2.8648,-2.6647,-2.5615,-2.5615,-2.4268,-2.3595,-2.3595,-2.3595,-2.3595,-2.3595,-2.3595,-2.3595,-2.3595,-2.3595,-2.3595,-2.3595,-2.3595,-2.3595,-2.3595,-2.3595,-2.3595,-2.3595,-2.3595,-2.3595,-2.3595,-4.3515,-4.3515,-4.3515,-4.3515,-4.3515,-4.3515,-4.3515,-4.3515,-4.3515,-4.3515,-4.3515,-4.3515,-4.3515,-4.3515,-4.3515,-4.3515,-4.3515,-4.3515,-4.3515,-4.3515,-4.3515,-4.3515,-4.3515,-4.3515,-4.3515,-4.3057,-4.2433,-4.1625,-4.0818,-4.001,-3.9221,-3.8854,-3.8707,-3.8707,-3.8707,-3.8707,-3.8658,-3.8115,-3.7323,-3.6395,-3.6395,-3.6266,0.0,-3.5717,-3.5783,-3.5874,-3.4393,-3.3577,-3.298,-3.1644,-3.119,-3.119,-3.119,-3.1351,-3.1488,-3.1271,-3.1351,-3.142,-3.0862,-3.0717,-3.0503,-2.9658,-2.9437,-2.9541,-2.995,-2.9605,-2.9458,0.0,0.0,0.0,0.0,0.0,0.0,-3.4519,-3.4007,-3.3536,-3.3536,-3.2588,-3.1956,-3.216,-3.1389,-3.0948,-3.1176,-3.0903,-3.1326,-3.2797,-3.2009,0.0,0.0,0.0,0.0,-2.8633,-2.6647,-2.5615,-2.5615,-2.4268,-2.3595,-2.3595,-2.3595,-2.3595,-2.3595,-2.3595,-2.3595,-2.3595,-2.3595,-2.3595,-2.3595,-2.3595,-2.3595,-2.3595,-2.3595,-2.3595,-2.3595,-2.3595,-2.3595,-2.3595,-4.3515,-4.3571,-4.3608,-4.3533,-4.3515,-4.3515,-4.3515,-4.3515,-4.3515,-4.3515,-4.3515,-4.3515,-4.3515,-4.3515,-4.3515,-4.3515,-4.3515,-4.3515,-4.3515,-4.3515,-4.3515,-4.3515,-4.3515,-4.3515,-4.3515,-4.3515,-4.3112,-4.2304,-4.148,-4.0689,-3.9879,-3.9074,-3.8707,-3.8707,-3.8707,-3.8627,-3.8465,-3.8015,-3.7211,-3.6308,-3.6308,-3.6028,-3.56,-3.56,-3.56,-3.5498,-3.4759,-3.4032,-3.3186,-3.1799,-3.1275,-3.119,-3.119,-3.119,-3.119,-3.119,-3.119,-3.1038,-3.0311,-3.0108,-2.9717,-2.8196,-2.7807,-2.8065,-2.9073,-2.8442,-2.8151,-2.9903,-2.9781,-2.9591,0.0,0.0,0.0,-3.4623,-3.3782,-3.2958,-3.2958,-3.2642,-3.2265,-3.1861,-3.1752,0.0,0.0,0.0,-3.0818,-3.2192,-3.1158,0.0,0.0,0.0,0.0,-2.8618,-2.6647,-2.5615,-2.5615,0.0,-2.3595,-2.3595,-2.3595,-2.3595,-2.3595,-2.3595,-2.3595,-2.3595,-2.3595,-2.3595,-2.3595,-2.3595,-2.3595,-2.3595,-2.3595,-2.3595,-2.3595,-2.3595,-2.3595,-2.3595,-4.3515,-4.403,-4.4287,-4.3608,-4.3515,-4.3515,-4.3515,-4.3515,-4.3515,-4.3515,-4.3515,-4.3515,-4.3515,-4.3515,-4.3515,-4.3515,-4.3515,-4.3515,-4.3515,-4.3515,-4.3515,-4.3515,-4.3515,-4.3515,-4.3515,-4.3515,-4.3112,-4.2304,-4.148,-4.0689,-3.9879,0.0,-3.8707,-3.8707,-3.8707,-3.8252,-3.7469,-3.736,0.0,-3.5739,-3.5739,-3.5672,-3.56,-3.56,-3.56,-3.5498,-3.4759,-3.4032,-3.3271,-3.2412,-3.1701,-3.119,-3.119,-3.119,-3.119,-3.119,-3.119,-3.1038,-3.0311,-3.0108,-2.9717,-2.8196,-2.7807,-2.7706,-2.7318,-2.7063,-2.6996,-2.7352,-2.7794,-2.8354,-2.9153,0.0,0.0,0.0,-3.2676,-3.172,-3.172,-3.1826,-3.188,-3.1825,-3.1507,-3.1271,0.0,0.0,0.0,-3.2226,-3.2073,0.0,0.0,0.0,0.0,0.0,-2.6647,0.0,0.0,0.0,-2.3595,-2.3595,-2.3595,-2.3595,-2.3595,-2.3595,-2.3595,-2.3595,-2.3595,-2.3595,-2.3595,-2.3595,-2.3595,-2.3595,-2.3595,-2.3595,-2.3595,-2.3595,-2.3595,-2.3595,-4.4727,-4.4727,-4.458,-4.4195,-4.3773,-4.3515,-4.3515,-4.3515,-4.3515,-4.3515,-4.3515,-4.3515,-4.3515,-4.3515,-4.3515,-4.3515,-4.3515,-4.3515,-4.3515,-4.3515,-4.3515,-4.3515,-4.3515,-4.3515,-4.3515,-4.3515,-4.3296,-4.291,-4.2121,-4.1515,-4.1111,0.0,-3.9313,-3.9313,-3.9002,-3.8377,-3.7542,0.0,0.0,-3.6006,-3.5717,-3.56,-3.56,-3.56,-3.56,-3.5549,-3.5199,-3.4607,-3.3795,-3.2682,-3.2056,-3.1701,-3.1309,-3.119,-3.119,-3.119,-3.119,-3.1038,-3.0311,-2.982,-2.9245,-2.8094,-2.7503,-2.7148,-2.6776,-2.6691,-2.6691,-2.6691,-2.6979,-2.7657,-2.9111,-3.011,0.0,0.0,0.0,-3.1038,-3.1038,-3.0975,-3.1061,-3.1437,-3.1312,-3.119,-3.119,-3.119,-3.1343,-3.1701,-3.1086,-3.062,0.0,0.0,0.0,0.0,0.0,0.0,0.0,0.0,0.0,-2.3595,-2.3595,-2.3595,-2.3595,-2.3595,-2.3595,-2.3595,-2.3595,-2.3595,-2.3595,-2.3595,-2.3595,-2.3595,-2.3595,-2.3595,-2.3595,-2.3595,-2.3595,-2.3595,-4.5718,-4.5169,-4.4693,-4.4327,-4.3634,-4.3123,-4.3123,-4.3123,-4.3232,-4.3462,-4.3515,-4.3444,-4.3339,-4.3427,-4.3444,-4.3339,-4.3427,-4.3515,-4.3515,-4.3515,-4.3515,-4.3515,-4.3515,-4.3515,-4.3515,-4.3515,-4.3515,-4.3515,-4.269,0.0,0.0,0.0,0.0,0.0,0.0,0.0,0.0,0.0,-3.7331,-3.6664,-3.6089,-3.5853,-3.5836,-3.5667,-3.56,-3.56,-3.56,-3.5233,-3.4523,-3.3224,-3.2564,-3.2192,-3.1633,-3.1326,-3.119,-3.119,-3.119,-3.1038,-3.0311,-2.955,-2.8807,-2.7993,-2.7249,-2.6691,-2.6691,-2.6691,-2.6691,-2.6691,-2.6691,-2.7283,-2.9195,-2.9713,0.0,0.0,0.0,0.0,-3.0524,-3.0302,-3.0378,-3.1106,-3.119,-3.119,-3.119,0.0,0.0,0.0,0.0,-2.9352,-2.9195,-2.8748,-2.8176,0.0,0.0,-2.5615,-2.5615,0.0,-2.3475,-2.3595,-2.3325,-2.334,-2.3595,-2.346,-2.3475,-2.3595,-2.3595,-2.3595,-2.3595,-2.3595,-2.3595,-2.3595,-2.3595,-2.3595,-2.3595,-2.3595,-2.3595,-2.3595,-4.5112,-4.4964,-4.4599,-4.3132,-4.2378,-4.1958,-4.1958,-4.1958,-4.2327,-4.3356,-4.3515,-4.3303,-4.2826,-4.3214,-4.3303,-4.2826,-4.3214,-4.3515,-4.3515,-4.3515,-4.3515,-4.3515,-4.3515,-4.3515,-4.3515,-4.3515,-4.3515,-4.3515,-4.269,-4.2304,0.0,0.0,0.0,0.0,0.0,0.0,0.0,-3.8512,-3.8191,-3.7706,-3.6965,-3.6694,-3.6609,-3.5893,-3.56,-3.56,-3.56,-3.5549,-3.5363,-3.4573,-3.341,-3.2293,-3.2226,-3.1752,-3.119,-3.119,-3.119,-3.1038,-3.0311,-2.955,-2.8807,-2.7993,-2.7249,-2.6691,-2.6691,-2.6691,-2.6691,-2.6691,-2.6691,-2.7182,-2.8777,-2.7979,-2.7776,0.0,0.0,0.0,0.0,-3.011,-3.0378,-3.1106,-3.119,-3.119,-3.119,-3.119,0.0,0.0,-3.0571,-2.9704,-2.8554,-2.8504,-2.7946,-2.6716,0.0,-2.5615,-2.5615,-2.3714,-2.3062,-2.3595,-2.2428,-2.2473,-2.358,-2.3032,-2.3092,-2.3595,-2.3595,-2.3595,-2.3595,-2.3595,-2.3595,-2.3595,-2.3595,-2.3595,-2.3595,-2.3595,-2.3595,-2.3595,-4.5126,-4.464,-4.4059,-4.3048,-4.2281,-4.181,-4.181,-4.181,-4.1961,-4.2406,-4.2483,-4.2404,-4.2183,-4.2364,-4.2404,-4.2183,-4.2694,-4.3014,-4.3014,-4.3321,-4.3515,-4.3515,-4.3515,-4.3515,-4.3515,-4.3515,-4.3515,-4.3515,-4.3167,0.0,0.0,0.0,0.0,0.0,0.0,-3.9419,-3.8602,-3.8757,-3.8476,-3.7872,-3.7584,-3.7218,-3.6761,-3.6434,-3.6028,-3.56,-3.56,-3.56,-3.5549,-3.5267,-3.4472,-3.3478,-3.2581,-3.2107,-3.1769,-3.1326,-3.119,-3.114,-3.0835,-3.0226,-2.9482,-2.8704,-2.7943,-2.7232,-2.6793,-2.6691,-2.6691,-2.6691,-2.6691,-2.6877,-2.752,-2.7486,-2.752,0.0,0.0,0.0,0.0,-2.9431,-2.9871,-3.1055,-3.119,-3.1021,-3.0581,-3.0937,0.0,0.0,0.0,-2.9928,-2.9057,-2.8308,0.0,-2.722,0.0,-2.4993,-2.4993,-2.346,-2.2628,-2.2443,-2.1934,-2.2194,-2.3062,-2.2808,-2.3032,-2.3595,-2.3595,-2.3595,-2.3595,-2.3595,-2.3595,-2.3595,-2.3595,-2.3595,-2.3595,-2.3595,-2.3595,-2.3595,-4.491,-4.4147,-4.3376,-4.2533,-4.1793,-4.1308,-4.1308,-4.1308,-4.1308,-4.1308,-4.1308,-4.1375,-4.1512,-4.1686,-4.1729,-4.1556,-4.2101,-4.244,-4.244,-4.2958,-4.3268,-4.3268,-4.3268,-4.3268,-4.3268,-4.3268,-4.3268,-4.3268,-4.3427,0.0,0.0,0.0,0.0,0.0,-3.9993,-3.9669,-3.9038,-3.9251,-3.9005,-3.8531,-3.8311,-3.7905,-3.7405,-3.6981,-3.6434,-3.5926,-3.5667,-3.56,-3.56,-3.56,-3.5245,-3.459,-3.3343,-3.2649,-3.2192,-3.1684,-3.136,-3.119,-3.119,-3.0666,-2.9922,-2.9179,-2.8399,-2.7604,-2.686,-2.6691,-2.6691,-2.6691,-2.6691,-2.6691,-2.6691,-2.7131,-2.7367,-2.708,0.0,0.0,0.0,-2.9313,-2.9786,-3.1038,-3.119,-3.1004,-3.048,-3.0732,0.0,0.0,0.0,0.0,0.0,0.0,0.0,0.0,0.0,0.0,0.0,-2.3026,-2.2179,-2.1695,-2.15,-2.1859,-2.2703,-2.2882,-2.3212,-2.3595,-2.3595,-2.3595,-2.3595,-2.3595,-2.3595,-2.3595,-2.3595,-2.3595,-2.3595,-2.3595,-2.3595,-2.3595,-4.4185,-4.3426,-4.2564,-4.1157,-4.049,-4.0121,-4.0121,-4.0121,-4.0121,-4.0121,-4.0121,-4.0336,-4.0833,-4.1446,-4.1556,-4.0972,-4.1468,-4.181,-4.181,-4.238,-4.2711,0.0,0.0,-4.2711,-4.2711,-4.2711,-4.2711,-4.2711,0.0,0.0,-4.3497,0.0,-4.2024,-4.0868,-4.0886,-4.0607,-4.0079,-4.0079,-4.0079,-4.0011,-3.9276,-3.8971,-3.8802,-3.7354,-3.6795,-3.6694,-3.5893,-3.56,-3.56,-3.56,-3.5583,-3.5447,-3.4709,-3.3478,-3.2293,-3.2293,-3.1769,-3.119,-3.119,-3.0666,-2.9922,-2.9179,-2.8399,-2.7604,-2.686,-2.6691,-2.6691,-2.6691,-2.6691,-2.6691,-2.6691,-2.6725,-2.6945,-2.7672,0.0,0.0,0.0,-3.0091,-3.0362,-3.1106,-3.119,-3.119,-3.119,-3.0658,0.0,0.0,0.0,0.0,0.0,0.0,0.0,-2.5659,-2.4963,0.0,-2.3625,-2.2353,-2.171,-2.168,-2.1036,-2.141,-2.2718,-2.331,-2.3595,-2.3595,-2.3595,-2.3595,-2.3595,-2.3595,-2.3595,-2.3595,-2.3595,-2.3595,-2.3595,-2.3595,-2.3595,-2.3595,-4.2027,-4.1708,-4.1314,-4.05,-4.0204,-4.0096,-4.0096,-4.0096,-4.0096,-4.0096,-4.0096,-4.0171,-4.0336,-4.0538,-4.0546,0.0,-4.085,-4.1201,0.0,-4.175,-4.2101,-4.2101,-4.2101,-4.2101,-4.2101,-4.2101,-4.2101,-4.2101,0.0,0.0,0.0,-4.1538,-4.1082,-4.0343,-4.0343,-4.0262,-4.0096,-4.0096,-4.0096,-4.0079,-3.9842,-3.9453,-3.8937,-3.8464,-3.7692,-3.6778,-3.6524,-3.6079,-3.56,-3.56,-3.56,-3.5549,-3.5312,-3.459,-3.3613,-3.2598,-3.2141,-3.1853,-3.1345,-3.1021,-3.0548,-2.9314,-2.8807,-2.8264,-2.6979,-2.6691,-2.6691,-2.6691,-2.6691,-2.6691,-2.6691,-2.6691,-2.6776,-2.7012,-2.7469,0.0,-2.9194,0.0,-3.0192,-3.0429,-3.0886,-3.0801,-2.9805,-3.0075,0.0,0.0,0.0,0.0,0.0,0.0,0.0,0.0,-2.4522,0.0,-2.3002,-2.2583,-2.1919,-2.1017,-2.1276,-2.1844,-2.2718,-2.331,-2.3595,-2.3595,-2.3595,-2.3595,-2.3595,-2.3595,-2.3595,-2.3595,-2.3595,-2.3595,-2.3595,-2.3595,-2.3595,-2.3595,-4.1071,-4.1145,-4.1174,-4.0603,-4.0282,-4.0197,-4.046,-4.0282,-4.0096,-4.0096,-4.0096,-4.0096,-4.0096,-4.0096,0.0,-4.0096,-4.0417,-4.0601,-4.0601,-4.1133,-4.1468,-4.1468,-4.1468,-4.1468,-4.1468,-4.1468,0.0,-4.1468,-4.1686,-4.149,-4.0903,-4.0903,-4.0607,-4.0096,-4.0096,-4.0096,-4.0096,-4.0096,-4.0096,-4.0096,-4.0096,-3.9825,-3.9377,-3.9106,-3.8413,-3.7557,-3.6998,-3.6468,-3.6011,-3.5701,-3.56,-3.56,-3.56,-3.5278,-3.4675,-3.3495,-3.2733,-3.2209,-3.1752,-3.141,-3.0903,-2.9702,-2.9213,-2.8604,-2.7046,-2.6691,-2.6691,-2.6691,-2.6691,-2.6691,-2.6691,-2.6928,-2.7114,-2.7114,-2.7994,-2.8838,-2.933,0.0,-3.0412,0.0,0.0,0.0,0.0,-2.9127,-2.9106,0.0,0.0,0.0,0.0,0.0,0.0,-2.5241,-2.3954,0.0,-2.2703,-2.2209,-2.165,-2.1077,-2.1754,-2.2418,-2.3062,-2.343,-2.3595,-2.3595,-2.3595,-2.3595,-2.3595,-2.3595,-2.3595,-2.3595,-2.3595,-2.3595,-2.3595,-2.3595,-2.3595,-2.364,-4.1227,-4.1587,-4.1928,0.0,-4.0663,0.0,-4.1102,-4.0561,-4.0096,-4.0096,-4.0096,-4.0096,-4.0096,-4.0096,-4.0096,-4.0096,0.0,0.0,0.0,-4.0577,-4.0833,-4.0833,-4.0833,-4.0833,-4.0833,-4.0833,-4.0833,-4.0833,-4.1402,-4.1402,-4.0833,-4.0833,-4.0577,-4.0096,-4.0096,-4.0096,-4.0096,-4.0096,-4.0096,-4.0096,-4.0096,-4.0096,-4.0028,-3.9351,-3.9039,-3.8802,-3.7455,-3.6897,-3.6694,-3.5943,-3.565,-3.56,-3.56,-3.56,-3.5447,-3.4726,-3.3495,-3.2361,-3.231,-3.1769,-3.1021,-3.0294,-2.9499,-2.8553,-2.7097,-2.6725,-2.6691,-2.6691,-2.6691,-2.6708,-2.6759,-2.7334,-2.7824,-2.7874,-2.9125,-3.0108,-3.0108,-3.0683,-3.0852,0.0,0.0,0.0,0.0,-2.8008,-2.7622,0.0,0.0,0.0,0.0,0.0,-2.5217,-2.4545,-2.337,-2.2748,-2.2703,-2.15,-2.1196,-2.1844,-2.2463,-2.3062,-2.3595,-2.3595,-2.3595,-2.3595,-2.3595,-2.3595,-2.3595,-2.3595,-2.3595,-2.3595,-2.3595,-2.3595,-2.3595,-2.3595,-2.3625,-2.3759,0.0,0.0,-4.22,-4.2059,-4.1424,-4.1001,-4.117,-4.0561,-4.0096,-4.0096,-4.0096,-4.0096,-4.0096,-4.0096,-4.0096,-4.0096,-4.0096,-4.0096,-4.0096,-4.0229,-4.0286,-4.0286,-4.0286,-4.0286,-4.0286,-4.0286,-4.0286,-4.0286,-4.0417,-4.0417,-4.0286,-4.0286,-4.0229,-4.0096,-4.0096,-4.0096,-4.0096,-4.0096,-4.0096,-4.0096,-4.0096,-4.0096,-4.0079,-3.991,-3.9503,-3.8937,-3.8599,-3.776,-3.6778,-3.6592,-3.6113,-3.56,-3.56,-3.56,-3.5447,-3.4726,-3.3846,-3.3017,-3.2462,-3.1769,-3.1021,-3.0294,-2.9075,-2.7993,-2.7621,-2.7114,-2.6691,-2.6691,-2.6691,-2.686,-2.7435,-2.7689,-2.7993,-2.8619,-2.9499,-3.0108,-3.0108,-3.026,-3.0091,0.0,-2.8896,-2.8379,-2.7663,-2.7508,-2.7335,0.0,0.0,0.0,0.0,-2.4844,-2.453,-2.3864,-2.3535,-2.3182,-2.2703,-2.2832,-2.2996,-2.3146,-2.331,-2.346,-2.3595,-2.3595,-2.3595,-2.3595,-2.3595,-2.3595,-2.3595,-2.3595,-2.3595,-2.3595,-2.3595,-2.3595,-2.3595,-2.3595,-2.3924,-2.4395,-4.2219,-4.2574,-4.2811,-4.2811,-4.1914,-4.1322,-4.1644,-4.0807,-4.0096,-4.0096,-4.0096,-4.0096,-4.0096,-4.0096,-4.0096,-4.0096,-4.0096,-4.0096,-4.0096,-4.0096,-4.0096,-4.0096,-4.0096,-4.0096,-4.0096,-4.0096,-4.0096,-4.0096,-4.0096,-4.0096,-4.0096,-4.0096,-4.0096,-4.0096,-4.0096,-4.0096,-4.0096,-4.0096,-4.0096,-4.0096,-4.0096,-4.0096,-4.0096,-4.0096,-3.9859,-3.9469,-3.9106,-3.8481,-3.7709,-3.7032,-3.6524,-3.6079,-3.5718,-3.56,-3.5515,-3.5131,-3.4489,-3.3744,-3.3,-3.2276,-3.1427,-3.0378,-2.9228,-2.8264,-2.7874,-2.7232,-2.6691,-2.6691,-2.6691,-2.6928,-2.7655,-2.8094,-2.8602,-2.9381,-3.0125,-3.0598,-3.0598,-3.0311,0.0,-2.8747,-2.8085,-2.7342,-2.6422,-2.6183,-2.6068,-2.6092,-2.5553,0.0,-2.4634,-2.4306,-2.3984,-2.361,-2.3325,-2.3167,-2.3122,-2.343,-2.346,-2.3176,-2.346,-2.3595,-2.3595,-2.3595,-2.3595,-2.3595,-2.3595,-2.3595,-2.3595,-2.3595,-2.3595,-2.3595,-2.3595,-2.3595,-2.3595,-2.3595,-2.4007,-2.4649,-4.2608,-4.3149,-4.3589,-4.3589,-4.2455,-4.1711,-4.2219,-4.1145,-4.0231,-4.0113,-4.0096,-4.0096,-4.0096,-4.0096,-4.0096,-4.0096,-4.0096,-4.0096,-4.0096,-4.0096,-4.0096,-4.0096,-4.0096,-4.0096,-4.0096,-4.0096,-4.0096,-4.0096,-4.0096,-4.0096,-4.0096,-4.0096,-4.0096,-4.0096,-4.0096,-4.0096,-4.0096,-4.0096,-4.0096,-4.0096,-4.0096,-4.0096,-4.0096,-4.0096,-4.0096,-4.0028,-3.9402,-3.9089,-3.8802,-3.7557,-3.6981,-3.6694,-3.6011,-3.5701,-3.56,-3.56,-3.5165,-3.4506,-3.3778,-3.2933,-3.1972,-3.0615,-2.9702,-2.8958,-2.8145,-2.7384,-2.6826,-2.6708,-2.6793,-2.7097,-2.7841,-2.8636,-2.9431,-3.0294,-3.0869,-3.1241,-3.1343,0.0,-2.9405,-2.8318,-2.7317,-2.6312,-2.5351,-2.4755,-2.467,-2.5249,-2.4343,-2.3969,-2.4425,-2.3924,-2.3595,-2.3595,-2.3107,-2.3092,-2.3595,-2.3595,-2.3325,-2.2838,-2.3355,-2.3595,-2.3595,-2.3595,-2.3551,-2.3465,-2.3551,-2.3551,-2.3465,-2.3551,-2.3551,-2.3465,-2.3465,-2.3465,-2.348,-2.3569,-2.4089,-2.4844,-4.4124,-4.4344,-4.4401,-4.4401,-4.3656,-4.2895,-4.2371,-4.1576,-4.0798,-4.018,-4.0096,-4.0096,-4.0096,-4.0096,-4.0096,-4.0096,-4.0096,-4.0096,-4.0096,-4.0096,-4.0096,-4.0096,-4.0096,-4.0096,-4.0096,-4.0096,-4.0096,-4.0096,-4.0096,-4.0096,-4.0096,-4.0096,-4.0096,-4.0096,-4.0096,-4.0096,-4.0096,-4.0096,-4.0096,-4.0096,-4.0096,-4.0096,-4.0096,-4.0096,-4.0096,-4.0096,-3.9977,-3.9537,-3.8954,-3.8734,-3.7845,-3.6778,-3.666,-3.6146,-3.56,-3.56,-3.5515,-3.5261,-3.4523,-3.3343,-3.2107,-3.1241,-3.048,-2.9736,-2.8993,-2.8197,-2.7452,-2.6826,-2.7199,-2.7858,-2.8671,-2.9414,-3.0378,-3.1752,-3.1532,-3.141,-3.2039,0.0,-2.8423,-2.8213,-2.6206,-2.4748,-2.458,-2.4557,-2.4402,-2.3939,-2.4231,-2.4231,-2.3789,-2.3655,-2.3595,-2.3595,-2.3505,-2.3505,-2.3595,-2.3595,-2.355,-2.346,-2.355,-2.3595,-2.3595,-2.3595,-2.3334,-2.2875,-2.3377,-2.3312,-2.2875,-2.3399,-2.3312,-2.283,-2.283,-2.283,-2.2902,-2.3484,-2.4437,-2.5555,-4.4445,-4.4248,-4.4079,-4.453,-4.3284,-4.2236,-4.2286,-4.1322,-4.0476,-4.0146,-4.0096,-4.0096,-4.0096,-4.0096,-4.0096,-4.0096,-4.0096,-4.0096,-4.0096,-4.0096,-4.0096,-4.0096,-4.0096,-4.0096,-4.0096,-4.0096,-4.0096,-4.0096,-4.0096,-4.0096,-4.0096,-4.0096,-4.0096,-4.0096,-4.0096,-4.0096,-4.0096,-4.0096,-4.0096,-4.0096,-4.0096,-4.0096,-4.0096,-4.0096,-4.0096,-4.0096,-4.0096,-3.9893,-3.9537,-3.9123,-3.8278,-3.7313,-3.6931,-3.6248,-3.56,-3.56,-3.5312,-3.4861,-3.4117,-3.3119,-3.2124,-3.1376,-3.0649,-3.0023,-2.9668,-2.8991,-2.8349,-2.8011,-2.8197,-2.8687,-2.9448,-2.9871,-3.0446,-3.1532,-3.141,0.0,0.0,-2.9264,-2.7853,-2.6852,-2.5365,-2.4302,-2.3991,-2.4031,-2.3939,-2.3625,-2.3894,-2.3939,-2.361,-2.3595,-2.3595,-2.3595,-2.3595,-2.3595,-2.3595,-2.3595,-2.3595,-2.3595,-2.3595,-2.3595,-2.3595,-2.3253,-2.3131,-2.3152,-2.3512,-2.3452,-2.3175,-2.3866,-2.3754,-2.3129,-2.3129,-2.3117,-2.3178,-2.3865,-2.4723,-2.5604,-4.4496,-4.4096,-4.3876,-4.4496,-4.3132,-4.2066,-4.2252,-4.1348,-4.0502,-4.0146,-4.0096,-4.0096,-4.0096,-4.0096,-4.0096,-4.0096,-4.0096,-4.0096,-4.0096,-4.0096,-4.0096,-4.0096,-4.0096,-4.0096,-4.0096,-4.0096,-4.0096,-4.0096,-4.0096,-4.0096,-4.0096,-4.0096,-4.0096,-4.0096,-4.0096,-4.0096,-4.0096,-4.0096,-4.0096,-4.0096,-4.0096,-4.0096,-4.0096,-4.0096,-4.0096,-4.0096,-4.0096,-4.0096,-4.0011,-3.9453,-3.8768,-3.8024,-3.728,-3.6518,-3.5836,-3.565,-3.5199,-3.459,-3.3863,-3.3119,-3.2378,-3.165,-3.0903,-3.0311,-3.0142,-2.9651,-2.9213,-2.9044,-2.9019,-2.9213,-2.9801,-3.0034,-3.0387,-3.113,0.0,0.0,0.0,-2.8659,-2.7389,-2.5701,-2.474,-2.4053,-2.3638,-2.3595,-2.3595,-2.3595,-2.3595,-2.3595,-2.3595,-2.3595,-2.3595,-2.3595,-2.3595,-2.3595,-2.3595,-2.3595,-2.3595,-2.3595,-2.3595,-2.3684,-2.3812,-2.3175,-2.3116,-2.3524,-2.3582,-2.3486,-2.3315,-2.4003,-2.3908,-2.3228,-2.3228,-2.3222,-2.3251,-2.397,-2.4796,-2.5506,-4.4598,-4.4564,-4.4547,-4.4598,-4.4462,-4.3904,-4.2506,-4.2202,-4.1653,-4.0282,-4.0096,-4.0096,-4.0096,-4.0096,-4.0096,-4.0096,-4.0096,-4.0096,-4.0096,-4.0096,-4.0096,-4.0096,-4.0096,-4.0096,-4.0096,-4.0096,-4.0096,-4.0096,-4.0096,-4.0096,-4.0096,-4.0096,-4.0096,-4.0096,-4.0096,-4.0096,-4.0096,-4.0096,-4.0096,-4.0096,-4.0096,-4.0096,-4.0096,-4.0096,-4.0096,-4.0096,-4.0096,-4.0096,-4.0096,-4.0045,-3.9537,-3.8785,-3.8058,-3.7313,-3.6575,-3.5802,-3.5566,-3.5346,-3.4624,-3.388,-3.3136,-3.2412,-3.1667,-3.0937,-3.026,-3.0074,-2.9837,-2.9145,-2.9087,-2.92,-2.9266,-2.9828,-3.0521,-3.1274,0.0,0.0,-3.0398,-2.8669,-2.6965,-2.5659,-2.4402,-2.3638,-2.3595,-2.3595,-2.3595,-2.3595,-2.3595,-2.3595,-2.3595,-2.3595,-2.3595,-2.3595,-2.3595,-2.3595,-2.3595,-2.3595,-2.3595,-2.3595,-2.3595,-2.3939,-2.4507,-2.376,-2.3508,-2.3585,-2.3466,-2.3065,-2.2538,-2.3208,-2.3104,-2.2485,-2.2485,-2.2484,-2.2563,-2.3228,-2.4337,-2.55,-4.4615,-4.4198,-4.4012,-4.4513,-4.3819,-4.3115,-4.3014,-4.2219,-4.1424,-4.0849,-4.0383,-4.0096,-4.0096,-4.0096,-4.0096,-4.0096,-4.0096,-4.0096,-4.0096,-4.0096,-4.0096,-4.0096,-4.0096,-4.0096,-4.0096,-4.0096,-4.0096,-4.0096,-4.0096,-4.0096,-4.0096,-4.0096,-4.0096,-4.0096,-4.0096,-4.0096,-4.0096,-4.0096,-4.0096,-4.0096,-4.0096,-4.0096,-4.0096,-4.0096,-4.0096,-4.0096,-4.0096,-4.0096,-4.0096,-4.0096,-3.9622,-3.8937,-3.8667,-3.7753,-3.6643,-3.5836,-3.56,-3.5532,-3.5267,-3.432,-3.322,-3.2479,-3.1752,-3.1123,-3.0852,-3.0784,-3.07,-3.0431,-3.0119,-2.9881,-2.9881,-2.9799,-2.9696,-2.9567,0.0,-2.9345,-2.7613,-2.6995,-2.6122,-2.4527,-2.3896,-2.3595,-2.3595,-2.3595,-2.3595,-2.3595,-2.3595,-2.3595,-2.3595,-2.3595,-2.3595,-2.3595,-2.3595,-2.3595,-2.3595,-2.3595,-2.3819,-2.4216,-2.4216,-2.456,-2.5194,-2.4065,-2.3766,-2.4075,-2.3608,-2.3243,-2.2997,-2.3742,-2.3608,-2.2955,-2.2968,-2.2924,-2.2917,-2.3699,-2.4304,-2.475,-4.4615,-4.4147,-4.3944,-4.4513,-4.3735,-4.3098,-4.3341,-4.2354,-4.1457,-4.1238,-4.0544,-4.0096,-4.0096,-4.0096,-4.0096,-4.0096,-4.0096,-4.0096,-4.0096,-4.0096,-4.0096,-4.0096,-4.0096,-4.0096,-4.0096,-4.0096,-4.0096,-4.0096,-4.0096,-4.0096,-4.0096,-4.0096,-4.0096,-4.0096,-4.0096,-4.0096,-4.0096,-4.0096,-4.0096,-4.0096,-4.0096,-4.0096,-4.0096,-4.0096,-4.0096,-4.0096,-4.0096,-4.0096,-4.0096,-4.0096,-3.9774,-3.9292,-3.9056,-3.7997,-3.6643,-3.5836,-3.56,-3.56,-3.56,-3.4518,-3.3288,-3.2763,-3.1918,-3.119,-3.119,-3.119,-3.119,-3.119,-3.0559,-2.9956,-2.9749,-2.9225,-2.8586,-2.7916,-2.8273,-2.7895,-2.5816,-2.5811,-2.5456,-2.3799,-2.3595,-2.3595,-2.3595,-2.3595,-2.3595,-2.3595,-2.3595,-2.3595,-2.3595,-2.3595,-2.3595,-2.3595,-2.3595,-2.3699,-2.3924,-2.3924,-2.4142,-2.4566,-2.4566,-2.4929,-2.5525,-2.4149,-2.3958,-2.4668,-2.3715,-2.3275,-2.3275,-2.3786,-2.3674,-2.3246,-2.3243,-2.3169,-2.3168,-2.3708,-2.4089,-2.4263,-4.4615,-4.4615,-4.4615,-4.4615,-4.4615,-4.4316,-4.3511,-4.2777,-4.2033,-4.1305,-4.0544,-4.0096,-4.0096,-4.0096,-4.0096,-4.0096,-4.0096,-4.0096,-4.0096,-4.0096,-4.0096,-4.0096,-4.0096,-4.0096,-4.0096,-4.0096,-4.0096,-4.0096,-4.0096,-4.0096,-4.0096,-4.0096,-4.0096,-4.0096,-4.0096,-4.0096,-4.0096,-4.0096,-4.0096,-4.0096,-4.0096,-4.0096,-4.0096,-4.0096,-4.0096,-4.0096,-4.0096,-4.0096,-4.0096,-4.0096,-4.0096,-3.9977,-3.9249,-3.7997,-3.666,-3.5836,-3.56,-3.56,-3.56,-3.4518,-3.3406,-3.3406,-3.229,-3.119,-3.119,-3.119,-3.119,-3.119,-3.023,-2.9204,-2.8527,-2.7917,-2.7286,-2.6588,-2.7005,-2.694,-2.5654,-2.5497,-2.5016,-2.3756,-2.3595,-2.3595,-2.3595,-2.3595,-2.3595,-2.3595,-2.3595,-2.3595,-2.3595,-2.3595,-2.3595,-2.361,-2.361,-2.3939,-2.4619,-2.4605,-2.4557,-2.4507,-2.4507,-2.4837,-2.5454,-2.3974,-2.4063,-2.5315,-2.3754,-2.3108,-2.3108,-2.3108,-2.3108,-2.3108,-2.3108,-2.3108,-2.3108,-2.3108,-2.3603,-2.4176,-4.4615,-4.4615,-4.4615,-4.4615,-4.4615,-4.453,-4.4265,-4.3132,-4.2219,-4.1999,-4.0891,-4.0096,-4.0096,-4.0096,-4.0096,-4.0096,-4.0096,-4.0096,-4.0096,-4.0096,-4.0096,-4.0096,-4.0096,-4.0096,-4.0096,-4.0096,-4.0096,-4.0096,-4.0096,-4.0096,-4.0096,-4.0096,-4.0096,-4.0096,-4.0096,-4.0096,-4.0096,-4.0096,-4.0096,-4.0096,-4.0096,-4.0096,-4.0096,-4.0096,-4.0096,-4.0096,-4.0096,-4.0096,-4.0096,-4.0096,-4.0096,-3.9893,-3.8616,-3.7922,-3.7313,-3.5988,-3.56,-3.5492,-3.5028,-3.4549,-3.4049,-3.3541,-3.229,-3.1075,-3.0679,-3.0898,-3.1075,-3.0658,-2.9951,-2.9342,-2.914,-2.8264,-2.7204,-2.6068,-2.6355,-2.6113,-2.4398,-2.4506,-2.4435,-2.3674,-2.3595,-2.3595,-2.3595,-2.3595,-2.3595,-2.3595,-2.3595,-2.3595,-2.3595,-2.3595,-2.3819,-2.4291,-2.4291,-2.4844,-2.5989,-2.4558,-2.4274,-2.5193,-2.4693,-2.478,-2.5394,-2.4427,-2.4235,-2.4567,-2.3531,-2.3108,-2.3108,-2.3108,-2.3108,-2.3108,-2.3108,-2.3108,-2.3108,-2.3108,-2.3245,-2.3424,-4.4615,-4.4615,-4.4615,-4.4615,-4.4615,-4.4496,-4.4164,-4.3081,-4.2185,-4.1897,-4.084,-4.0096,-4.0096,-4.0096,-4.0096,-4.0096,-4.0096,-4.0096,-4.0096,-4.0096,-4.0096,-4.0096,-4.0096,-4.0096,-4.0096,-4.0096,-4.0096,-4.0096,-4.0096,-4.0096,-4.0096,-4.0096,-4.0096,-4.0096,-4.0096,-4.0096,-4.0096,-4.0096,-4.0096,-4.0096,-4.0096,-4.0096,-4.0096,-4.0096,-4.0096,-4.0096,-4.0096,-4.0096,-4.0096,-4.0096,-4.0096,-3.9842,-3.8362,-3.7905,-3.7601,-3.6039,-3.5407,-3.5121,-3.4712,-3.4159,-3.3603,-3.3111,-3.2307,-3.1409,-3.0501,-3.058,-3.0679,-3.0081,-2.9451,-2.8963,-2.8702,-2.7856,-2.6866,-2.5779,-2.5863,-2.569,-2.4552,-2.466,-2.4754,-2.4432,-2.4163,-2.4103,-2.4373,-2.3909,-2.3595,-2.3595,-2.3595,-2.3714,-2.3984,-2.4014,-2.4291,-2.4963,-2.4993,-2.5501,-2.6572,-2.5077,-2.4683,-2.5447,-2.502,-2.4861,-2.4922,-2.4163,-2.4002,-2.4263,-2.3454,-2.3108,-2.3108,-2.3108,-2.3108,-2.3108,-2.3108,-2.3108,-2.3108,-2.3108,-2.3108,-2.3108,-4.4615,-4.4615,-4.4615,-4.4615,-4.4615,-4.4333,-4.3639,-4.2878,-4.2151,-4.1491,-4.0747,-4.0299,-4.0299,-4.0248,-4.0197,-4.0197,-4.0146,-4.0096,-4.0096,-4.0096,-4.0096,-4.0096,-4.0096,-4.0096,-4.0096,-4.0096,-4.0096,-4.0096,-4.0096,-4.0096,-4.0096,-4.0096,-4.0096,-4.0096,-4.0096,-4.0096,-4.0096,-4.0096,-4.0096,-4.0096,-4.0096,-4.0096,-4.0096,-4.0096,-4.0096,-4.0096,-4.0096,-4.0096,-4.0096,-4.0096,-4.0096,-3.9834,-3.8357,-3.7843,-3.7506,-3.5969,-3.5031,-3.4503,-3.4431,-3.3518,-3.2544,-3.2362,-3.2265,-3.1892,-3.0516,-3.0251,-3.0123,-2.9451,-2.8873,-2.831,-2.7705,-2.7089,-2.6467,-2.5809,-2.5689,-2.5674,-2.5615,-2.5615,-2.5615,-2.5615,-2.5053,-2.4933,-2.5555,-2.4507,-2.3774,-2.3774,-2.3774,-2.4059,-2.4664,-2.4694,-2.4993,-2.5674,-2.5689,-2.6019,-2.6677,-2.6023,-2.5578,-2.5398,-2.5315,-2.4894,-2.4176,-2.3424,-2.3514,-2.4147,-2.3424,-2.3108,-2.3108,-2.3108,-2.3108,-2.3108,-2.3108,-2.3108,-2.3108,-2.3108,-2.3108,-2.3108,-4.4615,-4.4615,-4.4615,-4.4615,-4.4615,-4.4547,-4.4378,-4.3673,-4.3088,-4.2936,-4.2286,-4.1813,-4.1813,-4.1305,-4.0967,-4.0967,-4.0434,-4.0096,-4.0096,-4.0096,-4.0096,-4.0096,-4.0096,-4.0096,-4.0096,-4.0096,-4.0096,-4.0096,-4.0096,-4.0096,-4.0096,-4.0096,-4.0096,-4.0096,-4.0096,-4.0096,-4.0096,-4.0096,-4.0096,-4.0096,-4.0096,-4.0096,-4.0096,-4.0096,-4.0096,-4.0096,-4.0096,-4.0096,-4.0096,-4.0096,-4.0096,-3.9826,-3.8301,-3.745,-3.6737,-3.5252,-3.4348,-3.371,-3.3172,-3.3176,-3.3096,-3.1907,-3.1661,-3.1299,-2.9903,-2.9957,-2.9978,-2.8919,-2.8583,-2.8465,-2.831,-2.7805,-2.7165,-2.6482,-2.6378,-2.6198,-2.5674,-2.5615,-2.5615,-2.5615,-2.5457,-2.545,-2.56,-2.5345,-2.5181,-2.5181,-2.5181,-2.5241,-2.5367,-2.5367,-2.5689,-2.6363,-2.6378,-2.6716,-2.7375,-2.7225,-2.6562,-2.5398,-2.4823,-2.4105,-2.3335,-2.3198,-2.3198,-2.3335,-2.3198,-2.3108,-2.3108,-2.3108,-2.3108,-2.3108,-2.3108,-2.3108,-2.3108,-2.3108,-2.3108,-2.3108,-4.4615,-4.4615,-4.4615,-4.4615,-4.4615,-4.4479,-4.4079,-4.3673,-4.3257,-4.2929,-4.254,-4.2286,-4.2286,-4.1948,-4.1576,-4.1238,-4.0536,-4.0096,-4.0096,-4.0096,-4.0096,-4.0096,-4.0096,-4.0096,-4.0096,-4.0096,-4.0096,-4.0096,-4.0096,-4.0096,-4.0096,-4.0096,-4.0096,-4.0096,-4.0096,-4.0096,-4.0096,-4.0096,-4.0096,-4.0096,-4.0096,-4.0096,-4.0096,-4.0096,-4.0096,-4.0096,-4.0096,-4.0096,-4.0096,-4.0096,-3.9833,-3.933,-3.8164,-3.731,-3.647,-3.5022,-3.4101,-3.3406,-3.2773,-3.2598,-3.2412,-3.1592,-3.1431,-3.1083,-2.9753,-2.9441,-2.918,-2.8247,-2.8067,-2.8067,-2.8067,-2.781,-2.748,-2.7136,-2.7091,-2.6956,-2.6587,-2.6542,-2.6542,-2.6542,-2.6273,-2.5959,-2.563,-2.5899,-2.5944,-2.563,-2.5615,-2.5749,-2.6063,-2.6078,-2.6378,-2.7061,-2.7091,-2.7255,-2.76,-2.76,-2.6864,-2.5398,-2.5007,-2.4221,-2.3108,-2.3108,-2.3108,-2.3108,-2.3108,-2.3108,-2.3108,-2.3108,-2.3108,-2.3108,-2.3108,-2.3108,-2.3108,-2.3108,-2.3108,-2.3108,-4.4615,-4.4615,-4.4615,-4.4615,-4.4615,-4.4395,-4.3724,-4.3623,-4.3386,-4.276,-4.2675,-4.2675,-4.2675,-4.2455,-4.1948,-4.1085,-4.0468,-4.0096,-4.0096,-4.0096,-4.0096,-4.0096,-4.0096,-4.0096,-4.0096,-4.0096,-4.0096,-4.0096,-4.0096,-4.0096,-4.0096,-4.0096,-4.0096,-4.0096,-4.0096,-4.0096,-4.0096,-4.0096,-4.0096,-4.0096,-4.0096,-4.0096,-4.007,-3.9952,-3.9901,-3.9901,-3.9901,-3.9901,-3.9876,-3.9731,-3.9358,-3.8755,-3.7878,-3.7192,-3.641,-3.4872,-3.3892,-3.3198,-3.2579,-3.1966,-3.1504,-3.1427,-3.1328,-3.096,-2.9894,-2.9157,-2.8504,-2.7891,-2.7675,-2.76,-2.76,-2.76,-2.76,-2.76,-2.76,-2.76,-2.76,-2.76,-2.76,-2.76,-2.7121,-2.6542,-2.6004,-2.6437,-2.6527,-2.5989,-2.5944,-2.6183,-2.6746,-2.6752,-2.7031,-2.7585,-2.76,-2.7549,-2.7408,-2.7408,-2.6724,-2.5354,-2.5354,-2.4574,-2.3108,-2.3108,-2.3108,-2.3108,-2.3108,-2.3108,-2.3108,-2.3108,-2.3108,-2.3108,-2.3108,-2.3108,-2.3108,-2.3108,-2.3108,-2.3108,-4.4615,-4.4615,-4.4615,-4.4615,-4.4615,-4.4564,-4.4462,-4.4445,-4.4412,-4.431,-4.4293,-4.4293,-4.4293,-4.3108,-4.1754,-4.0383,-4.0163,-4.0096,-4.0096,-4.0096,-4.0096,-4.0096,-4.0096,-4.0096,-4.0096,-4.0096,-4.0096,-4.0096,-4.0096,-4.0096,-4.0096,-4.0096,-4.0096,-4.0096,-4.0096,-4.0096,-4.0096,-4.0096,-4.0096,-4.0096,-4.0096,-4.0096,-4.002,-3.9342,-3.9059,-3.9059,-3.9059,-3.9059,-3.8962,-3.8318,-3.8442,-3.8657,-3.7225,-3.6782,-3.6377,-3.4269,-3.3171,-3.2495,-3.1849,-3.1582,-3.1509,-3.1491,-3.1039,-3.0586,-3.0406,-2.9846,-2.9187,-2.8572,-2.8004,-2.76,-2.76,-2.76,-2.76,-2.76,-2.76,-2.76,-2.76,-2.76,-2.76,-2.76,-2.7525,-2.742,-2.7345,-2.7405,-2.742,-2.7345,-2.733,-2.7375,-2.7465,-2.7465,-2.751,-2.76,-2.76,-2.7306,-2.6669,-2.6642,-2.6132,-2.515,-2.515,-2.4411,-2.3108,-2.3108,-2.3108,-2.3108,-2.3108,-2.3108,-2.3108,-2.3108,-2.3108,-2.3108,-2.3108,-2.3108,-2.3108,-2.3108,-2.3108,-2.3108,-4.4615,-4.4615,-4.4615,-4.4615,-4.4615,-4.4615,-4.4615,-4.4615,-4.4615,-4.4615,-4.4615,-4.4615,-4.4615,-4.3227,-4.2033,-4.1399,-4.0587,-4.0096,-4.0096,-4.0096,-4.0096,-4.0096,-4.0096,-4.0096,-4.0096,-4.0096,-4.0096,-4.0096,-4.0096,-4.0096,-4.0096,-4.0096,-4.0096,-4.0096,-4.0096,-4.0096,-4.0096,-4.0096,-4.0096,-4.0045,-3.961,-3.9437,-3.9342,-3.8596,-3.829,-3.829,-3.829,-3.829,-3.8234,-3.7892,-3.7732,-3.7496,-3.6797,-3.6368,-3.5722,-3.3999,-3.329,-3.2841,-3.178,-3.1511,-3.1511,-3.1511,-3.1271,-3.1047,-3.1047,-3.0548,-2.9777,-2.8794,-2.8353,-2.8049,-2.766,-2.76,-2.76,-2.76,-2.76,-2.76,-2.76,-2.76,-2.76,-2.76,-2.76,-2.76,-2.76,-2.76,-2.76,-2.76,-2.76,-2.76,-2.76,-2.76,-2.76,-2.76,-2.76,-2.7255,-2.651,-2.651,-2.6036,-2.509,-2.509,-2.4719,-2.4036,-2.3722,-2.3584,-2.3572,-2.3246,-2.3108,-2.3108,-2.3108,-2.3108,-2.3108,-2.3108,-2.3108,-2.3108,-2.3108,-2.3108,-2.3108]},{"header":{"parameterUnit":"m.s-1","parameterCategory":1,"la1":30.6,"la2":28.766,"lo1":-90.7593,"lo2":-88.6598,"dy":0.0162,"dx":0.0183,"nx":116,"ny":114,"refTime":"2024-06-01T06:00:00:Z","depth":0,"parameterNumber":3,"parameterNumberName":"V-component_of_WINDS"},"data":[0.0,0.0,0.0,0.0,0.0,0.0,0.0,0.0,0.0,0.0,0.0,0.0,0.0,0.0,0.0,0.0,0.0,0.0,0.0,0.0,0.0,0.0,0.0,0.0,0.0,0.0,0.0,0.0,0.0,0.0,0.0,0.0,0.0,0.0,0.0,0.0,0.0,0.0,0.0,0.0,0.0,0.0,0.0,0.0,0.0,0.0,0.0,0.0,0.0,0.0,0.0,0.0,0.0,0.0,0.0,0.0,0.0,0.0,0.0,0.0,0.0,0.0,0.0,0.0,0.0,0.0,0.0,0.0,0.0,0.0,0.0,0.0,0.0,0.0,0.0,0.0,0.0,0.0,0.0,0.0,0.0,0.0,0.0,0.0,0.0,0.0,0.0,0.0,0.0,0.0,0.0,0.0,0.0,0.0,0.0,0.0,0.0,0.0,0.0,0.0,0.0,0.0,0.0,0.0,0.0,0.0,0.0,0.0,0.0,0.0,0.0,0.0,0.0,0.0,0.0,0.0,0.0,0.0,0.0,0.0,0.0,0.0,0.0,0.0,0.0,0.0,0.0,0.0,0.0,0.0,0.0,0.0,0.0,0.0,0.0,0.0,0.0,0.0,0.0,0.0,0.0,0.0,0.0,0.0,0.0,0.0,0.0,0.0,0.0,0.0,0.0,0.0,0.0,0.0,0.0,0.0,0.0,0.0,0.0,0.0,0.0,0.0,0.0,0.0,0.0,0.0,0.0,0.0,0.0,0.0,0.0,0.0,0.0,0.0,0.0,0.0,0.0,0.0,0.0,0.0,0.0,0.0,0.0,0.0,0.0,0.0,0.0,0.0,0.0,0.0,0.0,0.0,0.0,0.0,0.0,0.0,0.0,0.0,0.0,0.0,0.0,0.0,0.0,0.0,0.0,0.0,0.0,0.0,0.0,0.0,0.0,0.0,0.0,0.0,0.0,0.0,0.0,0.0,0.0,0.0,0.0,0.0,0.0,0.0,0.0,0.0,0.0,0.0,0.0,0.0,0.0,0.0,0.0,0.0,0.0,0.0,0.0,0.0,0.0,0.0,0.0,0.0,0.0,0.0,0.0,0.0,0.0,0.0,0.0,0.0,0.0,0.0,0.0,0.0,0.0,0.0,0.0,0.0,0.0,0.0,0.0,0.0,0.0,0.0,0.0,0.0,0.0,0.0,0.0,0.0,0.0,0.0,0.0,0.0,0.0,0.0,0.0,0.0,0.0,0.0,0.0,0.0,0.0,0.0,0.0,0.0,0.0,0.0,0.0,0.0,0.0,0.0,0.0,0.0,0.0,0.0,0.0,0.0,0.0,0.0,0.0,0.0,0.0,0.0,0.0,0.0,0.0,0.0,0.0,0.0,0.0,0.0,0.0,0.0,0.0,0.0,0.0,0.0,0.0,0.0,0.0,0.0,0.0,0.0,0.0,0.0,0.0,0.0,0.0,0.0,0.0,0.0,0.0,0.0,0.0,0.0,0.0,0.0,0.0,0.0,0.0,0.0,0.0,0.0,0.0,0.0,0.0,0.0,0.0,0.0,0.0,0.0,0.0,0.0,0.0,0.0,0.0,0.0,0.0,0.0,0.0,0.0,0.0,0.0,0.0,0.0,0.0,0.0,0.0,0.0,0.0,0.0,0.0,0.0,0.0,0.0,0.0,0.0,0.0,0.0,0.0,0.0,0.0,0.0,0.0,0.0,0.0,0.0,0.0,0.0,0.0,0.0,0.0,0.0,0.0,0.0,0.0,0.0,0.0,0.0,0.0,0.0,0.0,0.0,0.0,0.0,0.0,0.0,0.0,0.0,0.0,0.0,0.0,0.0,0.0,0.0,0.0,0.0,0.0,0.0,0.0,0.0,0.0,0.0,0.0,0.0,0.0,0.0,0.0,0.0,0.0,0.0,0.0,0.0,0.0,0.0,0.0,0.0,0.0,0.0,0.0,0.0,0.0,0.0,0.0,0.0,0.0,0.0,0.0,0.0,0.0,0.0,0.0,0.0,0.0,0.0,0.0,0.0,0.0,0.0,0.0,0.0,0.0,0.0,0.0,0.0,0.0,0.0,0.0,0.0,0.0,0.0,0.0,0.0,0.0,0.0,0.0,0.0,0.0,0.0,0.0,0.0,0.0,0.0,0.0,0.0,0.0,0.0,0.0,0.0,0.0,0.0,0.0,0.0,0.0,0.0,0.0,0.0,0.0,0.0,0.0,0.0,0.0,0.0,0.0,0.0,0.0,0.0,0.0,0.0,0.0,0.0,0.0,0.0,0.0,0.0,0.0,0.0,0.0,0.0,0.0,0.0,0.0,0.0,0.0,0.0,0.0,0.0,0.0,0.0,0.0,0.0,0.0,0.0,0.0,0.0,0.0,0.0,0.0,0.0,0.0,0.0,0.0,0.0,0.0,0.0,0.0,0.0,0.0,0.0,0.0,0.0,0.0,0.0,0.0,0.0,0.0,0.0,0.0,0.0,0.0,0.0,0.0,0.0,0.0,0.0,0.0,0.0,0.0,0.0,0.0,0.0,0.0,0.0,0.0,0.0,0.0,0.0,0.0,0.0,0.0,0.0,0.0,0.0,0.0,0.0,0.0,0.0,0.0,0.0,0.0,0.0,0.0,0.0,0.0,0.0,0.0,0.0,0.0,0.0,0.0,0.0,0.0,0.0,0.0,0.0,0.0,0.0,0.0,0.0,0.0,0.0,0.0,0.0,0.0,0.0,0.0,0.0,0.0,0.0,0.0,0.0,0.0,0.0,0.0,0.0,0.0,0.0,0.0,0.0,0.0,0.0,0.0,0.0,0.0,0.0,0.0,0.0,0.0,0.0,0.0,0.0,0.0,0.0,0.0,0.0,0.0,0.0,0.0,0.0,0.0,0.0,0.0,0.0,0.0,0.0,0.0,0.0,0.0,0.0,0.0,0.0,0.0,0.0,0.0,0.0,0.0,0.0,0.0,0.0,0.0,0.0,0.0,0.0,0.0,0.0,0.0,0.0,0.0,0.0,0.0,0.0,0.0,0.0,0.0,0.0,0.0,0.0,0.0,0.0,0.0,0.0,0.0,0.0,0.0,0.0,0.0,0.0,0.0,0.0,0.0,0.0,0.0,0.0,0.0,0.0,0.0,0.0,0.0,0.0,0.0,0.0,0.0,0.0,0.0,0.0,0.0,0.0,0.0,0.0,0.0,0.0,0.0,0.0,0.0,0.0,0.0,0.0,0.0,0.0,0.0,0.0,0.0,0.0,0.0,0.0,0.0,0.0,0.0,0.0,0.0,0.0,0.0,0.0,0.0,0.0,0.0,0.0,0.0,0.0,0.0,0.0,0.0,0.0,0.0,0.0,0.0,0.0,0.0,0.0,0.0,0.0,0.0,0.0,0.0,0.0,0.0,0.0,0.0,0.0,0.0,0.0,0.0,0.0,0.0,0.0,0.0,0.0,0.0,0.0,0.0,0.0,0.0,0.0,0.0,0.0,0.0,0.0,0.0,0.0,0.0,0.0,0.0,0.0,0.0,0.0,0.0,0.0,0.0,0.0,0.0,0.0,0.0,0.0,0.0,0.0,0.0,0.0,0.0,0.0,0.0,0.0,0.0,0.0,0.0,0.0,0.0,0.0,0.0,0.0,0.0,0.0,0.0,0.0,0.0,0.0,0.0,0.0,0.0,0.0,0.0,0.0,0.0,0.0,0.0,0.0,0.0,0.0,0.0,0.0,0.0,0.0,0.0,0.0,0.0,0.0,0.0,0.0,0.0,0.0,0.0,0.0,0.0,0.0,0.0,0.0,0.0,0.0,0.0,0.0,0.0,0.0,0.0,0.0,0.0,0.0,0.0,0.0,0.0,0.0,0.0,0.0,0.0,0.0,0.0,0.0,0.0,0.0,0.0,0.0,0.0,0.0,0.0,0.0,0.0,0.0,0.0,0.0,0.0,0.0,0.0,0.0,0.0,0.0,0.0,0.0,0.0,0.0,0.0,0.0,0.0,0.0,0.0,0.0,0.0,0.0,0.0,0.0,0.0,0.0,0.0,0.0,0.0,0.0,0.0,0.0,0.0,0.0,0.0,0.0,0.0,0.0,0.0,0.0,0.0,0.0,0.0,0.0,0.0,0.0,0.0,0.0,0.0,0.0,0.0,0.0,0.0,0.0,0.0,0.0,0.0,0.0,0.0,0.0,0.0,0.0,0.0,0.0,0.0,0.0,0.0,0.0,0.0,0.0,0.0,0.0,0.0,0.0,0.0,0.0,0.0,0.0,0.0,0.0,0.0,0.0,0.0,0.0,0.0,0.0,0.0,0.0,0.0,0.0,0.0,0.0,0.0,0.0,0.0,0.0,0.0,0.0,0.0,0.0,0.0,0.0,0.0,0.0,0.0,0.0,0.0,0.0,0.0,0.0,0.0,0.0,0.0,0.0,0.0,0.0,0.0,0.0,0.0,0.0,0.0,0.0,0.0,0.0,0.0,0.0,0.0,0.0,0.0,0.0,0.0,0.0,0.0,0.0,0.0,0.0,0.0,0.0,0.0,0.0,0.0,0.0,0.0,0.0,0.0,0.0,0.0,0.0,0.0,0.0,0.0,0.0,0.0,0.0,0.0,0.0,0.0,0.0,0.0,0.0,0.0,0.0,0.0,0.0,0.0,0.0,0.0,0.0,0.0,0.0,0.0,0.0,0.0,0.0,0.0,0.0,0.0,0.0,0.0,0.0,0.0,0.0,0.0,0.0,0.0,0.0,0.0,0.0,0.0,0.0,0.0,0.0,0.0,0.0,0.0,0.0,0.0,0.0,0.0,0.0,0.0,0.0,0.0,0.0,0.0,0.0,0.0,0.0,0.0,0.0,0.0,0.0,0.0,0.0,0.0,0.0,0.0,0.0,0.0,0.0,0.0,0.0,0.0,0.0,0.0,0.0,0.0,0.0,0.0,0.0,0.0,0.0,0.0,0.0,0.0,0.0,0.0,0.0,0.0,0.0,0.0,0.0,0.0,0.0,0.0,0.0,0.0,0.0,0.0,0.0,0.0,0.0,0.0,0.0,0.0,0.0,0.0,0.0,0.0,0.0,0.0,0.0,0.0,0.0,0.0,0.0,0.0,0.0,0.0,0.0,0.0,0.0,0.0,0.0,0.0,0.0,0.0,0.0,0.0,0.0,0.0,0.0,0.0,0.0,0.0,0.0,0.0,0.0,0.0,0.0,0.0,0.0,0.0,0.0,0.0,0.0,0.0,0.0,0.0,0.0,0.0,0.0,0.0,0.0,0.0,0.0,0.0,0.0,0.0,0.0,0.0,0.0,0.0,0.0,0.0,0.0,0.0,0.0,0.0,0.0,0.0,0.0,0.0,0.0,0.0,0.0,0.0,0.0,0.0,0.0,0.0,0.0,0.0,0.0,0.0,0.0,0.0,0.0,0.0,0.0,0.0,0.0,0.0,0.0,0.0,0.0,0.0,0.0,0.0,0.0,0.0,0.0,0.0,0.0,0.0,0.0,0.0,0.0,0.0,0.0,0.0,0.0,0.0,0.0,0.0,0.0,0.0,0.0,0.0,0.0,0.0,0.0,0.0,0.0,0.0,0.0,0.0,0.0,0.0,0.0,0.0,0.0,0.0,0.0,0.0,0.0,0.0,0.0,0.0,0.0,0.0,0.0,0.0,0.0,0.0,0.0,0.0,0.0,0.0,0.0,0.0,0.0,0.0,0.0,0.0,0.0,0.0,0.0,0.0,0.0,0.0,0.0,0.0,0.0,0.0,0.0,0.0,0.0,0.0,0.0,0.0,0.0,0.0,0.0,0.0,0.0,0.0,0.0,0.0,0.0,0.0,0.0,0.0,0.0,0.0,0.0,0.0,0.0,0.0,0.0,0.0,0.0,0.0,0.0,0.0,0.0,0.0,0.0,0.0,0.0,0.0,0.0,0.0,0.0,0.0,0.0,0.0,0.0,0.0,0.0,0.0,0.0,0.0,0.0,0.0,0.0,0.0,0.0,0.0,0.0,0.0,0.0,0.0,0.0,0.0,0.0,0.0,0.0,0.0,0.0,0.0,0.0,0.0,0.0,0.0,0.0,0.0,0.0,0.0,0.0,0.0,0.0,0.0,0.0,0.0,0.0,0.6402,0.0,0.0,0.0,0.0,0.0,0.0,0.0,0.0,0.0,0.0,0.0,0.0,0.0,0.0,0.0,0.0,0.0,0.0,0.0,0.0,0.0,0.0,0.0,0.0,1.0555,1.0935,1.0827,1.0915,1.0935,1.0827,0.0,0.0,0.0,0.0,0.0,0.9893,0.9437,0.9211,0.9211,0.8918,0.8804,0.8778,0.8017,0.7289,0.6588,0.0,0.0,0.0,0.0,0.0,0.0,0.0,0.0,0.0,0.0,0.0,0.0,0.0,0.0,0.0,0.0,0.0,0.0,0.0,0.0,0.0,0.0,0.0,0.0,0.0,0.0,0.0,0.0,0.0,0.0,0.0,0.0,0.0,0.0,0.0,0.0,0.0,0.0,0.0,0.0,0.0,0.0,0.0,0.0,0.0,0.0,0.0,0.0,0.0,0.0,0.0,0.0,0.0,0.0,0.0,0.0,0.0,0.0,0.0,0.0,0.0,0.0,0.0,0.0,0.0,0.0,0.0,0.0,0.0,0.0,0.0,0.6511,0.0,0.0,0.0,0.0,0.0,0.0,0.0,0.0,0.0,0.0,0.0,0.0,0.0,0.0,0.0,0.0,0.0,0.0,0.0,0.0,0.0,0.9715,0.9715,1.0468,1.0895,1.0687,1.0855,1.0928,1.068,1.062,0.0,0.0,0.0,1.0194,1.0194,0.9699,0.9451,0.9451,0.9132,0.8982,0.8982,0.8857,0.8156,0.6966,0.6858,0.0,0.0,0.0,0.0,0.0,0.0,0.0,0.0,0.0,0.0,0.0,0.0,0.0,0.0,0.0,0.0,0.0,0.0,0.0,0.0,0.0,0.0,0.0,0.0,0.0,0.0,0.0,0.0,0.0,0.0,0.0,0.0,0.0,0.0,0.0,0.0,0.0,0.0,0.0,0.0,0.0,0.0,0.0,0.0,0.0,0.0,0.0,0.0,0.0,0.0,0.0,0.0,0.0,0.0,0.0,0.0,0.0,0.0,0.0,0.0,0.0,0.0,0.0,0.6766,0.6776,0.6776,0.6776,0.6902,0.707,0.686,0.6749,0.6688,0.6536,0.0,0.0,0.0,0.0,0.0,0.0,0.0,0.0,0.0,0.0,0.0,0.0,0.0,0.0,0.0,0.0,0.0,0.0,0.0,0.9715,0.9715,1.0468,1.0982,1.0942,1.0969,1.0975,1.0942,1.0734,0.0,0.0,1.0553,1.0533,1.0533,1.052,1.0507,1.0507,0.9933,0.9666,0.9666,0.9087,0.8699,0.848,0.783,0.7503,0.7369,0.0,0.0,0.0,0.0,0.0,0.0,0.0,0.0,0.0,0.0,0.0,0.0,0.0,0.0,0.0,0.0,0.0,0.0,0.0,0.0,0.0,0.0,0.0,0.0,0.0,0.0,0.0,0.0,0.0,0.0,0.0,0.0,0.0,0.0,0.0,0.0,0.0,0.0,0.0,0.0,0.0,1.2583,1.2325,0.0,0.0,0.0,0.0,0.0,0.0,0.0,0.0,0.0,0.0,0.0,0.0,0.0,0.7946,0.8159,0.7319,0.6856,0.6859,0.698,0.7038,0.7038,0.7038,0.7603,0.8558,0.7516,0.0,0.6688,0.6536,0.0,0.0,0.0,0.0,0.0,0.0,0.0,0.0,0.0,0.0,0.0,0.0,0.0,0.0,0.0,0.0,0.0,0.0,0.0,0.0,0.0,1.0221,1.0713,1.0514,1.1023,1.1369,1.1425,1.1543,1.1722,1.1927,1.1942,1.1942,1.1942,1.156,1.1182,1.0769,1.0488,1.0364,1.0364,1.0064,0.971,0.9361,0.9033,0.8428,0.767,0.7343,0.0,0.0,0.0,0.0,0.0,0.0,0.0,0.0,0.0,0.0,0.0,0.0,0.0,0.0,0.0,0.0,0.0,0.0,0.0,0.0,0.0,0.0,0.0,0.0,0.0,0.0,0.0,0.0,0.0,0.0,0.0,0.0,0.0,0.0,0.0,0.0,0.0,0.0,0.0,1.2435,1.2677,1.2338,1.2603,1.2663,0.0,0.0,0.0,0.0,0.0,0.0,0.0,0.0,0.0,0.9966,0.9559,0.9415,0.9506,0.9172,0.8974,0.8979,0.8372,0.8105,0.8105,0.7401,0.7753,0.889,0.8321,0.8403,0.8793,0.7328,0.6678,0.6586,0.0,0.0,0.0,0.0,0.6159,0.6149,0.0,0.0,0.0,0.0,0.0,0.0,0.0,0.0,0.0,0.0,0.0,0.0,0.9211,1.0035,1.0547,1.0283,1.1083,1.1669,1.1752,1.218,1.2537,1.283,1.2959,1.2967,1.2846,1.2284,1.1778,1.1334,1.1149,1.1065,1.104,1.0889,1.0542,1.0064,1.0064,0.9287,0.799,0.799,0.7563,0.6885,0.0,0.0,0.0,0.0,0.0,0.0,0.0,0.0,0.0,0.0,0.0,0.0,0.0,0.0,0.0,0.0,0.0,0.0,0.0,0.0,0.0,0.0,0.0,0.0,0.0,0.0,0.0,0.0,0.0,0.0,0.0,0.0,0.0,0.0,0.0,0.0,0.0,1.2663,1.2764,1.2345,1.2699,1.2864,0.0,0.0,0.0,0.0,0.0,0.0,1.0662,1.0834,1.1002,1.1063,1.0894,1.0805,1.0905,1.0696,1.0611,1.0611,0.9749,0.9323,0.9323,0.8404,0.8663,0.9753,0.9449,0.9966,1.0849,0.8683,0.7666,0.7495,0.709,0.6817,0.6644,0.6412,0.63,0.63,0.0,0.0,0.0,0.0,0.0,0.0,0.0,0.0,0.0,0.0,0.0,0.9211,0.9211,1.008,1.0695,1.068,1.1305,1.17,0.0,1.2138,1.2401,1.2417,1.2797,1.2822,1.2426,1.2344,1.2437,1.2774,1.208,1.174,1.174,1.1091,1.0788,1.0745,1.0745,1.0012,0.8752,0.8752,0.8321,0.7643,0.7643,0.0,0.0,0.0,0.0,0.0,0.0,0.0,0.0,0.0,0.0,0.0,0.0,0.0,0.0,0.0,0.0,0.0,0.0,0.0,0.0,0.0,0.0,0.0,0.0,0.0,0.0,0.0,0.0,0.0,0.0,0.0,0.0,0.0,0.0,0.0,0.0,0.0,0.0,1.2371,1.3034,0.0,0.0,0.0,0.0,1.3081,1.3094,1.3068,1.3028,1.3041,1.3173,1.3403,1.2406,1.1938,1.2219,1.1117,1.0611,1.0611,1.0524,1.0524,1.0524,1.0438,1.1037,1.2072,1.0999,1.1166,1.2091,1.0784,1.0017,0.9635,0.852,0.7943,0.7591,0.6644,0.63,0.63,0.0,0.0,0.0,0.0,0.0,0.8804,0.8804,0.8804,0.8804,0.8804,0.9256,0.9578,0.9578,1.0493,1.1102,1.1102,1.1699,1.2215,1.2457,1.2869,1.3231,1.3488,1.3635,1.37,1.3686,1.3287,1.3196,1.3481,1.2842,1.2501,1.251,1.2255,1.1891,1.1441,1.1441,1.0939,1.0064,0.964,0.9047,0.8401,0.8401,0.8235,0.0,0.0,0.0,0.0,0.0,0.0,0.0,0.0,0.0,0.0,0.0,0.0,0.0,0.0,0.0,0.0,0.0,0.0,0.0,0.0,0.0,0.0,0.0,0.0,0.0,0.0,0.0,0.0,0.0,0.0,0.0,0.0,0.0,0.0,0.0,0.0,0.0,1.2913,1.3293,0.0,1.308,1.3146,1.3213,1.3213,1.3347,1.3447,1.3447,1.3667,1.3821,1.3928,1.3539,1.3368,1.347,1.3082,1.2863,1.282,1.2077,1.1681,1.1686,1.0907,1.1209,1.2285,1.1858,1.2376,1.3415,1.2976,1.1656,0.9837,0.9266,0.8908,0.8656,0.7629,0.7249,0.7176,0.0,0.0,0.0,0.0,0.8804,0.8804,0.8804,0.8804,0.8883,0.9113,0.951,0.9891,1.0115,1.0933,1.1463,1.1463,1.211,1.2632,1.289,1.3291,1.3633,1.389,1.409,1.4369,1.4697,1.4167,1.3973,1.4097,1.3695,1.3501,1.3491,1.3286,1.2953,1.2477,1.2267,1.1774,1.1116,1.0661,1.009,0.9472,0.935,0.9381,0.9435,0.0,0.0,0.0,0.0,0.0,0.0,0.0,0.0,0.0,0.0,0.0,0.0,0.0,0.0,0.0,0.0,0.0,0.0,0.0,0.0,0.0,0.0,0.0,0.0,0.0,0.0,0.0,0.0,0.0,0.0,0.0,0.0,0.0,0.0,1.3166,1.332,1.322,1.3554,1.364,1.3347,1.3447,1.3507,1.3507,1.3681,1.3753,1.3753,1.3981,1.4088,1.4088,1.4088,1.4088,1.4088,1.4088,1.4088,1.4088,1.3294,1.2899,1.2893,1.2126,1.2211,1.2899,1.2899,1.3286,1.3928,1.3828,1.2657,1.0823,1.039,1.0053,0.9669,0.8689,0.8313,0.8199,0.0,0.0,0.0,0.8804,0.8804,0.8804,0.8804,0.8804,0.9035,0.9692,0.9814,1.009,1.0745,1.1416,1.1839,1.1839,1.2476,1.2905,1.2905,1.3262,1.3486,1.3512,1.4113,1.47,1.5296,1.4921,1.4698,1.4721,1.4698,1.4698,1.4686,1.4097,1.3815,1.3768,1.32,1.2525,1.1839,1.1839,1.1466,1.0821,1.0451,1.0522,1.0733,0.0,0.0,0.0,0.0,0.0,0.0,0.0,0.0,0.0,0.0,0.0,0.0,0.0,0.0,0.0,0.0,0.0,0.0,0.0,0.0,0.0,0.0,0.0,0.0,0.0,0.0,0.0,0.0,0.0,0.0,0.0,0.0,0.0,1.3259,1.3467,1.35,1.3267,1.3741,1.3975,1.3646,1.3915,1.4088,1.4088,1.4088,1.4088,1.4088,1.4088,1.4088,1.4088,1.4088,1.4088,1.4088,1.4088,1.4088,1.4088,1.4088,1.4088,1.4088,1.4088,1.4088,1.4088,1.4075,1.3908,1.358,1.3327,1.3026,1.2734,1.2018,1.1358,1.0714,0.9707,0.9334,0.9296,0.0,0.0,0.8804,0.8804,0.8804,0.8804,0.8804,0.8804,0.8857,0.9061,0.9917,1.0593,1.0788,1.1891,1.2608,1.2608,1.2774,1.2905,1.2905,1.2988,1.3258,1.3714,1.4672,1.5305,1.5508,1.4971,1.4926,1.5343,1.4926,1.4698,1.4698,1.4537,1.4213,1.3802,1.3637,1.3194,1.2608,1.2608,1.2486,1.224,1.1116,1.0913,1.1287,0.0,0.0,0.0,0.0,0.0,0.0,0.0,0.0,0.0,0.0,0.0,0.0,0.0,0.0,0.0,0.0,0.0,0.0,0.0,0.0,0.0,0.0,0.0,0.0,0.0,0.0,0.0,0.0,0.0,0.0,0.0,1.6546,1.6368,1.4931,1.4061,1.3653,1.3828,1.3988,1.4055,1.3975,1.4041,1.4088,1.4088,1.4088,1.4088,1.4088,1.4088,1.4088,1.4088,1.4088,1.4088,1.4088,1.4088,1.4088,1.4088,1.4088,1.4088,1.4088,1.4088,1.4088,1.4075,1.3854,1.368,1.358,1.3327,1.3026,1.277,1.2327,1.2027,1.1768,1.0752,0.9933,0.9296,0.0,0.8804,0.8804,0.8804,0.8804,0.8804,0.8804,0.8804,0.891,0.9185,0.9891,1.0593,1.1166,1.1965,1.2559,1.2881,1.3037,1.3066,1.2915,1.3346,1.4,1.4849,1.553,1.5904,1.5976,1.5634,1.5634,1.5986,1.5634,1.5456,1.5456,1.5197,1.4892,1.4515,1.4027,1.3624,1.3262,1.3017,1.2905,1.2832,1.1999,1.1851,1.204,1.1714,1.1747,1.1954,1.1745,1.1597,1.1516,1.1683,0.0,0.0,0.0,0.0,0.0,0.0,0.0,0.0,0.0,0.0,0.0,0.0,0.0,0.0,0.0,0.0,0.0,0.0,0.0,0.0,0.0,0.0,0.0,0.0,1.7825,1.7655,1.6941,1.546,1.4572,1.4754,1.437,1.4088,1.4088,1.4088,1.4088,1.4088,1.4088,1.4088,1.4088,1.4088,1.4088,1.4088,1.4088,1.4088,1.4088,1.4088,1.4088,1.4088,1.4088,1.4088,1.4088,1.4088,1.4088,1.4075,1.3733,1.3533,1.34,1.314,1.2878,0.0,0.0,0.0,0.0,0.0,1.1056,1.0571,0.0,0.8804,0.8804,0.8804,0.8804,0.8804,0.8804,0.8838,0.9049,0.9621,0.9799,1.0308,1.1541,1.1765,1.2104,1.2847,1.3262,1.3394,1.316,1.4229,1.5344,1.6372,1.6525,1.6572,1.65,1.65,1.65,1.65,1.65,1.65,1.65,1.5964,1.5676,1.5554,1.448,1.398,1.3862,1.3262,1.2992,1.3002,1.2929,1.2935,1.2879,1.2164,1.1964,1.2065,1.2125,1.1996,1.1856,1.2276,0.0,0.0,0.0,0.0,0.0,0.0,0.0,0.0,0.0,0.0,0.0,0.0,0.0,0.0,0.0,0.0,0.0,0.0,0.0,0.0,0.0,0.0,0.0,0.0,1.8647,1.802,1.9036,1.7407,1.5985,1.5745,1.4734,1.4088,1.4088,1.4088,1.4088,1.4088,1.4088,1.4088,1.4088,1.4088,0.0,0.0,0.0,1.4088,1.4088,1.4088,1.4088,1.4088,1.4088,1.4088,1.4088,1.4088,1.4088,1.4075,1.3733,1.344,1.3186,1.2911,1.261,1.2325,1.263,1.2569,1.2305,1.2305,1.2305,1.2305,0.0,0.8804,0.8804,0.8804,0.8804,0.8804,0.8804,0.8978,0.9099,0.9016,0.9688,1.0397,1.0947,1.1491,1.2104,1.2847,1.3262,1.386,1.4707,1.5857,1.6494,1.6396,1.7333,1.7437,1.6525,1.65,1.65,1.65,1.65,1.65,1.65,1.638,1.6073,1.5588,1.5365,1.4983,1.4491,1.3873,1.3624,1.3576,1.3113,1.3086,1.3373,1.3211,1.3356,1.3659,1.3679,1.3635,1.3662,1.4117,1.4113,1.3974,1.4348,1.4575,0.0,0.0,0.0,0.0,0.0,0.0,0.0,0.0,0.0,0.0,0.0,0.0,0.0,0.0,0.0,0.0,0.0,0.0,0.0,1.9827,1.9918,2.004,2.0245,1.9195,1.7698,1.5902,1.4734,1.4088,1.4088,1.4088,1.4088,1.4088,1.4088,1.4088,1.4088,1.4088,1.4088,1.4088,1.4088,1.4088,1.4088,1.4088,1.4088,1.4088,0.0,0.0,1.4088,1.4088,1.4088,1.4075,1.3733,1.344,1.3186,1.2911,1.261,1.2311,1.2365,1.2351,1.2305,1.2305,1.2305,1.2305,0.8804,0.8804,0.8804,0.8804,0.8804,0.8804,0.8804,0.8904,0.8998,0.8998,0.9439,0.9957,1.0491,1.1137,1.1761,1.2314,1.3041,1.4342,1.6272,1.6524,1.6802,1.7275,1.7615,1.7388,1.6513,1.65,1.65,1.65,1.65,1.65,1.65,1.65,1.6337,1.603,1.572,1.5432,1.5096,1.4514,1.4073,1.3792,1.3789,1.3562,1.3193,1.3193,1.3457,1.3821,1.4036,1.425,1.4521,1.4951,1.4923,1.4786,1.5029,1.5098,1.5137,0.0,0.0,0.0,0.0,0.0,0.0,0.0,0.0,0.0,0.0,0.0,0.0,0.0,0.0,1.9346,1.9561,0.0,1.999,2.0205,2.0458,2.0605,2.0605,1.9678,1.859,1.7488,1.591,1.4894,1.4894,1.4412,1.4088,1.4088,1.4088,1.4088,1.4088,1.4088,1.4088,1.4088,1.4088,1.4088,1.4088,1.4088,1.4088,1.4088,1.4088,1.4088,1.4088,1.4088,1.4088,1.4062,1.3621,1.3307,1.3173,1.2712,1.2438,1.2305,1.2305,1.2305,1.2305,1.2305,1.2305,1.2305,0.8804,0.8804,0.8804,0.8804,0.8804,0.8824,0.8884,0.8945,0.9065,0.9271,0.9344,0.9631,1.0302,1.0853,1.1428,1.2082,1.314,1.4795,1.7225,1.6826,1.6946,1.7954,1.7708,1.7225,1.6513,1.65,1.65,1.65,1.65,1.65,1.65,1.65,1.65,1.6466,1.5986,1.5764,1.5754,1.513,1.4651,1.4343,1.4704,1.4348,1.3559,1.3411,1.3406,1.3539,1.3958,1.4414,1.4844,1.5264,1.541,1.541,1.541,1.541,1.5498,1.5958,1.6095,0.0,0.0,0.0,0.0,0.0,0.0,0.0,0.0,1.9092,1.9434,1.9521,1.9541,1.9668,2.0098,2.0138,2.0283,2.0644,2.0732,2.0703,2.0615,1.9844,1.9313,1.9313,1.7163,1.5696,1.5696,1.4734,1.4088,1.4088,1.4088,1.4088,1.4088,1.4088,1.4088,1.4088,1.4088,1.4088,1.4088,1.4088,1.4088,1.4088,1.4088,1.4088,1.4088,1.4088,1.4088,1.4055,1.3467,1.3173,1.308,1.2525,1.2305,1.2305,1.2305,1.2305,1.2305,1.2305,1.2305,1.2305,0.0,0.8804,0.8804,0.8804,0.8804,0.8865,0.9124,0.9412,0.9599,0.9626,0.986,1.0173,1.0607,1.0712,1.1491,1.3252,1.4184,1.5217,1.6535,1.7148,1.7391,1.7229,1.7784,1.7614,1.6525,1.65,1.65,1.65,1.65,1.65,1.65,1.65,1.65,1.65,1.6423,1.6402,1.6358,1.5754,1.5736,1.6068,1.561,1.5652,1.5931,1.5216,1.4353,1.3539,1.3958,1.4414,1.4844,1.5264,1.541,1.541,1.541,1.541,1.5498,1.5958,1.6095,1.6193,1.658,1.7012,1.7412,1.7832,1.8256,1.8705,0.0,1.9541,1.9951,2.038,2.0458,2.0595,2.0966,2.1044,2.1064,2.1112,2.1122,2.1025,2.0664,2.0489,2.0401,2.0401,1.7641,1.5696,1.5696,1.4734,1.4088,1.4088,1.4088,1.4088,1.4088,1.4088,1.4088,1.4088,1.4088,1.4088,1.4088,1.4088,1.4088,1.4088,1.4088,1.4088,1.4088,1.4088,1.4088,1.4055,1.3467,1.3053,1.2811,1.2438,1.2305,1.2305,1.2305,1.2305,1.2305,1.2305,1.2305,1.2305,0.0,0.8804,0.8804,0.8804,0.8918,0.9071,0.9191,0.9492,0.9746,0.9913,1.004,1.0157,1.0319,1.0574,1.1464,1.342,1.3921,1.4762,1.6404,1.6509,1.6804,1.752,1.7556,1.7541,1.7491,1.7501,1.7501,1.7501,1.7501,1.7501,1.7501,1.7501,1.7501,1.7501,1.7501,1.7501,1.7443,1.6772,1.6385,1.6305,1.639,1.5875,1.5112,1.5607,1.5154,1.4277,1.4453,1.4785,0.0,1.5352,1.541,1.541,1.541,1.541,1.5498,1.5958,1.6095,1.6193,1.658,1.7194,1.7734,1.7666,1.834,1.9062,1.9248,1.9805,2.0342,2.0566,2.0605,2.0703,2.1112,2.119,2.119,2.119,2.119,2.1074,2.0664,2.0605,2.0605,2.0605,1.9057,1.7639,1.6698,1.5662,1.4776,1.413,1.4088,1.4088,1.4088,1.4088,1.4088,1.4088,1.4088,1.4088,1.4088,1.4088,1.4088,1.4088,1.4088,1.4088,1.4088,1.4088,1.3901,1.3554,1.3126,1.2804,1.2516,1.2351,1.2305,1.2305,1.2305,1.2305,1.2305,1.2305,1.2305,1.2305,0.0,0.8804,0.8804,0.8804,0.9024,0.9211,0.9211,0.9492,0.9786,1.0043,1.0187,1.0241,1.0241,1.0685,1.1561,1.2969,1.352,1.4361,1.5766,1.5889,1.6326,1.7234,1.7322,1.7495,1.7894,1.8109,1.8204,1.8204,1.8204,1.8204,1.8204,1.8204,1.8204,1.8204,1.8204,1.8097,1.787,1.7315,1.6821,1.6415,1.6973,1.6439,1.5352,1.6159,1.605,1.541,1.4957,1.5049,1.541,1.541,1.541,1.541,1.541,1.541,1.5498,1.5958,1.6183,1.6367,1.6902,1.7451,1.7793,1.7607,1.834,1.9111,1.9111,1.9775,2.0429,2.0429,2.0517,2.0703,2.1112,2.1298,2.1375,2.1375,2.1375,2.126,2.081,2.0683,2.0644,2.0732,2.0328,1.9512,1.8223,1.6749,1.5427,1.4287,1.4135,1.4088,1.4088,1.4088,1.4088,1.4088,1.4088,1.4088,1.4088,1.4088,1.4088,1.4088,1.4088,1.4088,1.4082,1.4001,1.3687,1.3193,1.2918,1.2616,1.2305,1.2305,1.2305,1.2305,1.2305,1.2305,1.2305,1.2305,1.2305,1.2305,0.0,0.0,0.8804,0.8804,0.9024,0.9211,0.9211,0.9492,0.9786,1.0043,1.0367,1.0579,1.0579,1.1291,1.1804,1.1842,1.3278,1.4225,1.4264,1.5661,1.6262,1.5796,1.7118,1.7655,1.7145,1.7834,1.8204,1.8204,1.8204,1.8204,1.8204,1.8204,1.8204,1.8204,1.8204,1.781,1.7133,1.7108,1.6968,1.681,1.73,1.7779,1.8116,1.7432,1.716,1.6909,1.5362,1.5049,1.541,1.541,1.541,1.541,1.541,1.541,1.5498,1.5958,1.6367,1.6863,1.7744,1.7695,1.75,1.7891,1.8286,1.8617,1.8617,1.9316,1.9932,1.9932,2.0273,2.0703,2.1112,2.1582,2.1865,2.1865,2.1865,2.1719,2.1239,2.084,2.0723,2.1122,2.114,2.0881,2.0174,1.779,1.5797,1.4589,1.4249,1.4088,1.4088,1.4088,1.4088,1.4088,1.4088,1.4088,1.4088,1.4088,1.4088,1.4088,1.4088,1.4088,1.4075,1.3746,1.3453,1.3193,1.2918,1.2616,1.2305,1.2305,1.2305,1.2305,1.2305,1.2305,1.2305,1.2305,1.2305,1.2305,0.0,0.0,0.0,0.9352,0.9472,0.9532,0.9532,0.9619,0.9786,1.0043,1.0374,0.0,0.0,0.0,0.0,0.0,1.2289,1.3053,1.4115,1.4678,1.5341,1.6178,1.6714,1.7546,1.8727,1.8989,1.9554,2.0388,2.0388,2.0388,2.0388,2.0388,2.0071,1.9522,1.9522,1.9073,1.8272,1.7774,1.7712,1.7903,1.7743,1.7705,1.7707,1.7625,1.7277,1.6766,0.0,1.5537,1.541,1.541,1.5719,1.6036,1.5555,1.6073,1.6803,1.6469,1.6357,1.6378,1.6672,1.7073,1.7422,1.7559,1.8115,1.8598,1.8598,1.9082,1.958,1.9853,2.0029,2.0361,2.1054,2.1592,2.1885,2.1885,2.1885,2.1738,2.1259,2.1064,2.1064,2.1181,2.1697,2.1648,2.0628,1.8827,1.7247,1.6133,1.5,1.4376,1.4376,1.4195,1.4088,1.4088,1.4088,1.4088,1.4088,1.4088,1.4088,1.4088,1.4088,1.3981,1.374,1.3487,1.3193,1.2924,1.2579,1.2392,1.2305,1.2305,1.2305,1.2305,1.2305,1.2305,1.2305,1.2305,1.2305,1.2305,0.0,0.0,0.0,0.0,0.0,0.0,0.0,0.0,0.0,0.0,0.0,0.0,0.0,0.0,0.0,0.0,0.0,1.2228,1.3265,1.3876,1.4649,1.5642,1.6197,1.7205,1.8714,1.9008,1.9604,2.0555,2.0893,2.0893,2.0583,2.088,2.0555,1.975,1.975,1.9279,1.8471,1.7995,1.7812,1.7837,1.7705,1.756,1.7419,1.7585,1.7348,0.0,1.6465,1.6123,1.581,1.5488,1.5719,1.6065,1.5864,1.6443,1.7095,1.6508,1.6257,1.6124,1.629,1.6719,1.7187,1.7376,1.7793,1.8223,1.8344,1.875,1.9131,1.9368,1.966,2.0088,2.0625,2.1377,2.1885,2.1885,2.2012,2.2012,2.1728,2.1522,2.1483,2.1629,2.2178,2.226,2.1631,2.0254,1.8737,1.7076,1.585,1.4936,1.4516,1.4249,1.4088,1.4088,1.4088,1.4088,1.4088,1.4088,1.4088,1.4088,1.4088,1.3928,1.3593,1.3307,1.3039,1.277,1.2432,1.2305,1.2305,1.2305,1.2305,1.2305,1.2305,1.2305,1.2305,1.2305,1.2305,1.2305,0.0,0.0,0.0,0.0,0.0,0.0,0.0,0.0,0.0,0.0,0.0,0.0,0.0,0.0,0.0,0.0,0.0,0.0,1.1803,1.3235,1.4094,1.4151,1.5613,1.6657,1.7176,1.7941,1.854,1.8988,1.9831,1.9801,1.9018,1.9831,1.9772,1.8928,1.8928,1.8516,1.7802,1.7802,1.7439,1.6833,1.7256,1.7432,1.7451,1.7422,1.7422,1.7363,1.6892,1.6736,1.6609,1.5742,1.5459,1.5585,1.6322,1.651,1.6405,1.6168,1.6086,1.6153,1.6512,1.6648,1.6765,1.7217,1.7386,1.749,1.7881,1.8266,1.8588,1.8627,1.928,1.9893,1.9941,2.1006,2.1885,2.1885,2.2236,2.251,2.251,2.2168,2.206,2.2441,2.25,2.2656,2.2994,2.2019,2.0224,1.7559,1.6766,1.5877,1.4666,1.4334,1.4166,1.4088,1.4088,1.4088,1.4088,1.4088,1.4088,1.4088,1.4088,1.3928,1.3573,1.334,1.3033,1.275,1.2425,1.2305,1.2305,1.2305,1.2305,1.2305,1.2305,1.2305,1.2305,1.2305,1.2305,1.2305,0.0,0.0,0.0,0.0,0.0,0.0,0.0,0.0,0.0,0.0,0.0,0.0,0.0,0.0,0.0,0.0,0.0,0.0,1.1772,1.2197,1.2778,1.3576,1.4698,1.5915,1.7171,1.8062,1.9066,2.0178,2.0398,2.0367,2.0178,2.0398,2.002,1.9201,1.9201,1.8725,1.7932,1.7932,1.802,1.81,1.793,1.8037,1.8247,1.7969,1.7852,1.7793,1.7363,1.7217,1.7139,1.6551,1.6172,1.6098,1.703,1.6557,1.5768,1.6265,1.6005,1.5605,1.5683,1.5986,1.629,1.6398,1.6926,1.7445,1.7519,1.7871,1.835,1.8994,1.9297,1.9648,2.0283,2.1211,2.1885,2.1885,2.2236,2.251,2.251,2.2422,2.2275,2.207,2.2324,2.2432,2.2227,2.1935,2.1048,1.9402,1.8409,1.7372,1.6257,1.5644,1.4936,1.413,1.4088,1.4088,1.4088,1.4088,1.4088,1.4088,1.4088,1.3814,1.332,1.324,1.2919,1.2412,1.2338,1.2305,1.2305,1.2305,1.2305,1.2305,1.2305,1.2305,1.2305,1.2305,1.2305,1.2305,0.0,0.0,0.0,0.0,0.0,0.0,0.0,0.0,0.0,0.0,0.0,0.0,0.0,0.0,0.0,0.0,0.0,0.0,0.0,1.1586,1.2133,1.2845,1.4167,1.5436,1.6595,1.7588,1.8524,1.9464,1.9846,1.9814,1.9464,1.9846,1.9489,1.8479,1.8639,1.8352,1.7744,1.793,1.8144,0.0,0.0,1.8154,1.8295,1.8105,1.8008,1.7978,1.7744,1.7656,1.7598,1.7168,1.6929,1.6901,1.7132,1.6748,1.6214,1.6302,1.5879,1.541,1.541,1.5586,1.5869,1.626,1.6728,1.7197,1.7578,1.7842,1.8203,1.8867,1.915,1.9492,2.0156,2.1162,2.1885,2.1885,2.2393,2.274,2.274,2.274,2.2627,2.2207,2.2373,2.2344,2.1924,2.1885,2.1617,2.0871,1.9631,1.8431,1.7278,1.6266,1.5421,1.4817,1.4334,1.4088,1.4088,1.4088,1.4088,1.4088,1.4088,1.3781,1.3213,1.3213,1.2879,1.2305,0.0,1.2305,1.2305,1.2305,1.2305,1.2305,1.2305,1.2305,1.2305,1.2305,1.2305,1.2305,0.0,0.0,0.0,0.0,0.0,0.0,0.0,0.0,0.0,0.0,0.0,0.0,0.0,0.0,0.0,0.0,0.0,0.0,0.0,0.0,1.1764,1.2017,1.3705,1.4935,1.5542,1.6542,1.7302,1.7794,1.8488,1.8502,1.793,1.8634,1.8377,1.7314,1.7734,1.7725,1.7445,1.7832,1.794,1.7794,1.7794,1.7725,1.7657,0.0,0.0,1.7915,1.8027,1.8057,1.7959,1.7588,1.761,1.7605,1.6928,1.6848,1.6916,1.6297,1.5782,1.541,1.541,1.541,1.5605,1.6404,1.6658,1.6911,1.7744,1.7969,1.8144,1.8588,1.9023,1.9434,1.9912,2.0986,2.1816,2.1875,2.2549,2.3033,2.3091,2.3091,2.2916,2.248,2.2432,2.2236,2.1758,2.175,2.175,2.175,2.0508,1.9235,1.8088,1.6708,1.5786,1.5496,1.4573,1.4088,1.4088,1.4088,1.4088,1.4088,1.4048,1.3741,1.3213,1.3166,1.2839,1.2305,1.2305,1.2305,1.2305,1.2305,1.2305,1.2305,1.2305,1.2305,1.2305,1.2305,1.2305,1.2305,0.0,0.0,0.0,0.0,0.0,0.0,0.0,0.0,0.0,0.0,0.9702,1.0942,0.0,0.0,0.0,0.0,0.0,0.0,0.0,0.0,0.0,1.1198,1.2509,1.3403,1.3723,1.4687,1.5728,1.6853,1.6373,1.6636,1.749,1.7248,1.7032,1.6833,1.7295,1.7484,1.7445,1.7832,1.7535,1.6853,1.6853,1.6393,1.5763,0.0,0.0,0.0,1.82,1.8266,1.7998,1.793,1.7717,1.7392,1.6877,1.6509,1.6267,1.6155,1.5782,1.541,1.541,1.541,1.5537,1.6085,1.6455,1.6833,1.7373,1.7764,1.8232,1.9014,1.9238,1.9521,2.0341,2.0947,2.1465,2.1826,2.2305,2.2744,2.3042,2.3091,2.2808,2.209,2.1992,2.168,2.0918,2.084,2.084,2.084,2.0595,2.0089,1.9311,1.7859,1.6198,1.4454,1.4208,1.4088,1.4088,1.4088,1.4088,1.4082,1.3841,1.35,1.32,1.2985,1.267,1.2305,1.2305,0.0,1.2305,1.2305,1.2305,1.2305,1.2305,1.2305,1.2305,1.2305,1.2305,1.2305,0.0,0.0,0.0,0.0,0.0,0.0,0.0,0.7409,0.7782,0.7864,0.8969,0.9946,1.0467,1.1064,1.143,0.0,0.0,0.0,0.0,0.0,0.0,0.0,1.2414,1.3171,1.3294,1.4391,1.5261,1.586,0.0,1.6376,1.6994,1.7249,1.7243,1.7058,1.7026,1.6839,1.6627,1.6551,1.6298,1.586,1.586,1.5587,0.0,0.0,0.0,0.0,1.798,1.823,1.8334,1.8603,1.8242,1.7676,1.7461,1.71,1.6741,1.6475,1.6094,1.5703,1.5469,1.541,1.5576,1.624,1.6572,1.6872,1.7559,1.8037,1.8516,1.916,1.9463,1.9805,2.0488,2.0937,2.1337,2.1816,2.2236,2.2656,2.3033,2.3091,2.2779,2.1992,2.1885,2.1574,2.0693,2.0605,2.0605,2.0605,2.0605,2.0449,2.0127,1.8325,1.656,1.4977,1.4412,1.4088,1.4088,1.4455,1.4379,1.3854,1.4019,1.3715,1.3005,1.2851,1.2623,1.2305,1.2305,1.2305,1.2305,1.2305,1.2305,1.2305,1.2305,1.2305,1.2305,1.2305,1.2305,1.2305,0.0,0.0,0.0,0.0,0.0,0.0,0.0,0.6826,0.7433,0.7624,0.8037,0.8644,0.9471,1.0371,1.1038,0.0,0.0,0.0,0.0,0.0,0.0,0.0,0.0,1.2987,1.2987,0.0,0.0,1.5,1.5495,0.0,0.0,0.0,0.0,0.0,1.6609,1.626,1.5856,1.5391,1.5092,0.0,0.0,1.4884,0.0,0.0,0.0,0.0,0.0,1.7871,1.8462,1.8833,1.8592,1.8144,1.8144,1.7793,1.7314,1.6973,1.6484,1.6016,1.5644,1.5557,1.5742,1.6502,1.6775,1.7038,1.7832,1.8295,1.8724,1.9199,1.9619,2.0049,2.0517,2.0859,2.1269,2.1797,2.2168,2.2559,2.3023,2.3091,2.2779,2.1992,2.1885,2.1574,2.0693,2.0605,2.0605,2.0605,2.0605,2.0489,2.0284,1.863,1.705,1.5737,1.4894,1.43,1.3995,1.4717,1.456,1.3507,1.4205,1.3918,1.2784,1.2717,1.2563,1.2305,1.2305,1.2305,0.0,1.2305,1.2305,1.2305,1.2305,1.2305,1.2305,1.2305,1.2305,1.2305,0.0,0.0,0.0,0.0,0.0,0.0,0.0,0.5297,0.5481,0.5789,0.6756,0.749,0.7705,0.8775,0.9378,0.0,0.0,0.0,0.0,0.0,0.0,0.0,0.0,0.0,0.0,0.0,0.0,1.4306,1.3444,0.0,0.0,0.0,0.0,0.0,0.0,1.5932,1.5856,1.5391,0.0,0.0,0.0,0.0,0.0,0.0,0.0,0.0,0.0,1.723,1.7777,1.7841,1.8162,1.8539,1.8539,1.8027,1.7373,1.7334,1.675,1.6085,1.6046,1.6036,1.6153,1.658,1.7031,1.7441,1.791,1.8295,1.8724,1.9199,1.9619,2.0049,2.0517,2.0635,2.0938,2.1748,2.1924,2.2217,2.2984,2.3091,2.2779,2.1992,2.1885,2.1574,2.0693,2.0605,2.0605,2.0605,2.0605,2.0157,1.9204,1.8957,1.79,1.5779,1.5621,1.4959,1.3646,1.4603,1.4485,1.3247,1.3921,1.3748,1.2777,1.2465,1.2325,1.2305,1.2305,1.2305,0.0,1.2305,1.2305,1.2305,1.2305,1.2305,1.2305,1.2305,1.2305,1.2305,0.0,0.0,0.0,0.0,0.0,0.0,0.6246,0.5622,0.5376,0.5677,0.6118,0.6506,0.6738,0.721,0.7939,0.9015,0.0,0.0,0.0,0.0,0.0,0.0,0.0,0.0,0.0,0.0,1.273,1.3348,1.3681,0.0,0.0,0.0,0.0,0.0,0.0,1.5497,1.5402,1.403,0.0,0.0,0.0,0.0,0.0,0.0,0.0,0.0,0.0,0.0,1.8087,1.8407,1.8518,1.8646,1.8945,1.8447,1.7705,1.7461,1.7139,1.6829,1.6533,1.6465,1.6572,1.7012,1.7256,1.7523,1.791,1.8535,1.9082,1.9248,1.9834,2.04,2.0576,2.0605,2.0889,2.1738,2.1885,2.2178,2.2974,2.3091,2.2779,2.1992,2.1885,2.1574,2.0693,2.0605,2.0605,2.0605,2.0605,2.0401,2.0001,1.9362,1.8196,1.6477,1.5802,1.5054,1.423,1.4988,1.4858,1.3798,1.4467,1.3969,1.2478,1.2358,1.2305,1.2305,1.2305,1.2305,0.0,1.2305,1.2305,1.2305,1.2305,1.2305,1.2305,1.2305,1.2305,1.2305,0.0,0.0,0.0,0.0,0.0,0.7911,0.7108,0.6258,0.5814,0.6143,0.5943,0.5918,0.6265,0.6337,0.6939,0.8356,0.8727,0.0,0.0,0.0,0.0,0.0,0.0,0.0,0.0,0.0,1.2965,1.3052,1.3825,1.4245,0.0,0.0,1.6258,1.6139,0.0,0.0,0.0,0.0,0.0,0.0,0.0,0.0,0.0,0.0,0.0,0.0,0.0,0.0,0.0,0.0,0.0,1.8402,1.8697,1.8444,1.7949,1.7656,1.748,1.7314,1.7012,1.6892,1.7002,1.7305,1.7471,1.7676,1.8105,1.876,1.9316,1.9443,2.0096,2.0605,2.0605,2.0605,2.085,2.1572,2.1807,2.2139,2.2808,2.3013,2.2828,2.2158,2.207,2.1728,2.085,2.0683,2.0605,2.0605,2.0605,2.0605,2.0605,1.9761,1.868,1.7367,1.6486,1.5646,1.492,1.5646,1.5357,1.4052,1.482,1.4163,1.2305,1.2305,1.2305,1.2305,1.2305,1.2305,0.0,1.2305,1.2305,1.2305,1.2305,1.2305,1.2305,1.2305,1.2305,1.2305,0.0,0.0,0.0,0.0,0.0,0.0,0.7773,0.6943,0.6558,0.7043,0.6333,0.5918,0.6265,0.6426,0.6511,0.6511,0.7305,0.0,0.0,0.0,0.0,0.0,0.0,0.0,0.0,0.0,1.3347,1.3593,1.3347,1.3353,1.3627,1.4299,1.4468,1.4246,0.0,0.0,0.0,0.0,0.0,0.0,0.0,0.0,0.0,0.0,0.0,0.0,0.0,0.0,0.0,0.0,0.0,0.0,0.0,1.7855,1.8008,1.8008,1.7705,1.7383,1.7373,1.7373,1.7373,1.7383,1.7695,1.8115,1.85,1.8975,1.9404,1.9824,2.0254,2.0605,2.0605,2.0605,2.0713,2.1132,2.1602,2.2031,2.2461,2.2838,2.2935,2.2559,2.251,2.2168,2.1268,2.083,2.0605,2.0605,2.0605,2.0605,2.0605,2.0156,1.9411,1.8323,1.787,1.6985,1.5589,1.652,1.5897,1.3716,1.47,1.4163,1.2305,1.2305,1.2305,1.2305,1.2305,1.2305,0.0,1.2305,1.2305,1.2305,1.2305,1.2305,1.2305,1.2305,1.2305,1.2305,0.0,0.0,0.0,0.0,0.0,0.0,0.0,0.8214,0.7606,0.7143,0.7005,0.6809,0.6488,0.6484,0.6556,0.6766,0.6932,0.0,0.0,0.0,0.0,0.0,0.0,0.0,0.0,0.0,1.3507,1.36,1.3754,1.3854,1.3941,1.4629,1.489,1.4825,1.4602,1.4312,0.0,0.0,0.0,0.0,0.0,0.0,0.0,0.0,0.0,0.0,0.0,0.0,0.0,0.0,0.0,0.0,0.0,0.0,0.0,1.7794,1.791,1.7812,1.7812,1.7812,1.7812,1.7812,1.791,1.8115,1.851,1.8975,1.9404,1.9824,2.0264,2.0605,2.0605,2.0605,2.085,2.1562,2.1797,2.2129,2.2799,2.3013,2.2838,2.2168,2.1553,2.1074,2.081,2.0683,2.0605,2.0605,2.0605,2.0605,2.0605,1.9873,1.9029,1.8078,1.7577,1.7027,1.6289,1.6581,1.6378,1.5685,1.534,1.4522,1.3244,1.2586,1.2305,1.2305,1.2305,1.2305,0.0,1.2305,1.2305,1.2305,1.2305,1.2305,1.2305,1.2305,1.2305,1.2305,0.0,0.0,0.0,0.0,0.0,0.0,0.0,0.9052,0.8609,0.7756,0.7558,0.7559,0.7695,0.7042,0.686,0.7538,0.714,0.0,0.0,0.0,0.0,0.0,0.0,0.0,0.0,1.3561,1.3808,1.3808,1.3995,1.4088,1.4124,1.4545,1.4662,1.45,1.4301,1.4084,0.0,0.0,0.0,0.0,0.0,0.0,0.0,0.0,0.0,0.0,0.0,0.0,0.0,0.0,0.0,0.0,0.0,0.0,0.0,0.0,1.8217,1.8178,1.8057,1.8008,1.8008,1.8008,1.8091,1.8325,1.8789,1.9219,1.9648,2.0068,2.0419,2.0605,2.0605,2.0703,2.0996,2.1553,2.1914,2.2305,2.2789,2.2994,2.2847,2.2207,2.1357,2.082,2.082,2.0703,2.0605,2.0605,2.0605,2.0537,2.037,1.9668,1.8954,1.8191,1.7718,1.7374,1.7139,1.7139,1.6957,1.6602,1.5658,1.4665,1.3673,1.2739,1.2305,1.2305,1.2305,0.0,0.0,1.2305,1.2305,1.2305,1.2305,1.2305,1.2305,1.2305,1.2305,1.2305,0.0,0.0,0.0,0.0,0.0,0.0,0.0,0.9536,0.9423,0.8599,0.7934,0.8032,0.9326,0.7825,0.7219,0.8484,0.0,0.0,0.0,0.0,0.0,0.0,0.0,0.0,0.0,1.3935,1.4088,1.4088,1.4088,1.4088,1.4088,1.4088,1.3941,1.3633,1.3633,1.3487,0.0,0.0,0.0,0.0,0.0,0.0,0.0,0.0,0.0,0.0,0.0,0.0,0.0,0.0,0.0,0.0,0.0,0.0,0.0,0.0,0.0,0.0,0.0,1.8057,1.8057,1.8086,1.8354,1.8763,1.9238,1.9639,0.0,2.0517,2.0605,2.0605,2.0605,2.0908,2.1161,2.119,2.1863,2.2432,2.2461,2.274,2.2818,2.2461,2.1689,2.1142,2.1142,2.081,2.0605,2.0605,2.0576,2.038,1.9932,1.9482,1.9053,1.8617,1.8223,1.8008,1.8008,1.8008,1.7579,1.6706,1.5763,1.4772,1.3774,1.2842,1.2372,0.0,1.2305,0.0,0.0,1.2305,1.2305,1.2305,1.2305,1.2305,1.2305,1.2305,1.2305,1.2305,0.0,0.0,0.0,0.0,0.0,0.0,0.0,0.0,0.0,0.0,0.7619,0.7665,0.7423,0.6963,0.6888,0.0,0.0,0.0,0.0,0.0,0.0,0.0,0.0,0.0,0.0,1.3935,1.4088,1.4088,1.4088,1.4088,1.4088,1.4088,1.4048,1.3981,1.3981,1.3941,0.0,0.0,0.0,0.0,0.0,0.0,0.0,0.0,0.0,0.0,1.3353,1.3267,0.0,0.0,0.0,0.0,0.0,0.0,0.0,0.0,1.812,1.8203,1.8393,0.0,1.8539,1.8906,1.9062,1.9238,0.0,1.9844,2.0039,2.0517,2.0605,2.0605,2.0605,2.0693,2.083,2.1142,2.1366,2.165,2.1982,2.1826,2.16,2.1512,2.1055,2.0723,2.0723,2.0664,2.0605,2.0605,2.0254,2.0019,1.9922,1.9163,1.8705,1.8607,1.8223,1.8008,1.8008,1.8008,1.7906,1.7647,1.6715,1.5755,1.4807,1.381,1.2989,1.2305,1.2305,0.0,1.2305,1.2305,1.2305,1.2305,1.2305,1.2305,1.2305,1.2305,1.2305,1.2305,0.0,0.0,0.0,0.0,0.0,0.0,0.0,0.0,0.0,0.0,0.0,0.0,0.0,0.0,0.0,0.0,0.0,0.0,0.0,0.0,0.0,0.0,0.0,1.3666,1.3841,1.4008,1.4088,1.4088,1.4088,1.4088,1.4088,1.4088,1.4088,1.4088,1.4088,1.4088,0.0,0.0,0.0,0.0,0.0,0.0,0.0,0.0,0.0,0.0,1.3106,1.2913,0.0,1.2792,1.2679,1.2859,0.0,0.0,0.0,0.0,1.8078,1.8643,1.8877,1.8754,1.8705,1.918,1.9434,1.9639,1.9863,2.0068,2.0283,2.0556,2.0605,2.0605,2.0605,2.0732,2.0947,2.1151,2.1356,2.1611,2.1846,2.1514,2.119,2.119,2.084,2.0605,2.0605,2.0419,2.0273,2.0273,1.9863,1.9541,1.9299,1.8851,1.851,1.8325,1.8091,1.8008,1.8008,1.8008,1.8008,1.7974,1.7035,1.6114,1.5163,1.4171,1.3208,1.2305,0.0,0.0,1.2305,1.2305,1.2305,1.2305,1.2305,1.2305,1.2305,1.2305,1.2305,1.2305,0.0,0.0,0.0,0.0,0.0,0.0,0.0,0.0,0.0,0.0,0.0,0.0,0.0,0.0,0.0,0.0,0.0,0.0,0.0,0.0,0.0,0.0,0.0,1.3828,1.4082,1.4088,1.4088,1.4088,1.4088,1.4088,1.4088,1.4088,1.4088,1.4088,1.4088,1.4088,0.0,0.0,0.0,0.0,0.0,0.0,0.0,0.0,0.0,0.0,0.0,0.0,0.0,1.2305,1.2331,1.2584,1.3903,0.0,0.0,0.0,0.0,0.0,1.9231,1.9062,1.89,1.9375,1.9746,2.0019,2.0019,2.0303,2.0605,2.0605,2.0605,2.0605,2.0605,2.0879,2.1093,2.1093,2.1445,2.1689,2.1689,2.1367,2.1073,2.1005,2.0703,2.0478,2.0419,2.0039,1.9814,1.9814,1.9424,1.9023,1.8617,1.8539,1.8344,1.8018,1.8008,1.8008,1.8008,1.8008,1.8008,1.7974,1.7182,1.6324,1.5376,1.4378,1.3419,1.2519,0.0,0.0,1.2305,1.2305,1.2305,1.2305,1.2305,1.2305,1.2305,1.2305,1.2305,1.2305,0.0,0.0,0.0,0.0,0.0,0.0,0.0,0.0,0.0,0.0,0.0,0.0,0.0,0.0,0.0,0.0,0.0,0.0,0.0,0.0,0.0,0.0,1.362,1.4041,1.4088,1.4088,1.4088,1.4088,1.4088,1.4088,1.4088,1.4088,1.4088,1.4088,1.4088,1.4088,1.4088,0.0,0.0,0.0,1.4088,0.0,0.0,0.0,0.0,0.0,0.0,0.0,0.0,1.2305,1.2509,1.2866,1.3565,0.0,0.0,0.0,0.0,0.0,1.8962,1.9502,1.9824,2.0302,2.0458,2.0507,2.0507,2.0556,2.0605,2.0605,2.0605,2.0605,2.0605,2.0664,2.0703,2.0703,2.0762,2.0811,2.0811,2.0752,2.0527,2.0166,2.0059,1.9873,1.9521,1.9424,1.9385,1.9385,1.8984,1.8676,1.8607,1.8266,1.8076,1.8008,1.8008,1.8008,1.8008,1.8008,1.8008,1.8008,1.7862,1.7285,1.6349,1.5403,1.4422,1.3455,0.0,1.2305,1.2305,1.2305,1.2305,1.2305,1.2305,1.2305,1.2305,1.2305,1.2305,1.2305,0.0,0.0,0.0,0.0,0.0,0.0,0.0,0.0,0.0,0.0,0.0,0.0,0.0,0.0,0.0,0.0,0.0,0.0,0.0,0.0,0.0,1.4038,1.4237,1.4249,1.4088,1.4088,1.4008,1.3848,1.4008,1.4008,1.3848,1.4015,1.4088,1.4088,1.4088,1.4088,1.4088,1.4088,0.0,0.0,0.0,0.0,0.0,0.0,0.0,0.0,0.0,0.0,0.0,0.0,1.2563,1.259,1.2854,0.0,0.0,0.0,0.0,0.0,1.9061,1.959,2.0019,2.0498,2.0605,2.0712,2.1221,2.1375,2.1375,2.1375,2.1375,2.1375,2.1375,2.0934,2.0605,2.0605,2.0605,2.0605,2.0605,2.0361,2.0137,1.9941,1.9717,1.9502,1.9307,1.9072,1.8936,1.8936,1.85,1.8266,1.8266,1.8115,1.8008,1.8008,1.8008,1.8008,1.8008,1.8008,1.8008,1.8008,1.8008,1.7501,1.6602,1.614,1.5119,1.3673,0.0,1.2769,1.2305,1.2305,1.2305,1.2305,1.2305,1.2305,1.2305,1.2305,1.2305,1.2305,0.0,0.0,0.0,0.0,0.0,0.0,0.0,0.0,0.0,0.0,0.0,0.0,0.0,0.0,0.0,0.0,0.0,0.0,0.0,0.0,1.2968,1.4553,1.4326,1.4139,1.4095,1.4021,1.3874,1.36,1.3874,1.3935,1.3813,1.4082,1.4229,1.4289,1.4289,1.4289,1.4289,1.4289,1.4422,0.0,0.0,0.0,0.0,0.0,0.0,0.0,0.0,0.0,0.0,0.0,0.0,0.0,0.0,0.0,0.0,1.5152,1.6643,1.8418,1.8971,1.9443,1.9853,2.0224,2.038,2.0689,2.1752,2.1916,2.1939,2.2269,2.2366,2.2366,2.2366,2.1745,2.1193,2.0972,2.1116,2.1239,2.109,2.0599,2.016,1.9915,1.9436,1.9092,1.8994,1.8682,1.8451,1.8451,1.8159,1.8008,1.8008,1.8008,1.8008,1.8008,1.8008,1.8008,1.8008,1.8008,1.8008,1.8008,1.8008,1.7613,1.6922,1.6706,1.579,1.4378,1.4135,1.3528,1.2629,1.2629,1.2482,1.2335,1.2556,1.2629,1.2592,1.2378,1.2305,1.2305,0.0,0.0,0.0,0.0,0.0,0.0,0.0,0.0,0.0,0.0,0.0,0.0,0.0,0.0,0.0,0.0,0.0,0.0,0.0,0.0,1.1062,1.3415,1.326,1.3439,1.4102,1.3814,1.3626,1.36,1.3626,1.39,1.4456,1.4482,1.4636,1.4948,1.4948,1.4948,1.4948,1.4948,1.4955,1.4948,0.0,0.0,0.0,0.0,0.0,0.0,0.0,0.0,0.0,0.0,0.0,0.0,0.0,0.0,1.4402,1.5012,1.6217,1.7486,1.8415,1.9004,1.9336,1.9375,1.9668,2.0313,2.168,2.1702,2.1817,2.3132,2.3404,2.3404,2.3404,2.3331,2.2999,2.2027,2.2664,2.3102,2.2612,2.1803,2.0932,2.0007,1.9174,1.849,1.8135,1.8076,1.8057,1.8057,1.8027,1.8008,1.8008,1.8008,1.8008,1.8008,1.8008,1.8008,1.8008,1.8008,1.8008,1.8008,1.8008,1.7974,1.7872,1.7001,1.6532,1.6349,1.5473,1.4522,1.36,1.36,1.3098,1.2372,1.3273,1.36,1.3491,1.2629,1.2305,1.2305,0.0,0.0,0.0,0.0,0.0,0.0,0.0,0.0,0.0,0.0,0.0,0.0,0.0,0.0,0.0,0.0,0.0,0.0,0.0,0.0,1.1395,1.321,1.3003,1.336,1.4319,1.4068,1.3828,1.36,1.36,1.39,1.4522,1.4522,1.4676,1.5008,1.5008,1.4863,1.4703,1.4928,1.5008,1.4995,1.4843,0.0,0.0,0.0,0.0,0.0,0.0,0.0,0.0,0.0,1.2663,1.2509,1.2509,1.3128,1.4048,1.4955,1.5972,1.7102,1.8273,1.8724,1.8909,1.9219,1.9199,1.9687,2.2024,2.2152,2.2181,2.3652,2.3944,2.3859,2.3543,2.3748,2.3614,2.2586,2.2477,2.2434,2.221,2.1678,2.1109,2.0749,1.9729,1.8971,1.8831,1.8337,1.8008,1.8008,1.8008,1.8008,1.8008,1.8008,1.8008,1.8008,1.8008,1.8008,1.8008,1.8008,1.8008,1.8008,1.8008,1.8008,1.7974,1.7647,1.7139,1.6567,1.621,1.5155,1.3709,1.3709,1.3491,1.3273,1.4243,1.4243,1.3673,1.331,1.2806,1.2305,0.0,0.0,0.0,0.0,0.0,0.0,0.0,0.0,0.0,0.0,0.0,0.0,0.0,0.0,0.0,0.0,0.0,0.0,0.9907,1.0274,1.109,1.2558,1.2684,1.3341,1.4612,1.4282,1.3941,1.36,1.36,1.3946,1.4663,1.4663,1.4816,1.5149,1.5149,1.4937,1.4669,1.4877,1.5008,1.5001,1.4863,1.4823,0.0,0.0,0.0,0.0,0.0,0.0,0.0,0.0,1.2589,1.2318,1.2412,1.3029,1.389,1.4914,1.5955,1.7031,1.8264,1.8598,1.8676,1.9014,1.8724,1.9138,2.179,2.2104,2.2298,2.4044,2.4401,2.4191,2.3557,2.3966,2.405,2.304,2.2868,2.2761,2.2599,2.2065,2.1625,2.1422,2.0402,1.9595,1.9332,1.8754,1.8303,1.8008,1.8008,1.8008,1.8008,1.8008,1.8008,1.8008,1.8008,1.8008,1.8008,1.8008,1.8008,1.8008,1.8008,1.8008,1.8008,1.8008,1.7647,1.7035,1.7035,1.6114,1.4593,1.4314,1.4171,1.4243,1.4914,1.4772,1.4171,1.4171,1.3382,1.2335,0.0,0.0,0.0,0.0,0.0,0.0,0.0,0.0,0.0,0.0,0.0,0.0,0.0,0.0,0.0,0.0,0.0,0.0,0.7402,0.8483,0.9777,1.1217,1.2143,1.3345,1.4957,1.4396,1.3948,1.3613,1.3613,1.4102,1.5008,1.5008,1.5117,1.5391,1.5391,1.5231,1.5008,1.5008,1.5008,1.4981,1.4643,1.4479,0.0,0.0,0.0,0.0,0.0,0.0,0.0,0.0,1.2583,1.2358,1.269,1.3205,1.389,1.4914,1.6145,1.7396,1.8341,1.8598,1.8598,1.8598,1.8286,1.8606,2.0875,2.1385,2.2029,2.4315,2.4775,2.4504,2.349,2.4108,2.4471,2.3478,2.4141,2.4587,2.4067,2.325,2.2492,2.1968,2.1132,2.0268,1.9398,1.9299,1.8944,1.8076,1.8008,1.8008,1.8008,1.8008,1.8008,1.8008,1.8008,1.8008,1.8008,1.8008,1.8008,1.8008,1.8008,1.8008,1.8008,1.8008,1.8008,1.8008,1.8008,1.7467,1.6532,1.5587,1.5199,1.5199,1.5234,1.5234,1.5199,1.5199,1.3983,1.2445,0.0,0.0,0.0,0.0,0.0,0.0,0.0,0.0,0.0,0.0,0.0,0.0,0.0,0.0,0.0,0.0,0.0,0.0,0.7108,0.8245,0.9561,1.0885,1.2086,1.3427,1.4957,1.4834,1.4556,1.4219,1.4219,1.4502,1.5008,1.5008,1.5055,1.5142,1.5142,1.493,1.4663,1.4921,1.4843,1.4663,1.4783,1.471,0.0,0.0,0.0,0.0,0.0,0.0,0.0,0.0,0.0,0.0,1.2472,1.2855,1.3606,1.4852,1.5635,1.637,1.7802,1.8159,1.8159,1.8159,1.8552,1.9241,2.0543,2.0847,2.1468,2.3758,2.4243,2.426,2.4332,2.4302,2.4135,2.3825,2.3704,2.3547,2.3384,2.3132,2.2905,2.2744,2.2032,2.1396,2.1144,2.0009,1.9199,1.8944,1.8337,1.8008,1.8008,1.8008,1.8008,1.8008,1.8008,1.8008,1.8008,1.8008,1.8008,1.8008,1.8008,1.8008,1.8008,1.8008,1.8008,1.8008,1.8008,1.7467,1.6567,1.628,1.6175,1.6254,1.6906,1.6759,1.6175,1.6175,1.5403,1.4271,0.0,0.0,0.0,0.0,0.0,0.0,0.0,0.0,0.0,0.0,0.0,0.0,0.0,0.0,0.0,0.0,0.0,0.0,0.0,0.0,0.9923,1.0692,1.2493,1.397,1.4957,1.5122,1.505,1.487,1.4636,1.4669,1.5008,1.4843,1.4783,1.4783,1.4783,1.4623,1.4362,1.4543,1.4516,1.4362,1.4543,1.4509,1.4349,0.0,0.0,0.0,0.0,0.0,0.0,0.0,0.0,0.0,1.2719,1.2919,1.3519,1.5125,1.584,1.6483,1.8273,1.8643,1.8516,1.8516,1.8654,1.911,2.0333,2.1132,2.198,2.3362,2.3653,2.3722,2.4061,2.3847,2.3653,2.3653,2.3333,2.3108,2.3108,2.3108,2.3108,2.3108,2.2659,2.2261,2.1939,2.0942,2.0204,1.9846,1.9011,1.8529,1.8529,1.8202,1.8008,1.8008,1.8008,1.8008,1.8008,1.8008,1.8008,1.8008,1.8008,1.8008,1.8008,1.8008,1.8008,1.8008,1.8008,1.7467,1.6636,1.7001,1.6922,1.6706,1.7647,1.7432,1.6636,1.7035,1.6332,1.5163,0.0,0.0,0.0,0.0,0.0,0.0,0.0,0.0,0.0,0.0,1.4088,0.0,0.0,0.0,0.0,0.0,0.0,0.0,0.0,0.0,1.0481,1.0611,1.3169,1.4743,1.5082,1.5304,1.5438,1.5438,1.485,1.4696,1.5001,1.4663,1.4502,1.4482,1.4482,1.4335,1.4088,1.4088,1.4088,1.4088,1.4088,1.4088,1.4088,1.4088,0.0,0.0,0.0,0.0,0.0,0.0,0.0,0.0,1.322,1.3247,1.3657,1.5642,1.6522,1.7311,1.9317,1.9551,1.9228,1.9228,1.8709,1.8654,2.0333,2.1923,2.3045,2.3095,2.3108,2.3108,2.3108,2.3108,2.3108,2.3108,2.3108,2.3108,2.3108,2.3108,2.3108,2.3108,2.3108,2.2823,2.2063,2.1939,2.1553,2.0782,1.9911,1.9377,1.9236,1.8533,1.8056,1.7959,1.7988,1.8008,1.8008,1.8008,1.8008,1.8008,1.8008,1.8008,1.8008,1.8008,1.8008,1.8008,1.8008,1.7501,1.6784,1.7647,1.7501,1.6819,1.7681,1.7467,1.6819,1.7681,1.6906,1.5552,0.0,0.0,0.0,0.0,0.0,0.0,0.0,0.0,0.0,0.0,0.0,0.0,0.0,0.0,0.0,0.0,0.0,0.0,0.0,0.0,0.9705,1.0687,1.3607,1.5344,1.5638,1.5705,1.5684,1.5684,1.515,1.4948,1.5001,1.4663,1.4396,1.4182,1.4182,1.4142,1.4088,1.4088,1.4088,1.4088,1.4088,1.4088,1.4088,1.4088,1.4048,0.0,0.0,0.0,0.0,0.0,0.0,0.0,1.328,1.3527,1.4207,1.5746,1.6445,1.7144,1.8928,1.9111,1.8744,1.8744,1.9414,2.0333,2.1396,2.2055,2.2581,2.3007,2.3108,2.3108,2.3108,2.3108,2.3108,2.3108,2.3108,2.3108,2.3108,2.3108,2.3108,2.3108,2.3108,2.3035,2.2854,2.2261,2.1815,2.1616,2.0814,1.9846,1.8806,1.8913,1.8568,1.7562,1.7842,1.8008,1.8008,1.8008,1.8008,0.0,1.8008,1.8008,1.8008,1.8008,1.8008,1.8008,1.8008,1.7906,1.7716,1.7906,1.7862,1.7716,1.794,1.7862,1.7716,1.794,1.7725,1.7329,0.0,0.0,0.0,0.0,0.0,0.0,0.0,0.0,0.0,0.0,0.0,0.0,0.0,0.0,0.0,0.0,0.0,0.0,0.0,0.0,0.9534,1.0963,1.3148,1.4532,1.4889,1.5486,1.5784,1.5784,1.5251,1.5008,1.5008,1.4803,1.4502,1.4095,1.4229,1.4215,1.4088,1.4088,1.4088,1.4088,1.4088,1.4088,1.4088,1.4088,1.4088,1.4068,1.3915,0.0,0.0,0.0,0.0,0.0,0.0,0.0,1.435,1.5599,1.6332,1.7005,1.8412,1.8713,1.8559,1.8354,1.9142,2.0149,2.074,2.1301,2.1788,2.2247,2.2347,2.2347,2.2347,2.2347,2.2406,2.2669,2.2706,2.2807,2.3058,2.3108,2.3108,2.3108,2.3108,2.3108,2.3108,2.272,2.2476,2.2476,2.1443,2.0327,1.927,1.8807,1.8231,1.7416,1.7598,1.7803,1.8008,1.8008,1.8008,1.8008,1.8008,1.8008,1.8008,1.8008,1.8008,1.8008,1.8008,1.8008,1.8008,1.8008,1.8008,1.8008,1.8008,1.8008,1.8008,1.8008,1.8008,1.794,0.0,0.0,0.0,0.0,0.0,0.0,0.0,0.0,0.0,0.0,0.0,0.0,0.0,0.0,0.0,0.0,0.0,0.0,0.0,0.8815,0.9576,1.0936,1.2471,1.3501,1.3866,1.5102,1.5752,1.5752,1.5224,1.5008,1.5008,1.4908,1.4583,1.4168,1.4362,1.4309,1.4088,1.4088,1.4088,1.4088,1.4088,1.4088,1.4088,1.4088,1.4088,1.4088,1.4088,1.4088,1.4088,1.4088,0.0,0.0,0.0,0.0,1.4192,1.5277,1.5972,1.6651,1.7949,1.8461,1.85,1.8115,1.8664,1.9358,1.9635,2.0301,2.0937,2.1218,2.1397,2.1493,2.1493,2.1493,2.1669,2.2221,2.2309,2.2498,2.3032,2.3108,2.3108,2.3108,2.3108,2.3108,2.3108,2.302,2.2957,2.2957,2.1799,2.0712,1.9897,1.8807,1.7978,1.7474,1.7563,1.7671,1.79,1.79,1.7871,1.7793,1.7871,1.7939,1.8008,1.8008,1.8008,1.8008,1.8008,1.8008,1.8008,1.8008,1.8008,1.8008,1.8008,1.8008,1.8008,1.8008,1.8008,1.7998,0.0,0.0,0.0,0.0,0.0,0.0,0.0,0.0,0.0,0.0,1.4088,1.3584,1.2271,1.1263,0.0,0.0,0.0,0.0,0.7171,0.0,0.0,0.9743,1.2256,1.3731,1.392,1.491,1.5451,1.5451,1.5169,1.5008,1.4995,1.4442,1.4295,1.4449,1.4242,1.4122,1.4088,1.4088,1.4088,1.4088,1.4088,1.4088,1.4088,1.4088,1.4088,1.4088,1.4088,1.4088,1.4088,1.4088,1.3915,0.0,0.0,0.0,1.3607,1.4962,1.5204,1.5537,1.7716,1.8461,1.85,1.8115,1.8664,1.9321,1.9357,1.9848,2.0309,2.0354,2.0978,2.1493,2.1493,2.1493,2.1669,2.2221,2.2309,2.2498,2.3032,2.3108,2.3108,2.3108,2.3108,2.3108,2.3108,2.2669,2.2422,2.2422,2.1793,2.092,1.9705,1.9784,1.9223,1.7802,1.8122,1.8058,1.7504,1.7471,1.7275,1.6872,1.7285,1.7656,1.8008,1.8008,1.8008,1.8008,1.8008,1.8008,1.8008,1.8008,1.8008,1.8008,1.8008,1.8008,1.8008,1.8008,1.8008,1.7959,0.0,0.0,0.0,0.0,0.0,0.0,0.0,0.0,0.0,0.0,0.0,1.38,1.295,1.136,0.0,0.0,0.0,0.0,0.6879,0.7567,0.0,0.0,1.0817,1.231,1.2458,1.4237,1.5202,1.5202,1.4856,1.4883,1.5197,1.4609,1.4489,1.4763,1.468,1.4482,1.4315,1.4155,1.4088,1.4088,1.4088,1.4088,1.4088,1.4088,1.4088,1.4088,1.4088,1.3981,1.3841,1.3841,1.3706,1.3573,1.3413,0.0,0.0,0.0,1.4297,1.4888,1.6813,1.7421,1.7546,1.791,1.8303,1.8626,1.8821,1.906,1.9248,1.9159,1.9771,2.037,2.0521,2.0539,2.0727,2.1292,2.1644,2.2046,2.2569,2.2907,2.3108,2.3108,2.3108,2.3108,2.3108,2.2882,2.2606,2.2305,2.1794,2.0952,1.967,1.9452,1.8777,1.7506,1.7654,1.7523,1.7012,1.7021,1.6892,1.6697,1.6892,1.7246,1.7656,1.7656,1.7793,1.8008,1.8008,1.8008,1.8008,1.8008,1.8008,1.8008,1.8008,1.8008,1.8008,1.8008,1.8008,1.7949,0.0,0.0,0.0,0.0,0.0,0.0,0.0,0.0,0.0,0.0,0.0,0.0,1.3633,0.0,0.0,0.0,0.0,0.0,0.6865,0.0,0.0,0.0,0.0,1.087,1.1278,1.3372,1.4569,1.485,1.4556,1.4669,1.5164,1.4723,1.4676,1.5008,1.4928,1.4689,1.4396,1.4175,1.4088,1.4088,1.4088,1.4088,1.4088,1.4088,1.4088,1.4088,1.4088,1.3941,1.3713,1.3713,1.3613,1.3453,1.328,1.3214,0.0,0.0,0.0,1.4499,1.5858,1.65,1.6947,1.7788,1.8086,1.8183,1.8324,1.8454,1.8449,1.8213,1.8834,1.9427,1.9522,1.9669,1.9987,2.0591,2.1157,2.1681,2.2234,2.2757,2.3108,2.3108,2.3108,2.3108,2.3108,2.2982,2.2669,2.2146,2.1594,2.0809,1.9712,1.9209,1.86,1.7796,1.7584,1.726,1.6833,1.6507,1.6424,1.6562,1.6648,1.6963,1.7383,1.7383,1.7607,1.8008,1.8008,1.8008,1.8008,1.8008,1.8008,1.8008,1.8008,1.8008,1.8008,1.8008,1.8008,1.7939,0.0,0.0,0.0,0.0,0.0,0.0,0.0,0.0,0.0,0.0,0.0,0.0,1.3633,1.1704,1.0223,0.9759,0.0,0.0,0.0,0.0,0.0,0.0,0.0,0.0,1.1278,1.2372,1.3454,1.4543,1.4255,1.4269,1.4563,1.4492,1.4676,1.4995,1.4669,1.4382,1.4108,1.4095,1.4088,1.4088,1.4088,1.4088,1.4088,1.4088,1.4088,1.4088,1.4088,1.4075,1.4062,1.4062,1.3694,1.3233,1.3213,1.2826,1.2425,0.0,0.0,0.0,1.5083,1.6208,1.7313,1.7865,1.8276,1.8461,1.811,1.8266,1.8385,1.7925,1.8668,1.9262,1.8836,1.9333,1.9987,2.0591,2.1157,2.1681,2.2234,2.2757,2.3108,2.3108,2.3108,2.3108,2.3108,2.2631,2.2121,2.1568,2.1043,2.0451,1.9822,1.9759,1.9591,1.9293,1.8601,1.7904,1.7195,1.6038,1.5684,1.6134,1.6533,1.6963,1.7383,1.7383,1.7607,1.8008,1.8008,1.8008,1.8008,1.8008,1.8008,1.8008,1.8008,1.8008,1.8008,1.8008,1.8008,1.7891,0.0,0.0,0.0,0.0,0.0,0.0,0.0,0.0,0.0,0.0,0.0,0.0,0.0,1.1801,1.0336,1.0177,0.8032,0.0,0.0,0.0,0.0,0.0,0.0,0.0,1.1904,1.2293,1.304,1.4242,1.4135,1.4235,1.4522,1.4522,1.4576,1.4676,1.4569,1.4462,1.4355,1.4168,1.4088,1.4088,1.4088,1.4088,1.4088,1.4088,1.4088,1.4088,1.4088,1.3968,1.376,1.376,1.354,1.3173,1.3012,1.2797,1.261,1.2522,1.2719,1.3167,1.4021,1.5048,1.6112,1.689,1.7649,1.8193,1.8047,1.8083,1.8068,1.7638,1.7997,1.8394,1.8419,1.9194,1.9987,2.0591,2.1157,2.1681,2.2234,2.2757,2.3108,2.3108,2.3108,2.3108,2.3108,2.2932,2.2581,2.2058,2.1506,2.0981,2.0415,1.9999,1.9536,1.8961,1.869,1.7985,1.6772,1.5857,1.5488,1.5644,1.5811,1.6269,1.6963,1.6963,1.7197,1.7607,1.7607,1.7764,1.8008,1.8008,1.8008,1.8008,1.8008,1.8008,1.8008,1.8008,1.7842,1.7529,0.0,0.0,0.0,0.0,0.0,0.0,0.0,0.0,0.0,1.4102,0.0,0.0,0.0,0.0,1.069,0.9905,0.8267,0.7105,0.674,0.6844,0.0,0.0,0.0,0.0,1.1847,1.2155,1.2942,1.4229,1.4135,1.4182,1.4376,1.4376,1.4376,1.4376,1.4376,1.4376,1.4362,1.4168,1.4088,1.4088,1.4088,1.4088,1.4088,1.4088,1.4088,1.4088,1.4088,1.3961,1.3753,1.3753,1.356,1.33,1.3038,1.2797,1.2596,1.2365,1.2305,1.2519,1.3455,1.4537,1.5598,1.6385,1.7423,1.8188,1.8188,1.8115,1.793,1.7656,1.7831,1.8039,1.8132,1.9114,2.0093,2.0627,2.1307,2.1895,2.2259,2.2757,2.3108,2.3108,2.3108,2.3108,2.3108,2.3108,2.2882,2.2347,2.1794,0.0,2.0729,2.0138,1.9449,1.8715,1.8688,1.8124,1.6866,1.6386,1.5997,1.5787,1.6178,1.6426,1.6504,1.6743,1.6991,1.7158,1.7012,1.7187,1.7545,1.7545,1.7666,1.7803,1.7803,1.7881,1.8008,1.8008,1.7744,1.7314,0.0,0.0,0.0,0.0,0.0,0.0,0.0,0.0,1.4402,1.4122,0.0,0.0,0.0,0.0,0.0,0.8967,0.8567,0.7967,0.683,0.6893,0.0,0.0,0.0,0.0,1.1117,1.1852,1.2985,1.4522,1.4229,1.4088,1.4088,1.4088,1.4088,1.4088,1.4088,1.4088,1.4088,1.4088,1.4088,1.4088,1.4088,1.4088,1.4088,1.4088,1.4088,1.4088,1.4088,1.4088,1.4088,1.4088,1.3895,1.3553,1.3293,1.2786,1.2305,1.2305,1.2305,1.2519,0.0,0.0,0.0,1.6412,1.7542,1.8543,1.8588,1.8266,1.8008,1.8008,1.8243,1.8353,1.7905,1.9093,2.0268,2.06,2.1578,2.2322,2.2305,2.2769,2.3108,2.3108,2.3108,2.3108,2.3108,2.3108,2.2882,2.2343,2.1832,2.1307,2.0742,2.0125,1.9475,1.8768,1.8715,1.8367,1.7633,1.7605,1.7219,1.6521,1.77,1.7533,1.6155,1.6867,1.7022,1.6689,1.6281,1.6299,1.6668,1.6687,1.6982,1.7363,1.7363,1.7607,1.7978,1.7978,1.7705,1.7285,0.0,0.0,0.0,0.0,0.0,1.5102,1.5022,1.4529,1.4175,0.0,0.0,0.0,1.4108,1.3027,1.1701,1.0181,1.0037,0.947,0.8249,0.8283,0.8284,0.8195,0.7795,0.9094,1.2269,1.1505,1.2204,1.4522,1.4229,1.4088,1.4088,1.4088,1.4088,1.4088,1.4088,1.4088,1.4088,1.4088,1.4088,1.4088,1.4088,1.4088,1.4088,1.4088,1.4088,1.4088,1.4088,1.4088,1.4088,1.4088,1.3895,1.3513,1.3079,1.265,1.2305,1.2305,1.2305,1.2378,1.2629,0.0,0.0,0.0,0.0,0.0,1.8002,1.8096,1.8008,1.8008,1.7833,1.7845,1.8227,1.8721,1.9256,1.987,2.1274,2.2447,2.2819,2.3007,2.3108,2.3108,2.3108,2.3108,2.3108,2.3108,2.3045,0.0,2.2397,2.1845,2.132,2.0338,1.9721,1.9501,1.8992,1.8608,1.8394,1.7879,1.7219,1.6521,1.7389,1.747,1.6886,1.7104,1.7137,1.7021,1.6386,1.5987,1.58,1.6434,1.6775,1.6882,1.6882,1.695,1.7058,1.7058,1.6807,1.6447,0.0,0.0,0.0,0.0,0.0,1.5244,1.5042,1.4713,1.4409,0.0,0.0,0.0,1.4108,1.3572,1.2709,1.1434,1.1295,1.0813,0.9582,0.9554,0.9356,0.8815,0.8649,0.9662,1.2043,1.1592,1.2377,1.4522,1.4229,1.4088,1.4088,1.4088,1.4088,1.4088,1.4088,1.4088,1.4088,1.4088,1.4088,1.4088,1.4088,1.4088,1.4088,1.4088,1.4088,1.4088,1.4088,1.4088,1.4088,1.4088,1.3895,1.352,1.3093,1.2819,1.2632,1.2378,1.2392,1.2496,1.2338,1.2989,1.3954,1.495,0.0,0.0,1.8016,1.8135,1.8057,1.8208,1.7939,1.777,1.8203,1.8608,1.9019,1.9446,2.0684,2.1837,2.25,2.2884,2.3108,2.3108,2.3321,2.3371,2.3133,2.3321,2.3358,2.312,2.2594,2.197,2.1219,2.0288,1.9798,1.9798,1.9385,1.915,1.915,1.8741,1.814,1.744,1.8178,1.8109,1.737,1.7674,1.7485,1.6871,1.6462,1.5939,1.5449,1.5937,1.6258,1.6455,1.6455,1.6562,1.6697,1.6697,1.6445,1.6095,0.0,0.0,1.5784,1.5784,1.5758,1.5605,1.5135,1.5001,1.483,0.0,1.4342,1.4195,1.4229,1.4402,1.3976,1.2697,1.2534,1.204,1.0906,1.0794,1.0265,0.9148,1.0053,1.0804,1.1295,1.1939,1.3028,1.4522,1.4229,1.4088,1.4088,1.4088,1.4088,1.4088,1.4088,1.4088,1.4088,1.4088,1.4088,1.4088,1.4088,1.4088,1.4088,1.4088,1.4088,1.4088,1.4088,1.4088,1.4088,1.4088,1.3895,1.356,1.33,1.3233,1.31,1.2518,1.2576,1.2717,1.2385,1.2915,1.3781,1.4772,1.5649,0.0,1.8072,1.8099,1.7968,1.8451,1.8237,1.8008,1.8008,1.866,1.9206,1.9144,1.9922,2.0807,2.1628,2.2384,2.2836,2.2898,2.3356,2.3555,2.3169,2.3561,2.3654,2.3233,2.2631,2.1857,2.0842,2.0213,1.9874,1.9798,1.9798,1.9798,1.9798,1.9798,1.9423,1.8715,1.9449,1.9071,1.7731,1.8394,1.7977,1.6736,1.6652,1.6197,1.5526,1.5526,1.5723,1.6016,1.6016,1.623,1.6551,1.6551,1.6328,1.6016,0.0,1.5784,1.5784,1.5784,1.5631,1.5444,1.5331,1.491,1.4669,1.4901,1.4874,1.4928,1.5117,1.477,1.4502,1.4453,1.4047,1.3346,1.2447,1.2138,1.1466,1.0308,1.0481,1.1191,1.2445,1.2377,1.3028,1.4522,1.4229,1.4088,1.4088,1.4088,1.4088,1.4088,1.4088,1.4088,1.4088,1.4088,1.4088,1.4088,1.4088,1.4088,1.4088,1.4088,1.4088,1.4088,1.4088,1.4088,1.4088,1.4088,1.3895,1.3593,1.354,1.336,1.314,1.2804,1.2737,1.2717,1.2385,1.2445,1.2806,1.3738,1.4135,0.0,1.6552,1.6943,1.7123,1.7934,1.8066,1.8008,1.8008,1.8419,1.8631,1.8329,1.9243,2.0245,2.0775,2.1005,2.1218,2.1543,2.168,2.2159,2.3144,2.299,2.3074,2.3779,2.2887,2.202,2.1395,2.083,2.0314,1.9823,1.9798,1.9798,1.9798,1.9798,1.9423,1.8715,1.9449,1.9345,1.8501,1.8635,1.8543,1.8232,1.7633,1.6978,1.6293,1.6293,1.6,1.5537,1.5537,1.5586,1.5634,1.5634,1.5615,1.5537,1.5784,1.5784,1.5784,1.5784,1.5712,1.5565,1.5418,1.515,1.501,1.5164,1.5304,1.5337,1.5197,1.505,1.4957,1.5008,1.4563,1.4097,1.3698,1.336,1.2681,1.1515,1.1466,1.1785,1.2516,1.2392,1.2961,1.4302,1.4162,1.4088,1.4088,1.4088,1.4088,1.4088,1.4088,1.4088,1.4088,1.4088,1.4088,1.4088,1.4088,1.4088,1.4088,1.4088,1.4088,1.4088,1.4088,1.4088,1.4088,1.4088,1.3988,1.3841,1.3646,1.3606,1.3527,1.2965,1.2898,1.2918,1.2425,1.2305,1.2519,1.3455,1.3709,0.0,0.0,1.5895,1.6044,1.6515,1.6985,1.7239,1.7013,1.7538,1.7939,1.7734,1.8411,1.9032,1.9264,2.0216,2.0973,2.1185,2.1643,2.2115,2.2559,2.3043,2.3529,2.3979,2.2949,2.2184,2.192,2.1144,2.0566,2.0264,1.9949,1.9798,1.9798,1.9798,1.9605,1.9254,1.9605,1.9618,1.9254,1.9254,1.9044,1.8688,1.8301,1.7523,1.6521,1.6894,1.6613,1.5921,1.5555,1.5613,1.5892,1.5555,1.541,1.541,1.5784,1.5784,1.5784,1.5784,1.5784,1.5752,1.5518,1.5431,1.5398,1.5398,1.5651,1.5651,1.5177,1.5291,1.5324,1.515,1.481,1.4603,1.4603,1.4335,1.373,1.2753,1.2662,1.2656,1.2704,1.2656,1.3118,1.4088,1.4088,1.4088,1.4088,1.4088,1.4088,1.4088,1.4088,1.4088,1.4088,1.4088,1.4088,1.4088,1.4088,1.4088,1.4088,1.4088,1.4088,1.4082,1.4021,1.3968,1.3928,1.3981,1.4001,1.3968,1.3746,1.3895,1.3935,1.3186,1.306,1.3093,1.2538,1.2345,1.2482,1.3244,1.3419,1.3709,0.0,0.0,0.0,1.5163,1.5807,1.6209,1.5838,1.6444,1.7049,1.7225,1.7547,1.7837,1.7974,1.9562,2.0739,2.0836,2.1609,2.2095,2.1941,2.3294,2.4109,2.3889,2.311,2.2585,2.2443,2.1518,2.0918,2.0704,2.0239,1.9911,1.9798,1.9798,1.9798,1.9798,1.9798,1.9798,1.9798,1.9798,1.9475,1.89,1.89,1.8151,1.6978,1.7578,1.7468,1.6838,1.595,1.5979,1.6407,1.5671,1.5497,1.5584,1.5784,1.5784,1.5784,1.5784,1.5784,1.5771,1.5738,1.5565,1.5398,1.5398,1.5651,1.5758,1.5738,1.5531,1.5484,1.5712,1.5231,1.4955,1.4955,1.4636,1.4382,1.4245,1.4002,1.4031,1.4239,1.4038,1.3955,1.4088,1.4088,1.4088,1.4088,1.4088,1.4088,1.4088,1.4088,1.4088,1.4088,1.4088,1.4088,1.4088,1.4088,1.4088,1.4088,1.4088,1.4088,1.4055,1.3746,1.3487,1.3347,1.3567,1.3653,1.3693,1.3968,1.4062,1.4015,1.3647,1.3347,1.3133,1.2831,1.2543,1.2342,1.2445,1.2445,1.2696,1.3629,0.0,1.4135,1.5021,0.0,1.5323,1.5282,0.0,0.0,1.6573,1.6844,1.7201,1.7906,1.8508,1.9052,1.9475,1.9952,2.0696,2.1876,2.3343,2.3982,2.3409,2.3644,2.3577,2.3045,2.2431,2.1681,2.0729,2.0629,2.0352,1.9811,1.9798,1.9798,1.9798,1.9798,1.9798,1.9798,1.9798,1.9747,1.9669,1.9669,1.9202,1.8474,1.8528,1.8528,1.8301,1.6922,1.6436,1.6407,1.5671,1.5806,1.6293,1.5784,1.5784,1.5784,1.5784,1.5784,1.5784,1.5784,1.5678,1.5651,1.5651,1.5752,1.5784,1.5784,1.5718,1.5698,1.5771,1.5451,1.5217,1.5217,1.4937,1.4776,1.4776,1.4496,1.4396,1.4516,1.4235,1.4088,1.4088,1.4088,1.4088,0.0,0.0,1.4088,1.4088,1.4088,1.4088,1.4088,1.4088,1.3988,1.3841,1.4015,1.4386,1.4769,1.4266,1.3981,1.3753,1.3453,1.3313,1.3227,1.3313,1.346,1.3626,1.3753,1.3948,1.3995,1.3527,1.3307,1.3106,1.2619,1.2398,1.2305,1.2305,1.2305,1.2409,1.2806,1.2879,1.3025,1.3448,0.0,0.0,0.0,0.0,0.0,0.0,1.6121,1.6811,1.7148,1.8248,1.9082,1.9268,0.0,0.0,2.1523,2.2143,2.2838,2.3762,2.3676,2.3609,2.3634,2.307,2.2435,2.1644,2.1031,2.0578,2.0327,1.9962,1.9798,1.9798,1.9798,1.9798,1.9798,1.9798,1.9798,1.9798,1.9798,1.9385,1.8741,1.9176,1.9097,1.8635,1.8015,1.7523,1.7062,1.6312,1.6236,1.6464,1.5784,1.5784,1.5784,1.5784,1.5784,1.5784,1.5784,1.5784,1.5784,1.5784,1.5784,1.5784,1.5784,1.5784,1.5784,1.5784,1.5638,1.5484,1.5398,1.5197,1.5129,1.5129,1.4803,1.4643,1.4643,1.4355,1.4168,1.4088,1.4088,1.4088,0.0,0.0,1.4088,1.4088,1.4088,1.4088,1.4088,1.4088,1.3961,1.374,1.4001,1.4642,1.5327,1.4683,1.4022,1.3447,1.3193,1.3033,1.2973,1.3053,1.322,0.0,1.346,1.3674,1.3761,1.3333,1.3343,1.3329,1.262,1.2543,1.2629,1.2372,1.2305,1.2305,1.2305,1.2305,1.2305,1.2305,1.2842,0.0,0.0,0.0,1.3893,1.4231,0.0,1.5835,1.6166,1.7358,1.8415,1.902,0.0,0.0,0.0,2.11,2.1963,2.3723,2.3647,2.3722,2.4192,2.3647,2.302,2.2305,2.1393,2.0842,2.0691,2.0087,1.9798,1.9798,1.9798,1.9798,1.9798,1.9798,1.9798,1.9798,1.9798,1.9501,1.9044,1.9579,1.9475,1.9006,1.9006,1.8555,1.7825,1.7062,1.6922,1.7062,1.5784,1.5784,1.5784,1.5784,1.5784,1.5784,1.5784,1.5784,1.5784,1.5784,1.5784,1.5784,1.5784,1.5784,1.5784,1.5784,1.5771,1.5698,1.5418,1.5391,1.5384,1.5384,1.5149,1.4995,1.4995,1.4656,1.4369,1.4088,1.4088,1.4088,0.0,0.0,1.4088,1.4088,1.4088,1.4088,1.4088,1.4088,1.4082,1.4075,1.4082,1.4727,1.5651,1.5385,1.4409,1.318,1.2911,0.0,0.0,1.2703,1.2804,0.0,0.0,0.0,0.0,0.0,0.0,0.0,0.0,0.0,0.0,1.2519,0.0,0.0,0.0,1.2305,1.2305,1.2305,1.2335,1.2335,1.2328,1.213,1.2386,1.3534,1.3547,0.0,0.0,1.5286,1.6148,1.8347,1.9033,1.9333,0.0,2.0606,2.1829,0.0,2.3711,2.4355,2.4755,2.4268,2.3464,2.2347,2.1757,2.1232,2.0704,2.0087,1.9798,1.9798,1.9798,1.9798,1.9798,1.9798,1.9798,1.9798,1.9798,1.9798,1.9773,1.9798,1.9798,1.9747,1.9747,1.9307,1.8581,1.7852,1.8015,1.8528,1.5784,1.5784,1.5784,1.5784,1.5784,1.5784,1.5784,1.5784,1.5784,1.5784,1.5784,1.5784,1.5784,1.5784,1.5784,1.5784,1.5784,1.5738,1.5691,1.5678,1.5678,1.5678,1.5404,1.5251,1.5251,1.477,1.4476,1.4369,1.4182,1.4088,1.4088,1.4088,1.4088,1.4088,1.4088,1.4088,1.4088,1.4088,1.3975,1.3912,1.5375,1.5868,1.5741,0.0,1.5466,1.4299,1.4675,1.4117,0.0,1.412,1.4524,1.4687,1.4773,1.4476,1.4229,1.4653,1.4509,0.0,0.0,0.0,1.445,1.3455,0.0,0.0,0.0,0.0,0.0,0.0,1.2305,1.2305,1.2305,1.2225,1.2294,1.2718,1.3223,1.3726,0.0,1.5053,1.6075,1.7149,1.8471,1.918,1.8887,0.0,0.0,2.1807,2.2797,0.0,0.0,2.4265,2.3998,2.2857,2.197,2.1393,2.1232,2.0275,1.9798,1.9798,1.9798,1.9798,1.9798,1.9798,1.9798,1.9798,1.9798,1.9798,1.9798,1.9798,1.9798,1.9798,1.9798,1.9643,1.9345,1.8608,1.8501,1.8661,1.5784,1.5784,1.5784,1.5784,1.5784,1.5784,1.5784,1.5784,1.5784,1.5784,1.5784,1.5784,1.5784,1.5784,1.5784,1.5784,1.5784,1.5784,1.5784,1.5784,1.5784,1.5784,1.5651,1.5504,1.5398,1.5023,1.473,1.4522,1.4335,1.4188,1.4088,1.4088,1.4088,1.4088,1.4088,1.4088,1.413,1.4496,1.4337,1.396,1.6181,1.6951,1.6976,0.0,1.6865,1.5071,0.0,1.5215,1.4506,1.5026,1.5312,1.5465,1.5465,1.516,1.4892,1.532,1.5255,1.5061,1.5158,1.5446,0.0,1.4265,1.3986,0.0,1.2924,0.0,1.3057,0.0,0.0,0.0,1.2806,1.2519,1.2305,1.2305,1.2806,1.32,0.0,1.4324,1.5377,1.6009,1.7589,1.8555,1.8393,1.8809,1.9653,2.1083,2.2235,2.312,0.0,0.0,2.4362,2.3446,2.2171,2.1493,2.1493,2.0363,1.9798,1.9798,1.9798,1.9798,1.9798,1.9798,1.9798,1.9798,1.9798,1.9798,1.9798,1.9798,1.9798,1.9798,1.9798,1.9798,1.9747,1.9254,1.9097,1.9097,1.5784,1.5784,1.5784,1.5784,1.5784,1.5784,1.5784,1.5784,1.5784,1.5784,1.5784,1.5784,1.5784,1.5784,1.5784,1.5784,1.5784,1.5784,1.5784,1.5784,1.5784,1.5784,1.5784,1.5698,1.5424,1.5404,1.5117,1.4543,1.4529,1.4369,1.4088,1.4088,1.4088,1.4088,1.4088,1.4088,1.4166,1.5255,1.5179,1.4538,1.6568,1.8029,1.9116,2.0196,1.8469,1.5548,1.5868,1.5928,1.5816,1.5457,1.534,1.534,1.534,1.5305,1.5269,1.5305,1.593,1.6419,1.5587,1.6009,1.633,1.4907,0.0,0.0,0.0,0.0,1.441,0.0,0.0,0.0,0.0,0.0,1.2399,1.2399,1.2348,1.2305,1.2305,1.3113,1.4112,1.5092,1.6489,1.7549,1.7969,1.8334,1.9168,2.0617,2.2013,2.321,0.0,0.0,2.4505,2.4017,2.2359,2.1493,2.1493,2.0363,1.9798,1.9798,1.9798,1.9798,1.9798,1.9798,1.9798,1.9798,1.9798,1.9798,1.9798,1.9798,1.9798,1.9798,1.9798,1.9798,1.9798,1.9798,1.9798,1.9798,1.5784,1.5784,1.5784,1.5784,1.5784,1.5784,1.5784,1.5784,1.5784,1.5784,1.5784,1.5784,1.5784,1.5784,1.5784,1.5784,1.5784,1.5784,1.5784,1.5784,1.5784,1.5784,1.5784,1.5792,1.5718,1.5504,1.5217,1.485,1.4629,1.4369,1.4088,1.4088,1.4088,1.4088,1.4088,1.4088,1.4166,1.5255,1.6478,1.7787,1.835,1.8758,1.9116,0.0,1.9534,1.8097,1.8322,1.7715,1.6902,1.7183,1.7295,1.7295,1.7295,1.6793,1.6393,1.7079,1.6966,1.6706,1.7148,1.7476,1.7294,1.5902,1.5526,1.5238,0.0,0.0,0.0,0.0,0.0,0.0,0.0,0.0,1.3739,1.3851,1.2989,1.2305,1.2305,1.345,1.4509,1.513,1.6489,1.7549,1.7969,1.8105,1.8581,1.9617,2.0728,2.1854,2.3023,0.0,0.0,2.3985,2.2359,2.1493,2.1493,2.0363,1.9798,1.9798,1.9798,1.9798,1.9798,1.9798,1.9798,1.9798,1.9798,1.9798,1.9798,1.9798,1.9798,1.9798,1.9798,1.9798,1.9798,1.9798,1.9798,1.9798,1.5784,1.5784,1.5784,1.5784,1.5784,1.5784,1.5784,1.5784,1.5784,1.5784,1.5784,1.5784,1.5784,1.5784,1.5784,1.5784,1.5784,1.5784,1.5784,1.5784,1.5784,1.5784,1.5784,1.5784,1.5784,1.5671,1.5444,1.515,1.4856,1.4563,1.4275,1.4142,1.4088,1.4088,1.4088,1.4088,1.4166,1.5255,1.696,1.8997,1.8997,1.9283,0.0,2.0362,2.0245,1.9681,1.9608,1.8949,1.8093,1.8041,1.8008,1.8008,1.8008,1.7647,1.732,1.7828,1.7647,1.7282,1.7639,1.7734,1.7478,1.6271,1.5983,1.5707,1.4648,1.464,1.4848,0.0,0.0,0.0,0.0,0.0,0.0,1.3728,1.3267,1.2915,1.2915,1.4001,1.5072,1.5729,1.6558,1.7287,1.7954,1.7842,1.8086,1.8936,1.976,0.0,0.0,0.0,0.0,2.3973,2.2359,2.1493,2.1493,2.0363,1.9798,1.9798,1.9798,1.9798,1.9798,1.9798,1.9798,1.9798,1.9798,1.9798,1.9798,1.9798,1.9798,1.9798,1.9798,1.9798,1.9798,1.9798,1.9798,1.9798,1.5784,1.5858,1.5872,1.5791,1.5784,1.5784,1.5784,1.5784,1.5784,1.5784,1.5784,1.5784,1.5784,1.5784,1.5784,1.5784,1.5784,1.5784,1.5784,1.5784,1.5784,1.5784,1.5784,1.5784,1.5784,1.5784,1.5691,1.5398,1.5149,1.481,1.4466,1.4222,1.4088,1.4088,1.4088,1.425,1.4573,1.5504,1.7204,1.9204,1.9204,1.9766,2.0605,2.0605,2.0605,2.0546,2.0068,1.9648,1.916,1.8359,1.8057,1.8008,1.8008,1.8008,1.8008,1.8008,1.8008,1.792,1.75,1.7383,1.72,1.632,1.6095,1.5919,1.5296,1.5604,1.5927,1.5691,1.5503,1.5528,0.0,0.0,0.0,1.3247,1.352,1.3778,1.3778,1.4704,1.5693,1.6498,1.6706,0.0,0.0,0.0,1.7793,1.8539,1.9094,0.0,0.0,0.0,0.0,2.396,2.2359,2.1493,2.1493,0.0,1.9798,1.9798,1.9798,1.9798,1.9798,1.9798,1.9798,1.9798,1.9798,1.9798,1.9798,1.9798,1.9798,1.9798,1.9798,1.9798,1.9798,1.9798,1.9798,1.9798,1.5784,1.6025,1.6119,1.5872,1.5784,1.5784,1.5784,1.5784,1.5784,1.5784,1.5784,1.5784,1.5784,1.5784,1.5784,1.5784,1.5784,1.5784,1.5784,1.5784,1.5784,1.5784,1.5784,1.5784,1.5784,1.5784,1.5691,1.5398,1.5149,1.481,1.4466,0.0,1.4088,1.4088,1.4088,1.5068,1.6731,1.6927,0.0,2.0323,2.0323,2.044,2.0605,2.0605,2.0605,2.0546,2.0068,1.9648,1.9209,1.8666,1.8256,1.8008,1.8008,1.8008,1.8008,1.8008,1.8008,1.792,1.75,1.7383,1.72,1.632,1.6095,1.5956,1.5456,1.5429,1.5508,1.5475,1.5725,1.6083,1.6494,0.0,0.0,0.0,1.4676,1.4372,1.4372,1.5523,1.6419,1.6567,1.7285,1.7828,0.0,0.0,0.0,1.8559,1.8705,0.0,0.0,0.0,0.0,0.0,2.2359,0.0,0.0,0.0,1.9798,1.9798,1.9798,1.9798,1.9798,1.9798,1.9798,1.9798,1.9798,1.9798,1.9798,1.9798,1.9798,1.9798,1.9798,1.9798,1.9798,1.9798,1.9798,1.9798,1.6279,1.6279,1.6226,1.6086,1.5932,1.5784,1.5784,1.5784,1.5784,1.5784,1.5784,1.5784,1.5784,1.5784,1.5784,1.5784,1.5784,1.5784,1.5784,1.5784,1.5784,1.5784,1.5784,1.5784,1.5784,1.5784,1.5758,1.5618,1.5331,1.511,1.4963,0.0,1.4309,1.4309,1.4972,1.5701,1.6568,0.0,0.0,1.9805,2.0362,2.0605,2.0605,2.0605,2.0605,2.0576,2.0322,1.998,1.9512,1.8822,1.8461,1.8256,1.8076,1.8008,1.8008,1.8008,1.8008,1.792,1.75,1.7217,1.6885,1.6261,1.5919,1.5674,1.5459,1.541,1.541,1.541,1.5576,1.5767,1.5847,1.5884,0.0,0.0,0.0,1.5222,1.5222,1.6254,1.7085,1.7292,1.7716,1.8008,1.8008,1.8008,1.8096,1.8256,1.8494,1.9366,0.0,0.0,0.0,0.0,0.0,0.0,0.0,0.0,0.0,1.9798,1.9798,1.9798,1.9798,1.9798,1.9798,1.9798,1.9798,1.9798,1.9798,1.9798,1.9798,1.9798,1.9798,1.9798,1.9798,1.9798,1.9798,1.9798,1.664,1.672,1.671,1.6628,1.6586,1.6608,1.6608,1.6608,1.6379,1.5872,1.5784,1.592,1.615,1.5967,1.592,1.6204,1.5967,1.5784,1.5784,1.5784,1.5784,1.5784,1.5784,1.5784,1.5784,1.5784,1.5784,1.5784,1.5538,0.0,0.0,0.0,0.0,0.0,0.0,0.0,0.0,0.0,1.9693,1.97,2.0418,2.0752,2.0742,2.0644,2.0605,2.0605,2.0605,2.0342,1.9932,1.9134,1.8754,1.8539,1.8217,1.8086,1.8008,1.8008,1.8008,1.792,1.75,1.7061,1.659,1.6202,1.5732,1.541,1.541,1.541,1.541,1.541,1.541,1.5397,1.5442,1.5633,0.0,0.0,0.0,0.0,1.6187,1.6883,1.7539,1.7959,1.8008,1.8008,1.8008,0.0,0.0,0.0,0.0,1.9244,2.0348,2.1369,2.2212,0.0,0.0,2.1493,2.1493,0.0,1.9698,1.9798,1.9572,1.9585,1.9798,1.9685,1.9698,1.9798,1.9798,1.9798,1.9798,1.9798,1.9798,1.9798,1.9798,1.9798,1.9798,1.9798,1.9798,1.9798,1.642,1.7373,1.8133,1.7646,1.8427,1.9177,1.9177,1.9177,1.8349,1.6103,1.5784,1.6244,1.7412,1.648,1.6244,1.7412,1.648,1.5784,1.5784,1.5784,1.5784,1.5784,1.5784,1.5784,1.5784,1.5784,1.5784,1.5784,1.5538,1.5398,0.0,0.0,0.0,0.0,0.0,0.0,0.0,2.0048,2.0736,2.1605,2.1288,2.1132,2.1083,2.0723,2.0605,2.0605,2.0605,2.0576,2.0468,1.9961,1.9241,1.8598,1.8559,1.8286,1.8008,1.8008,1.8008,1.792,1.75,1.7061,1.659,1.6202,1.5732,1.541,1.541,1.541,1.541,1.541,1.541,1.5654,1.6406,1.5951,1.5795,0.0,0.0,0.0,0.0,1.734,1.7539,1.7959,1.8008,1.8008,1.8008,1.8008,0.0,0.0,1.878,1.9382,1.9763,2.114,2.2031,2.2368,0.0,2.1493,2.1493,1.9899,1.9309,1.9798,1.8819,1.8857,1.9786,1.9284,1.9334,1.9798,1.9798,1.9798,1.9798,1.9798,1.9798,1.9798,1.9798,1.9798,1.9798,1.9798,1.9798,1.9798,1.7548,1.7979,1.8419,1.8942,1.9269,1.9497,1.9497,1.9497,1.9123,1.8164,1.8033,1.8218,1.8726,1.8311,1.8218,1.8726,1.763,1.6943,1.6943,1.6197,1.5784,1.5784,1.5784,1.5784,1.5784,1.5784,1.5784,1.5784,1.5712,0.0,0.0,0.0,0.0,0.0,0.0,1.96,2.0256,2.1208,2.1713,2.1865,2.1699,2.1434,2.1171,2.1035,2.0801,2.0605,2.0605,2.0605,2.0576,2.0361,1.9902,1.928,1.8763,1.849,1.8295,1.8086,1.8008,1.7978,1.7803,1.7451,1.7021,1.6572,1.6133,1.5762,1.5469,1.541,1.541,1.541,1.541,1.5518,1.5849,1.5869,1.5889,0.0,0.0,0.0,0.0,1.6992,1.7246,1.793,1.8008,1.791,1.7656,1.7861,0.0,0.0,0.0,1.9575,2.0204,2.0947,0.0,2.2739,0.0,2.1018,2.1018,1.9685,1.8945,1.8832,1.8405,1.8581,1.9309,1.9096,1.9284,1.9798,1.9798,1.9798,1.9798,1.9798,1.9798,1.9798,1.9798,1.9798,1.9798,1.9798,1.9798,1.9798,1.8145,1.8512,1.8973,2.0117,2.044,2.0539,2.0539,2.0539,2.0539,2.0539,2.0539,2.0404,2.0079,1.9716,1.9625,1.9988,1.891,1.8234,1.8234,1.7084,1.6339,1.6339,1.6339,1.6339,1.6339,1.6339,1.6339,1.6339,1.5967,0.0,0.0,0.0,0.0,0.0,2.0543,2.1037,2.1141,2.2207,2.2519,2.2246,2.2119,2.1885,2.1541,2.1298,2.1035,2.0742,2.0644,2.0605,2.0605,2.0605,2.04,1.9971,1.9202,1.8802,1.8539,1.8247,1.8105,1.8008,1.8008,1.7705,1.7275,1.6804,1.6396,1.5977,1.5508,1.541,1.541,1.541,1.541,1.541,1.541,1.5664,1.584,1.5635,0.0,0.0,0.0,1.6924,1.7197,1.792,1.8008,1.79,1.7598,1.8057,0.0,0.0,0.0,0.0,0.0,0.0,0.0,0.0,0.0,0.0,0.0,1.9321,1.8569,1.8204,1.8041,1.8342,1.9008,1.9158,1.9434,1.9798,1.9798,1.9798,1.9798,1.9798,1.9798,1.9798,1.9798,1.9798,1.9798,1.9798,1.9798,1.9798,1.7908,1.9052,2.0188,2.1141,2.2271,2.3047,2.3047,2.3047,2.3047,2.3047,2.3047,2.2589,2.1426,2.0215,1.9988,2.1159,2.0169,1.9497,1.9497,1.8373,1.7692,0.0,0.0,1.7692,1.7692,1.7692,1.7692,1.7692,0.0,0.0,1.5832,0.0,1.8985,2.1275,2.1284,2.1933,2.3081,2.3081,2.3081,2.3042,2.2676,2.25,2.2402,2.1512,2.119,2.1132,2.0723,2.0605,2.0605,2.0605,2.0595,2.0517,2.0039,1.928,1.8598,1.8598,1.8295,1.8008,1.8008,1.7705,1.7275,1.6804,1.6396,1.5977,1.5508,1.541,1.541,1.541,1.541,1.541,1.541,1.5391,1.5557,1.6016,0.0,0.0,0.0,1.7373,1.7529,1.7959,1.8008,1.8008,1.8008,1.8787,0.0,0.0,0.0,0.0,0.0,0.0,0.0,2.1531,2.0993,0.0,1.9823,1.8756,1.8216,1.8191,1.7652,1.7965,1.902,1.956,1.9798,1.9798,1.9798,1.9798,1.9798,1.9798,1.9798,1.9798,1.9798,1.9798,1.9798,1.9798,1.9798,1.9798,2.0046,2.0568,2.1221,2.2334,2.2862,2.3091,2.3091,2.3091,2.3091,2.3091,2.3091,2.296,2.2589,2.2183,2.2129,0.0,2.1436,2.0711,0.0,1.9579,1.891,1.891,1.891,1.891,1.891,1.891,1.891,1.891,0.0,0.0,0.0,1.998,2.0989,2.2536,2.2536,2.2721,2.3091,2.3091,2.3091,2.3081,2.2945,2.2721,2.248,2.2207,2.1707,2.1181,2.1034,2.083,2.0605,2.0605,2.0605,2.0576,2.0439,1.9971,1.9358,1.8773,1.851,1.8344,1.8052,1.791,1.7637,1.6882,1.659,1.6318,1.5576,1.541,1.541,1.541,1.541,1.541,1.541,1.541,1.5459,1.5596,1.5899,0.0,1.6855,0.0,1.7432,1.7568,1.7832,1.7783,1.7165,1.843,0.0,0.0,0.0,0.0,0.0,0.0,0.0,0.0,2.0577,0.0,1.9259,1.8907,1.8392,1.7674,1.7852,1.8329,1.902,1.956,1.9798,1.9798,1.9798,1.9798,1.9798,1.9798,1.9798,1.9798,1.9798,1.9798,1.9798,1.9798,1.9798,1.9798,2.1096,2.1419,2.195,2.3148,2.3198,2.3149,2.3359,2.3198,2.3091,2.3091,2.3091,2.3091,2.3091,2.3091,0.0,2.3091,2.2403,2.1987,2.1987,2.0845,2.0169,2.0169,2.0169,2.0169,2.0169,2.0169,0.0,2.0169,1.9716,2.0124,2.1293,2.1293,2.1933,2.3091,2.3091,2.3091,2.3091,2.3091,2.3091,2.3091,2.3091,2.2935,2.2734,2.2578,2.2178,2.1629,2.1307,2.1055,2.0791,2.0664,2.0605,2.0605,2.0605,2.0419,2.0019,1.929,1.8851,1.8549,1.8286,1.8135,1.7842,1.7148,1.6824,1.6473,1.5615,1.541,1.541,1.541,1.541,1.541,1.541,1.5547,1.5654,1.5654,1.6162,1.6692,1.6934,0.0,1.7559,0.0,0.0,0.0,0.0,1.8511,1.9402,0.0,0.0,0.0,0.0,0.0,0.0,2.1179,2.01,0.0,1.9008,1.8594,1.8166,1.7725,1.8254,1.877,1.9309,1.966,1.9798,1.9798,1.9798,1.9798,1.9798,1.9798,1.9798,1.9798,1.9798,1.9798,1.9798,1.9798,1.9798,1.9836,2.1347,2.188,2.2529,0.0,2.3477,0.0,2.373,2.3418,2.3091,2.3091,2.3091,2.3091,2.3091,2.3091,2.3091,2.3091,0.0,0.0,0.0,2.2031,2.1426,2.1426,2.1426,2.1426,2.1426,2.1426,2.1426,2.1426,2.0305,2.0305,2.1426,2.1426,2.2031,2.3091,2.3091,2.3091,2.3091,2.3091,2.3091,2.3091,2.3091,2.3091,2.3052,2.2662,2.2539,2.2402,2.157,2.1249,2.1132,2.0752,2.0635,2.0605,2.0605,2.0605,2.0517,2.0049,1.929,1.8637,1.8607,1.8295,1.791,1.749,1.7031,1.6443,1.5644,1.543,1.541,1.541,1.541,1.542,1.5449,1.5821,1.6105,1.6134,1.6858,1.7383,1.7383,1.7715,1.7812,0.0,0.0,0.0,0.0,1.8936,1.9931,0.0,0.0,0.0,0.0,0.0,2.1207,2.0641,1.961,1.9045,1.9008,1.8041,1.7825,1.8329,1.8807,1.9309,1.9798,1.9798,1.9798,1.9798,1.9798,1.9798,1.9798,1.9798,1.9798,1.9798,1.9798,1.9798,1.9798,1.9798,1.9823,1.9936,0.0,0.0,2.3936,2.4222,2.3916,2.3672,2.3769,2.3418,2.3091,2.3091,2.3091,2.3091,2.3091,2.3091,2.3091,2.3091,2.3091,2.3091,2.3091,2.2818,2.2677,2.2677,2.2677,2.2677,2.2677,2.2677,2.2677,2.2677,2.2403,2.2403,2.2677,2.2677,2.2818,2.3091,2.3091,2.3091,2.3091,2.3091,2.3091,2.3091,2.3091,2.3091,2.3081,2.2984,2.275,2.248,2.2285,2.1746,2.1181,2.1073,2.085,2.0605,2.0605,2.0605,2.0517,2.0049,1.9541,1.9062,1.8695,1.8295,1.791,1.749,1.6829,1.6202,1.5987,1.5654,1.541,1.541,1.541,1.5508,1.588,1.6026,1.6202,1.6523,1.7031,1.7383,1.7383,1.7471,1.7373,0.0,1.7362,1.7647,1.7538,1.9351,2.0552,0.0,0.0,0.0,0.0,2.0893,2.0629,2.0024,1.9748,1.9409,1.9008,1.9158,1.9296,1.9422,1.956,1.9685,1.9798,1.9798,1.9798,1.9798,1.9798,1.9798,1.9798,1.9798,1.9798,1.9798,1.9798,1.9798,1.9798,1.9798,2.0075,2.0515,2.4375,2.458,2.4717,2.4717,2.4199,2.3857,2.4043,2.35,2.3091,2.3091,2.3091,2.3091,2.3091,2.3091,2.3091,2.3091,2.3091,2.3091,2.3091,2.3091,2.3091,2.3091,2.3091,2.3091,2.3091,2.3091,2.3091,2.3091,2.3091,2.3091,2.3091,2.3091,2.3091,2.3091,2.3091,2.3091,2.3091,2.3091,2.3091,2.3091,2.3091,2.3091,2.3091,2.3091,2.2955,2.273,2.2578,2.2217,2.1717,2.1327,2.1034,2.083,2.0674,2.0605,2.0556,2.0283,1.9912,1.9482,1.9053,1.8588,1.8144,1.7539,1.6875,1.6318,1.6134,1.5723,1.541,1.541,1.541,1.5547,1.6007,1.6261,1.6514,1.6963,1.7393,1.7666,1.7666,1.75,0.0,1.723,1.7379,1.7713,1.8245,1.9286,2.0184,2.0754,2.1017,0.0,2.0717,2.044,2.0125,1.9811,1.9572,1.9396,1.9359,1.966,1.9685,1.9447,1.9685,1.9798,1.9798,1.9798,1.9798,1.9798,1.9798,1.9798,1.9798,1.9798,1.9798,1.9798,1.9798,1.9798,1.9798,1.9798,2.0189,2.0729,2.46,2.4912,2.5166,2.5166,2.4512,2.4082,2.4375,2.3695,2.3169,2.3101,2.3091,2.3091,2.3091,2.3091,2.3091,2.3091,2.3091,2.3091,2.3091,2.3091,2.3091,2.3091,2.3091,2.3091,2.3091,2.3091,2.3091,2.3091,2.3091,2.3091,2.3091,2.3091,2.3091,2.3091,2.3091,2.3091,2.3091,2.3091,2.3091,2.3091,2.3091,2.3091,2.3091,2.3091,2.3091,2.3052,2.2691,2.2568,2.2402,2.1629,2.1298,2.1132,2.0791,2.0664,2.0605,2.0605,2.0303,1.9922,1.9502,1.9014,1.8412,1.7676,1.7148,1.6719,1.629,1.585,1.5488,1.542,1.5469,1.5644,1.6114,1.6533,1.6992,1.749,1.7822,1.8037,1.8096,0.0,1.7538,1.7781,1.7571,1.7957,1.9321,1.9168,1.9624,2.1139,2.0426,2.0112,2.0541,2.0075,1.9798,1.9798,1.9346,1.9334,1.9798,1.9798,1.9572,1.9121,1.9597,1.9798,1.9798,1.9798,1.985,1.9952,1.985,1.985,1.9952,1.985,1.985,1.9952,1.9952,1.9952,1.9965,2.0041,2.0393,2.0893,2.5411,2.5538,2.5635,2.5635,2.5205,2.4766,2.4463,2.4004,2.3555,2.314,2.3091,2.3091,2.3091,2.3091,2.3091,2.3091,2.3091,2.3091,2.3091,2.3091,2.3091,2.3091,2.3091,2.3091,2.3091,2.3091,2.3091,2.3091,2.3091,2.3091,2.3091,2.3091,2.3091,2.3091,2.3091,2.3091,2.3091,2.3091,2.3091,2.3091,2.3091,2.3091,2.3091,2.3091,2.3091,2.3091,2.3023,2.2769,2.249,2.2363,2.1795,2.1181,2.1112,2.0869,2.0605,2.0605,2.0556,2.041,1.9932,1.9202,1.849,1.8037,1.7598,1.7168,1.6697,1.6279,1.5889,1.5488,1.5703,1.6124,1.6512,1.6982,1.7539,1.8286,1.8159,1.8135,1.8451,0.0,1.7761,1.7801,1.818,1.8565,1.8819,1.9797,2.0295,2.0087,2.0377,2.0377,1.9962,1.9849,1.9798,1.9798,1.9723,1.9723,1.9798,1.9798,1.9761,1.9685,1.9761,1.9798,1.9798,1.9798,2.0105,2.0597,2.0055,2.0131,2.0597,2.0029,2.0131,2.0646,2.0646,2.0646,2.0712,2.1146,2.1337,2.1443,2.5596,2.5547,2.5449,2.5645,2.499,2.4385,2.4414,2.3857,2.3369,2.312,2.3091,2.3091,2.3091,2.3091,2.3091,2.3091,2.3091,2.3091,2.3091,2.3091,2.3091,2.3091,2.3091,2.3091,2.3091,2.3091,2.3091,2.3091,2.3091,2.3091,2.3091,2.3091,2.3091,2.3091,2.3091,2.3091,2.3091,2.3091,2.3091,2.3091,2.3091,2.3091,2.3091,2.3091,2.3091,2.3091,2.3091,2.2974,2.2769,2.2588,2.21,2.1543,2.1268,2.0928,2.0605,2.0605,2.0439,2.0127,1.9697,1.9121,1.85,1.8115,1.7695,1.7334,1.7129,1.6738,1.6367,1.6132,1.6279,1.6562,1.7002,1.7246,1.7578,1.8159,1.8135,0.0,0.0,1.8109,1.8002,1.8585,1.8684,1.8859,1.9254,1.9854,2.0087,1.9823,2.0049,2.0087,1.9811,1.9798,1.9798,1.9798,1.9798,1.9798,1.9798,1.9798,1.9798,1.9798,1.9798,1.9798,1.9798,2.0169,2.0691,2.1308,2.0939,2.0977,2.1283,2.0564,2.0694,2.1333,2.1333,2.1746,2.2334,2.2205,2.231,2.2553,2.5625,2.5459,2.5332,2.5625,2.4902,2.4287,2.4394,2.3812,2.3325,2.312,2.3091,2.3091,2.3091,2.3091,2.3091,2.3091,2.3091,2.3091,2.3091,2.3091,2.3091,2.3091,2.3091,2.3091,2.3091,2.3091,2.3091,2.3091,2.3091,2.3091,2.3091,2.3091,2.3091,2.3091,2.3091,2.3091,2.3091,2.3091,2.3091,2.3091,2.3091,2.3091,2.3091,2.3091,2.3091,2.3091,2.3091,2.3091,2.3042,2.2721,2.2383,2.1953,2.1523,2.1084,2.0742,2.0635,2.0322,1.9971,1.9551,1.9121,1.8646,1.8227,1.7842,1.75,1.7402,1.7119,1.6824,1.6726,1.6924,1.725,1.7598,1.778,1.7989,1.8383,0.0,0.0,0.0,1.8302,1.8387,1.928,1.9156,1.9176,1.9747,1.9798,1.9798,1.9798,1.9798,1.9798,1.9798,1.9798,1.9798,1.9798,1.9798,1.9798,1.9798,1.9798,1.9798,1.9798,1.9798,1.9874,2.0025,2.073,2.1462,2.2226,2.2136,2.2238,2.2417,2.1708,2.1812,2.248,2.248,2.3071,2.3867,2.3453,2.3326,2.3423,2.5684,2.5664,2.5654,2.5684,2.5606,2.5284,2.4541,2.4365,2.3988,2.3198,2.3091,2.3091,2.3091,2.3091,2.3091,2.3091,2.3091,2.3091,2.3091,2.3091,2.3091,2.3091,2.3091,2.3091,2.3091,2.3091,2.3091,2.3091,2.3091,2.3091,2.3091,2.3091,2.3091,2.3091,2.3091,2.3091,2.3091,2.3091,2.3091,2.3091,2.3091,2.3091,2.3091,2.3091,2.3091,2.3091,2.3091,2.3091,2.3091,2.3062,2.2769,2.2393,2.1973,2.1543,2.1064,2.0723,2.0586,2.0458,1.999,1.9561,1.9131,1.8666,1.8237,1.7861,1.7471,1.7363,1.7227,1.6785,1.765,1.8469,1.851,1.8865,1.9304,1.9685,0.0,0.0,1.8949,1.8931,1.8969,1.9336,1.9585,1.9747,1.9798,1.9798,1.9798,1.9798,1.9798,1.9798,1.9798,1.9798,1.9798,1.9798,1.9798,1.9798,1.9798,1.9798,1.9798,1.9798,1.9798,2.0087,2.0655,2.1394,2.2357,2.3482,2.3518,2.3884,2.4435,2.3772,2.3873,2.4484,2.4484,2.4537,2.4677,2.5128,2.4497,2.3572,2.5693,2.5518,2.541,2.5635,2.5235,2.4893,2.4834,2.4375,2.3916,2.3584,2.3257,2.3091,2.3091,2.3091,2.3091,2.3091,2.3091,2.3091,2.3091,2.3091,2.3091,2.3091,2.3091,2.3091,2.3091,2.3091,2.3091,2.3091,2.3091,2.3091,2.3091,2.3091,2.3091,2.3091,2.3091,2.3091,2.3091,2.3091,2.3091,2.3091,2.3091,2.3091,2.3091,2.3091,2.3091,2.3091,2.3091,2.3091,2.3091,2.3091,2.2818,2.248,2.2324,2.1797,2.1103,2.0742,2.0605,2.0566,2.0361,1.9814,1.918,1.8705,1.8286,1.7969,1.7812,1.7773,1.7725,1.7525,1.8322,1.9036,1.9036,1.963,2.003,1.9803,0.0,1.8605,1.9201,1.8858,1.8805,1.9553,1.9742,1.9798,1.9798,1.9798,1.9798,1.9798,1.9798,1.9798,1.9798,1.9798,1.9798,1.9798,1.9798,1.9798,1.9798,1.9798,1.9987,2.0365,2.0365,2.0654,2.1234,2.2392,2.3354,2.418,2.4608,2.498,2.5207,2.4479,2.4608,2.5271,2.5286,2.5798,2.648,2.6205,2.5779,2.5406,2.5693,2.5488,2.5371,2.5635,2.5187,2.4883,2.5086,2.4453,2.3935,2.3809,2.3408,2.3091,2.3091,2.3091,2.3091,2.3091,2.3091,2.3091,2.3091,2.3091,2.3091,2.3091,2.3091,2.3091,2.3091,2.3091,2.3091,2.3091,2.3091,2.3091,2.3091,2.3091,2.3091,2.3091,2.3091,2.3091,2.3091,2.3091,2.3091,2.3091,2.3091,2.3091,2.3091,2.3091,2.3091,2.3091,2.3091,2.3091,2.3091,2.3091,2.2906,2.2685,2.2549,2.1882,2.1103,2.0742,2.0605,2.0605,2.0605,1.9979,1.9219,1.8916,1.8428,1.8008,1.8008,1.8008,1.8008,1.8008,1.8911,1.964,1.9458,2.0133,2.0532,1.9958,1.9206,1.8859,1.9322,1.8969,1.8923,1.9706,1.9798,1.9798,1.9798,1.9798,1.9798,1.9798,1.9798,1.9798,1.9798,1.9798,1.9798,1.9798,1.9798,1.9886,2.0075,2.0075,2.0483,2.1308,2.1308,2.1575,2.214,2.3577,2.4433,2.483,2.5767,2.6192,2.6192,2.5675,2.5779,2.6217,2.6272,2.683,2.7549,2.7034,2.6695,2.6537,2.5693,2.5693,2.5693,2.5693,2.5693,2.5586,2.5184,2.4697,2.4268,2.3848,2.3408,2.3091,2.3091,2.3091,2.3091,2.3091,2.3091,2.3091,2.3091,2.3091,2.3091,2.3091,2.3091,2.3091,2.3091,2.3091,2.3091,2.3091,2.3091,2.3091,2.3091,2.3091,2.3091,2.3091,2.3091,2.3091,2.3091,2.3091,2.3091,2.3091,2.3091,2.3091,2.3091,2.3091,2.3091,2.3091,2.3091,2.3091,2.3091,2.3091,2.3091,2.3023,2.2604,2.1882,2.1112,2.0742,2.0605,2.0605,2.0605,1.9979,1.9287,1.9287,1.8643,1.8008,1.8008,1.8008,1.8008,1.8008,1.9398,2.0402,1.9836,2.0423,2.0843,2.0309,1.9485,1.9039,1.9375,1.9388,1.9501,1.9758,1.9798,1.9798,1.9798,1.9798,1.9798,1.9798,1.9798,1.9798,1.9798,1.9798,1.9798,1.9811,1.9811,2.0087,2.0704,2.0691,2.1347,2.2604,2.2604,2.2909,2.3478,2.4934,2.5524,2.5481,2.6967,2.76,2.76,2.76,2.76,2.76,2.76,2.76,2.76,2.76,2.7152,2.6616,2.5693,2.5693,2.5693,2.5693,2.5693,2.5645,2.5557,2.4902,2.4375,2.4248,2.3549,2.3091,2.3091,2.3091,2.3091,2.3091,2.3091,2.3091,2.3091,2.3091,2.3091,2.3091,2.3091,2.3091,2.3091,2.3091,2.3091,2.3091,2.3091,2.3091,2.3091,2.3091,2.3091,2.3091,2.3091,2.3091,2.3091,2.3091,2.3091,2.3091,2.3091,2.3091,2.3091,2.3091,2.3091,2.3091,2.3091,2.3091,2.3091,2.3091,2.3091,2.2974,2.2295,2.1894,2.1543,2.083,2.0605,2.075,2.1413,2.0657,1.9658,1.9365,1.8643,1.8168,1.8754,1.8428,1.8168,1.8787,1.9824,2.0546,2.0357,2.1493,2.2177,2.1251,2.0452,1.9901,1.9713,1.9233,1.9134,1.9734,1.9798,1.9798,1.9798,1.9798,1.9798,1.9798,1.9798,1.9798,1.9798,1.9798,1.9987,2.0427,2.0427,2.0893,2.1807,2.1584,2.2049,2.3186,2.369,2.4245,2.4846,2.5797,2.6218,2.6229,2.7188,2.76,2.76,2.76,2.76,2.76,2.76,2.76,2.76,2.76,2.7458,2.7306,2.5693,2.5693,2.5693,2.5693,2.5693,2.5625,2.5498,2.4873,2.4355,2.4189,2.352,2.3091,2.3091,2.3091,2.3091,2.3091,2.3091,2.3091,2.3091,2.3091,2.3091,2.3091,2.3091,2.3091,2.3091,2.3091,2.3091,2.3091,2.3091,2.3091,2.3091,2.3091,2.3091,2.3091,2.3091,2.3091,2.3091,2.3091,2.3091,2.3091,2.3091,2.3091,2.3091,2.3091,2.3091,2.3091,2.3091,2.3091,2.3091,2.3091,2.3091,2.2945,2.2148,2.1885,2.1709,2.086,2.0857,2.126,2.1849,2.1553,2.0896,2.0092,1.9078,1.8409,1.9152,1.8877,1.8754,1.9628,2.0526,2.1043,2.0805,2.1861,2.2493,2.1631,2.1131,2.0757,2.0511,2.0103,1.9956,2.041,2.0275,2.0225,2.0451,2.0062,1.9798,1.9798,1.9798,1.9899,2.0125,2.015,2.0427,2.0993,2.1018,2.1446,2.2297,2.2382,2.3017,2.4201,2.4641,2.5188,2.5864,2.6602,2.6774,2.6537,2.728,2.76,2.76,2.76,2.76,2.76,2.76,2.76,2.76,2.76,2.76,2.76,2.5693,2.5693,2.5693,2.5693,2.5693,2.5596,2.5195,2.4756,2.4336,2.3955,2.3525,2.3208,2.3208,2.3179,2.3149,2.3149,2.312,2.3091,2.3091,2.3091,2.3091,2.3091,2.3091,2.3091,2.3091,2.3091,2.3091,2.3091,2.3091,2.3091,2.3091,2.3091,2.3091,2.3091,2.3091,2.3091,2.3091,2.3091,2.3091,2.3091,2.3091,2.3091,2.3091,2.3091,2.3091,2.3091,2.3091,2.3091,2.3091,2.3091,2.3091,2.2998,2.2313,2.207,2.1873,2.1135,2.152,2.214,2.2253,2.2608,2.2682,2.142,2.0015,1.8974,1.9348,1.9365,1.9562,2.0526,2.1365,2.1723,2.1163,2.179,2.2209,2.1656,2.1556,2.1543,2.1493,2.1493,2.1493,2.1493,2.1069,2.0968,2.1443,2.0564,1.9949,1.9949,1.9949,2.0188,2.0742,2.0767,2.1018,2.1543,2.1556,2.1832,2.2385,2.3023,2.4062,2.5398,2.5481,2.5892,2.6616,2.7306,2.7229,2.6642,2.7306,2.76,2.76,2.76,2.76,2.76,2.76,2.76,2.76,2.76,2.76,2.76,2.5693,2.5693,2.5693,2.5693,2.5693,2.5654,2.5557,2.5215,2.494,2.4851,2.4414,2.4141,2.4141,2.3848,2.3652,2.3652,2.3286,2.3091,2.3091,2.3091,2.3091,2.3091,2.3091,2.3091,2.3091,2.3091,2.3091,2.3091,2.3091,2.3091,2.3091,2.3091,2.3091,2.3091,2.3091,2.3091,2.3091,2.3091,2.3091,2.3091,2.3091,2.3091,2.3091,2.3091,2.3091,2.3091,2.3091,2.3091,2.3091,2.3091,2.3091,2.3168,2.3586,2.3401,2.3067,2.3388,2.3332,2.3331,2.4156,2.3883,2.339,2.3503,2.2376,2.1112,2.0456,1.9781,1.9748,2.1302,2.1784,2.1842,2.1723,2.2365,2.2744,2.2221,2.2133,2.1983,2.1543,2.1493,2.1493,2.1493,2.1408,2.1355,2.1481,2.1267,2.1129,2.1129,2.1129,2.1179,2.1333,2.1333,2.1556,2.2121,2.2133,2.2368,2.292,2.3098,2.3916,2.5398,2.5987,2.6654,2.7382,2.7524,2.7524,2.7382,2.7524,2.76,2.76,2.76,2.76,2.76,2.76,2.76,2.76,2.76,2.76,2.76,2.5693,2.5693,2.5693,2.5693,2.5693,2.5615,2.5449,2.5215,2.5037,2.4785,2.456,2.4414,2.4414,2.4219,2.4004,2.3809,2.3344,2.3091,2.3091,2.3091,2.3091,2.3091,2.3091,2.3091,2.3091,2.3091,2.3091,2.3091,2.3091,2.3091,2.3091,2.3091,2.3091,2.3091,2.3091,2.3091,2.3091,2.3091,2.3091,2.3091,2.3091,2.3091,2.3091,2.3091,2.3091,2.3091,2.3091,2.3091,2.3091,2.3091,2.3464,2.3925,2.4138,2.4345,2.4483,2.4352,2.4437,2.4663,2.4921,2.4957,2.4814,2.4406,2.3685,2.2843,2.1816,2.1049,2.091,2.2218,2.2476,2.2476,2.2476,2.2823,2.3007,2.2719,2.2681,2.2569,2.2309,2.2272,2.2272,2.2272,2.2046,2.1782,2.1506,2.1732,2.1769,2.1506,2.1493,2.1606,2.187,2.1882,2.2133,2.2656,2.2681,2.2819,2.3108,2.3108,2.3872,2.5398,2.5783,2.6549,2.76,2.76,2.76,2.76,2.76,2.76,2.76,2.76,2.76,2.76,2.76,2.76,2.76,2.76,2.76,2.76,2.5693,2.5693,2.5693,2.5693,2.5693,2.5567,2.5244,2.5185,2.5049,2.4687,2.4639,2.4639,2.4639,2.4512,2.4219,2.3721,2.3305,2.3091,2.3091,2.3091,2.3091,2.3091,2.3091,2.3091,2.3091,2.3091,2.3091,2.3091,2.3091,2.3091,2.3091,2.3091,2.3091,2.3091,2.3091,2.3091,2.3091,2.3091,2.3091,2.3091,2.3091,2.3091,2.3135,2.3299,2.3387,2.3387,2.3387,2.3387,2.343,2.3637,2.4178,2.4809,2.4834,2.5264,2.5673,2.5104,2.5481,2.5937,2.5397,2.5886,2.6202,2.4998,2.4587,2.4297,2.3408,2.2575,2.227,2.3094,2.317,2.3108,2.3108,2.3108,2.3108,2.3108,2.3108,2.3108,2.3108,2.3108,2.3108,2.3108,2.2706,2.2272,2.182,2.2184,2.2259,2.1807,2.1769,2.197,2.2393,2.2447,2.2631,2.3095,2.3108,2.3168,2.3305,2.3305,2.4115,2.5744,2.5744,2.641,2.76,2.76,2.76,2.76,2.76,2.76,2.76,2.76,2.76,2.76,2.76,2.76,2.76,2.76,2.76,2.76,2.5693,2.5693,2.5693,2.5693,2.5693,2.5664,2.5606,2.5596,2.5577,2.5518,2.5508,2.5508,2.5508,2.4826,2.4046,2.3257,2.313,2.3091,2.3091,2.3091,2.3091,2.3091,2.3091,2.3091,2.3091,2.3091,2.3091,2.3091,2.3091,2.3091,2.3091,2.3091,2.3091,2.3091,2.3091,2.3091,2.3091,2.3091,2.3091,2.3091,2.3091,2.3091,2.3222,2.4168,2.4585,2.4585,2.4585,2.4585,2.4702,2.5724,2.5504,2.5104,2.6984,2.6663,2.5888,2.7198,2.7344,2.6966,2.6429,2.6383,2.644,2.6249,2.5815,2.5382,2.5232,2.3847,2.2855,2.371,2.3446,2.3108,2.3108,2.3108,2.3108,2.3108,2.3108,2.3108,2.3108,2.3108,2.3108,2.3108,2.3045,2.2957,2.2895,2.2945,2.2957,2.2895,2.2882,2.292,2.2995,2.2995,2.3032,2.3108,2.3108,2.3424,2.4118,2.4147,2.518,2.7207,2.7207,2.7351,2.76,2.76,2.76,2.76,2.76,2.76,2.76,2.76,2.76,2.76,2.76,2.76,2.76,2.76,2.76,2.76,2.5693,2.5693,2.5693,2.5693,2.5693,2.5693,2.5693,2.5693,2.5693,2.5693,2.5693,2.5693,2.5693,2.4894,2.4268,2.3842,2.3374,2.3091,2.3091,2.3091,2.3091,2.3091,2.3091,2.3091,2.3091,2.3091,2.3091,2.3091,2.3091,2.3091,2.3091,2.3091,2.3091,2.3091,2.3091,2.3091,2.3091,2.3091,2.3091,2.3178,2.38,2.4049,2.4168,2.5305,2.5766,2.5766,2.5766,2.5766,2.585,2.6348,2.6543,2.6808,2.7792,2.8032,2.7972,2.8089,2.7934,2.7557,2.6725,2.6499,2.6499,2.6499,2.6298,2.6109,2.6109,2.5182,2.4275,2.4054,2.3791,2.3484,2.3158,2.3108,2.3108,2.3108,2.3108,2.3108,2.3108,2.3108,2.3108,2.3108,2.3108,2.3108,2.3108,2.3108,2.3108,2.3108,2.3108,2.3108,2.3108,2.3108,2.3108,2.3108,2.3108,2.3484,2.4292,2.4292,2.5363,2.7501,2.7501,2.7939,2.8708,2.8334,2.8169,2.8154,2.7764,2.76,2.76,2.76,2.76,2.76,2.76,2.76,2.76,2.76,2.76,2.76]}]]